<?xml version="1.0" encoding="UTF-8"?>
<gpx version="1.1" creator="2bulu-scraper" xmlns="http://www.topografix.com/GPX/1/1">
  <metadata><name>2026-05-06 10:49:47</name><desc>source: 2bulu.com trackId=83791669; exported 2026-09-01T18:02:00.432Z</desc>
    <bounds minlat="29.332854" minlon="105.28875" maxlat="29.345175" maxlon="105.30463"/>
    <link href="https://www.2bulu.com/track/t-fmbwT%252F%252BuNSzp%252FR2KBg5Tzw%253D%253D.htm"><text>2bulu 源页面</text></link>
  </metadata>
  <wpt lat="29.340361" lon="105.298695"><ele>365</ele><name>37 迎宾路小区外立面</name></wpt>
  <wpt lat="29.340002" lon="105.299315"><ele>366</ele><name>37 迎宾路小区沿街立面</name></wpt>
  <wpt lat="29.339943" lon="105.299505"><ele>367</ele><name>37 迎宾路小区人行道</name></wpt>
  <wpt lat="29.339697" lon="105.3"><ele>367</ele><name>37 迎宾路小区大门</name></wpt>
  <wpt lat="29.339535" lon="105.299874"><ele>366</ele><name>37 迎宾路小区箱变</name></wpt>
  <wpt lat="29.339486" lon="105.299868"><ele>368</ele><name>37 迎宾路小区内部道路</name></wpt>
  <wpt lat="29.339626" lon="105.299759"><ele>367</ele><name>37 迎宾路小区健身设施</name></wpt>
  <wpt lat="29.33962" lon="105.299718"><ele>365</ele><name>37 迎宾路小区灭火器</name></wpt>
  <wpt lat="29.339725" lon="105.29952"><ele>366</ele><name>37 迎宾路小区内道路</name></wpt>
  <wpt lat="29.339921" lon="105.299198"><ele>366</ele><name>37 迎宾路小区宅前绿化</name></wpt>
  <wpt lat="29.339228" lon="105.300199"><ele>366</ele><name>37 迎宾路小区东侧</name></wpt>
  <wpt lat="29.339819" lon="105.300484"><ele>367</ele><name>37 东方佳苑外立面</name></wpt>
  <wpt lat="29.339674" lon="105.300859"><ele>367</ele><name>37 东方佳苑门口</name></wpt>
  <wpt lat="29.339913" lon="105.300904"><ele>367</ele><name>37 东方佳苑箱变</name></wpt>
  <wpt lat="29.339719" lon="105.300996"><ele>368</ele><name>37 东方佳苑灭火器</name></wpt>
  <wpt lat="29.339855" lon="105.300967"><ele>367</ele><name>37 东方佳苑门卫室</name></wpt>
  <wpt lat="29.339412" lon="105.301363"><ele>370</ele><name>DL-34</name></wpt>
  <wpt lat="29.338692" lon="105.302857"><ele>370</ele><name>36 良种场小区外立面</name></wpt>
  <wpt lat="29.338451" lon="105.303455"><ele>371</ele><name>36 良种场小区外立面2</name></wpt>
  <wpt lat="29.338451" lon="105.303455"><ele>371</ele><name>36 良种场小区底商</name></wpt>
  <wpt lat="29.338574" lon="105.303556"><ele>370</ele><name>36 良种场小区内部</name></wpt>
  <wpt lat="29.338421" lon="105.303215"><ele>371</ele><name>36 良种场小区消防栓</name></wpt>
  <wpt lat="29.338236" lon="105.303858"><ele>371</ele><name>DL-35</name></wpt>
  <wpt lat="29.337682" lon="105.303235"><ele>374</ele><name>36 东升怡景大门</name></wpt>
  <wpt lat="29.338223" lon="105.302987"><ele>371</ele><name>36 东升怡景主入口</name></wpt>
  <wpt lat="29.338037" lon="105.302811"><ele>374</ele><name>36 东升怡景 健身设备</name></wpt>
  <wpt lat="29.33774" lon="105.303922"><ele>371</ele><name>36 木材市场小区 外立面</name></wpt>
  <wpt lat="29.337438" lon="105.303999"><ele>371</ele><name>36 木材市场小区 人行道</name></wpt>
  <wpt lat="29.337214" lon="105.304238"><ele>369</ele><name>36 木材市场小区 内部道路</name></wpt>
  <wpt lat="29.336988" lon="105.303215"><ele>372</ele><name>36 木材市场小区 配电箱</name></wpt>
  <wpt lat="29.333603" lon="105.300622"><ele>377</ele><name>35 厂棚（需确认点位）</name></wpt>
  <wpt lat="29.333586" lon="105.293451"><ele>379</ele><name>34 蜀东丽府 需核实点位</name></wpt>
  <wpt lat="29.33453" lon="105.293519"><ele>378</ele><name>DL 17</name></wpt>
  <wpt lat="29.335368" lon="105.292666"><ele>376</ele><name>34 东方花园 大门</name></wpt>
  <wpt lat="29.335379" lon="105.294013"><ele>376</ele><name>39 金鹅家属小区 大门</name></wpt>
  <wpt lat="29.33485" lon="105.294005"><ele>376</ele><name>39 金鹅家属小区 内部路</name></wpt>
  <wpt lat="29.33506" lon="105.294186"><ele>378</ele><name>39 金鹅家属小区 灭火器</name></wpt>
  <wpt lat="29.335355" lon="105.294417"><ele>374</ele><name>DL 16</name></wpt>
  <wpt lat="29.335393" lon="105.294607"><ele>376</ele><name>39 职中东区家属院</name></wpt>
  <wpt lat="29.335008" lon="105.294935"><ele>376</ele><name>39 职中东区家属院 灭火器</name></wpt>
  <wpt lat="29.335001" lon="105.294544"><ele>379</ele><name>39 职中东区家属院 配电室</name></wpt>
  <wpt lat="29.334853" lon="105.294524"><ele>377</ele><name>39 职中东区家属院 健身器材</name></wpt>
  <wpt lat="29.334128" lon="105.295976"><ele>375</ele><name>39 家园小区 大门</name></wpt>
  <wpt lat="29.334201" lon="105.295591"><ele>376</ele><name>39 家园小区 箱变</name></wpt>
  <wpt lat="29.33447" lon="105.295623"><ele>378</ele><name>39 家园小区 内部路</name></wpt>
  <wpt lat="29.334627" lon="105.295463"><ele>375</ele><name>39 家园小区 消防栓</name></wpt>
  <wpt lat="29.333575" lon="105.295957"><ele>374</ele><name>39 云峰路社区 居委会</name></wpt>
  <wpt lat="29.333408" lon="105.29435"><ele>378</ele><name>34 云丰小区 内部路</name></wpt>
  <wpt lat="29.333418" lon="105.294213"><ele>377</ele><name>34 云丰小区 消防栓</name></wpt>
  <wpt lat="29.334412" lon="105.293469"><ele>380</ele><name>39 天使花园大门</name></wpt>
  <wpt lat="29.334503" lon="105.293996"><ele>377</ele><name>39 天使花园绿化</name></wpt>
  <wpt lat="29.334101" lon="105.29414"><ele>378</ele><name>39 天使花园 灭火器</name></wpt>
  <wpt lat="29.334017" lon="105.294616"><ele>376</ele><name>39 天使花园 安防</name></wpt>
  <wpt lat="29.334012" lon="105.294668"><ele>379</ele><name>39 天使花园 停车场</name></wpt>
  <wpt lat="29.334272" lon="105.294643"><ele>379</ele><name>39 天使花园 内部路</name></wpt>
  <wpt lat="29.335378" lon="105.293361"><ele>375</ele><name>DL15</name></wpt>
  <trk><name>2026-05-06 10:49:47</name>
      <trkseg>
        <trkpt lat="29.33635" lon="105.294762"><ele>370.4953</ele><time>2026-05-05T18:51:07.000Z</time></trkpt>
        <trkpt lat="29.336388" lon="105.29473"><ele>370.72272</ele><time>2026-05-05T18:51:12.000Z</time></trkpt>
        <trkpt lat="29.33644" lon="105.294733"><ele>370.67252</ele><time>2026-05-05T18:51:15.000Z</time></trkpt>
        <trkpt lat="29.336494" lon="105.294741"><ele>370.70825</ele><time>2026-05-05T18:51:17.000Z</time></trkpt>
        <trkpt lat="29.336565" lon="105.29474"><ele>370.84198</ele><time>2026-05-05T18:51:19.000Z</time></trkpt>
        <trkpt lat="29.336619" lon="105.294706"><ele>370.41687</ele><time>2026-05-05T18:51:22.000Z</time></trkpt>
        <trkpt lat="29.336652" lon="105.29466"><ele>370.10266</ele><time>2026-05-05T18:51:26.000Z</time></trkpt>
        <trkpt lat="29.336716" lon="105.294676"><ele>372.1799</ele><time>2026-05-05T18:51:29.000Z</time></trkpt>
        <trkpt lat="29.336729" lon="105.294727"><ele>370.2568</ele><time>2026-05-05T18:51:35.000Z</time></trkpt>
        <trkpt lat="29.336776" lon="105.294745"><ele>369.7649</ele><time>2026-05-05T18:51:38.000Z</time></trkpt>
        <trkpt lat="29.336862" lon="105.294746"><ele>369.87964</ele><time>2026-05-05T18:51:41.000Z</time></trkpt>
        <trkpt lat="29.336941" lon="105.294752"><ele>369.35587</ele><time>2026-05-05T18:51:43.000Z</time></trkpt>
        <trkpt lat="29.336997" lon="105.294723"><ele>369.11603</ele><time>2026-05-05T18:51:46.000Z</time></trkpt>
        <trkpt lat="29.337007" lon="105.294654"><ele>368.69296</ele><time>2026-05-05T18:51:48.000Z</time></trkpt>
        <trkpt lat="29.337017" lon="105.294555"><ele>369.4187</ele><time>2026-05-05T18:51:50.000Z</time></trkpt>
        <trkpt lat="29.337019" lon="105.294474"><ele>369.36365</ele><time>2026-05-05T18:51:52.000Z</time></trkpt>
        <trkpt lat="29.337007" lon="105.294404"><ele>369.72253</ele><time>2026-05-05T18:51:54.000Z</time></trkpt>
        <trkpt lat="29.336998" lon="105.29433"><ele>370.49124</ele><time>2026-05-05T18:51:56.000Z</time></trkpt>
        <trkpt lat="29.337036" lon="105.29426"><ele>371.26913</ele><time>2026-05-05T18:51:58.000Z</time></trkpt>
        <trkpt lat="29.337114" lon="105.294248"><ele>370.5491</ele><time>2026-05-05T18:52:00.000Z</time></trkpt>
        <trkpt lat="29.337157" lon="105.294269"><ele>369.8036</ele><time>2026-05-05T18:52:06.000Z</time></trkpt>
        <trkpt lat="29.337218" lon="105.294275"><ele>369.37042</ele><time>2026-05-05T18:52:09.000Z</time></trkpt>
        <trkpt lat="29.33727" lon="105.294334"><ele>369.04614</ele><time>2026-05-05T18:52:14.000Z</time></trkpt>
        <trkpt lat="29.33727" lon="105.294385"><ele>369.28903</ele><time>2026-05-05T18:52:15.000Z</time></trkpt>
        <trkpt lat="29.337253" lon="105.294456"><ele>369.4462</ele><time>2026-05-05T18:52:16.000Z</time></trkpt>
        <trkpt lat="29.337234" lon="105.294532"><ele>369.48523</ele><time>2026-05-05T18:52:17.000Z</time></trkpt>
        <trkpt lat="29.337216" lon="105.294617"><ele>369.43646</ele><time>2026-05-05T18:52:18.000Z</time></trkpt>
        <trkpt lat="29.337195" lon="105.29472"><ele>369.50763</ele><time>2026-05-05T18:52:19.000Z</time></trkpt>
        <trkpt lat="29.337174" lon="105.294832"><ele>369.20688</ele><time>2026-05-05T18:52:20.000Z</time></trkpt>
        <trkpt lat="29.337163" lon="105.294947"><ele>368.9376</ele><time>2026-05-05T18:52:21.000Z</time></trkpt>
        <trkpt lat="29.337141" lon="105.295043"><ele>368.63724</ele><time>2026-05-05T18:52:22.000Z</time></trkpt>
        <trkpt lat="29.33712" lon="105.295144"><ele>368.71472</ele><time>2026-05-05T18:52:23.000Z</time></trkpt>
        <trkpt lat="29.337102" lon="105.295238"><ele>368.65228</ele><time>2026-05-05T18:52:24.000Z</time></trkpt>
        <trkpt lat="29.337082" lon="105.295339"><ele>368.52502</ele><time>2026-05-05T18:52:25.000Z</time></trkpt>
        <trkpt lat="29.337063" lon="105.295434"><ele>368.63458</ele><time>2026-05-05T18:52:26.000Z</time></trkpt>
        <trkpt lat="29.337044" lon="105.295529"><ele>368.7654</ele><time>2026-05-05T18:52:27.000Z</time></trkpt>
        <trkpt lat="29.337021" lon="105.295632"><ele>368.92194</ele><time>2026-05-05T18:52:28.000Z</time></trkpt>
        <trkpt lat="29.336998" lon="105.295742"><ele>369.0355</ele><time>2026-05-05T18:52:29.000Z</time></trkpt>
        <trkpt lat="29.336972" lon="105.295852"><ele>369.27863</ele><time>2026-05-05T18:52:30.000Z</time></trkpt>
        <trkpt lat="29.336947" lon="105.295965"><ele>369.1852</ele><time>2026-05-05T18:52:31.000Z</time></trkpt>
        <trkpt lat="29.336924" lon="105.296081"><ele>369.31454</ele><time>2026-05-05T18:52:32.000Z</time></trkpt>
        <trkpt lat="29.3369" lon="105.296195"><ele>369.61832</ele><time>2026-05-05T18:52:33.000Z</time></trkpt>
        <trkpt lat="29.336875" lon="105.296311"><ele>369.7303</ele><time>2026-05-05T18:52:34.000Z</time></trkpt>
        <trkpt lat="29.336851" lon="105.29643"><ele>369.64053</ele><time>2026-05-05T18:52:35.000Z</time></trkpt>
        <trkpt lat="29.336827" lon="105.296535"><ele>369.72455</ele><time>2026-05-05T18:52:36.000Z</time></trkpt>
        <trkpt lat="29.336803" lon="105.296644"><ele>369.85568</ele><time>2026-05-05T18:52:37.000Z</time></trkpt>
        <trkpt lat="29.33678" lon="105.296771"><ele>369.5492</ele><time>2026-05-05T18:52:38.000Z</time></trkpt>
        <trkpt lat="29.336748" lon="105.296908"><ele>369.9713</ele><time>2026-05-05T18:52:39.000Z</time></trkpt>
        <trkpt lat="29.33672" lon="105.297043"><ele>370.64795</ele><time>2026-05-05T18:52:40.000Z</time></trkpt>
        <trkpt lat="29.336696" lon="105.297181"><ele>371.0334</ele><time>2026-05-05T18:52:41.000Z</time></trkpt>
        <trkpt lat="29.336675" lon="105.297322"><ele>371.15622</ele><time>2026-05-05T18:52:42.000Z</time></trkpt>
        <trkpt lat="29.33665" lon="105.297459"><ele>371.63034</ele><time>2026-05-05T18:52:43.000Z</time></trkpt>
        <trkpt lat="29.336626" lon="105.297596"><ele>372.20673</ele><time>2026-05-05T18:52:44.000Z</time></trkpt>
        <trkpt lat="29.336598" lon="105.29772"><ele>372.33554</ele><time>2026-05-05T18:52:45.000Z</time></trkpt>
        <trkpt lat="29.336576" lon="105.29785"><ele>372.6305</ele><time>2026-05-05T18:52:46.000Z</time></trkpt>
        <trkpt lat="29.33655" lon="105.297976"><ele>372.59903</ele><time>2026-05-05T18:52:47.000Z</time></trkpt>
        <trkpt lat="29.336523" lon="105.298105"><ele>372.6413</ele><time>2026-05-05T18:52:48.000Z</time></trkpt>
        <trkpt lat="29.336496" lon="105.298229"><ele>372.6448</ele><time>2026-05-05T18:52:49.000Z</time></trkpt>
        <trkpt lat="29.336469" lon="105.298357"><ele>372.63504</ele><time>2026-05-05T18:52:50.000Z</time></trkpt>
        <trkpt lat="29.336448" lon="105.298481"><ele>372.83176</ele><time>2026-05-05T18:52:51.000Z</time></trkpt>
        <trkpt lat="29.336424" lon="105.298611"><ele>373.1126</ele><time>2026-05-05T18:52:52.000Z</time></trkpt>
        <trkpt lat="29.336403" lon="105.298734"><ele>373.2211</ele><time>2026-05-05T18:52:53.000Z</time></trkpt>
        <trkpt lat="29.336378" lon="105.298862"><ele>373.29373</ele><time>2026-05-05T18:52:54.000Z</time></trkpt>
        <trkpt lat="29.336355" lon="105.298992"><ele>373.3459</ele><time>2026-05-05T18:52:55.000Z</time></trkpt>
        <trkpt lat="29.336332" lon="105.299119"><ele>373.4714</ele><time>2026-05-05T18:52:56.000Z</time></trkpt>
        <trkpt lat="29.336308" lon="105.299249"><ele>373.48288</ele><time>2026-05-05T18:52:57.000Z</time></trkpt>
        <trkpt lat="29.336283" lon="105.29938"><ele>373.3536</ele><time>2026-05-05T18:52:58.000Z</time></trkpt>
        <trkpt lat="29.336255" lon="105.299516"><ele>373.4928</ele><time>2026-05-05T18:52:59.000Z</time></trkpt>
        <trkpt lat="29.336229" lon="105.299647"><ele>373.5434</ele><time>2026-05-05T18:53:00.000Z</time></trkpt>
        <trkpt lat="29.336202" lon="105.299774"><ele>373.47482</ele><time>2026-05-05T18:53:01.000Z</time></trkpt>
        <trkpt lat="29.336176" lon="105.299898"><ele>373.72766</ele><time>2026-05-05T18:53:02.000Z</time></trkpt>
        <trkpt lat="29.336148" lon="105.300017"><ele>373.625</ele><time>2026-05-05T18:53:03.000Z</time></trkpt>
        <trkpt lat="29.336123" lon="105.300136"><ele>373.71036</ele><time>2026-05-05T18:53:04.000Z</time></trkpt>
        <trkpt lat="29.336101" lon="105.300247"><ele>373.95883</ele><time>2026-05-05T18:53:05.000Z</time></trkpt>
        <trkpt lat="29.336081" lon="105.300348"><ele>373.93018</ele><time>2026-05-05T18:53:06.000Z</time></trkpt>
        <trkpt lat="29.336063" lon="105.300441"><ele>374.0802</ele><time>2026-05-05T18:53:07.000Z</time></trkpt>
        <trkpt lat="29.336045" lon="105.300535"><ele>374.34</ele><time>2026-05-05T18:53:08.000Z</time></trkpt>
        <trkpt lat="29.336028" lon="105.300632"><ele>374.37692</ele><time>2026-05-05T18:53:09.000Z</time></trkpt>
        <trkpt lat="29.336015" lon="105.300726"><ele>374.63544</ele><time>2026-05-05T18:53:10.000Z</time></trkpt>
        <trkpt lat="29.336005" lon="105.300822"><ele>374.70316</ele><time>2026-05-05T18:53:11.000Z</time></trkpt>
        <trkpt lat="29.336003" lon="105.300917"><ele>374.69913</ele><time>2026-05-05T18:53:12.000Z</time></trkpt>
        <trkpt lat="29.336012" lon="105.30101"><ele>374.9374</ele><time>2026-05-05T18:53:13.000Z</time></trkpt>
        <trkpt lat="29.336027" lon="105.301094"><ele>375.0002</ele><time>2026-05-05T18:53:14.000Z</time></trkpt>
        <trkpt lat="29.33601" lon="105.301172"><ele>374.95383</ele><time>2026-05-05T18:53:15.000Z</time></trkpt>
        <trkpt lat="29.336003" lon="105.301252"><ele>374.96518</ele><time>2026-05-05T18:53:16.000Z</time></trkpt>
        <trkpt lat="29.336137" lon="105.301344"><ele>375.11798</ele><time>2026-05-05T18:53:17.000Z</time></trkpt>
        <trkpt lat="29.336198" lon="105.301419"><ele>375.3668</ele><time>2026-05-05T18:53:18.000Z</time></trkpt>
        <trkpt lat="29.33626" lon="105.301497"><ele>375.42303</ele><time>2026-05-05T18:53:19.000Z</time></trkpt>
        <trkpt lat="29.336321" lon="105.301586"><ele>375.55493</ele><time>2026-05-05T18:53:20.000Z</time></trkpt>
        <trkpt lat="29.336391" lon="105.301682"><ele>375.8976</ele><time>2026-05-05T18:53:21.000Z</time></trkpt>
        <trkpt lat="29.33646" lon="105.301783"><ele>376.14078</ele><time>2026-05-05T18:53:22.000Z</time></trkpt>
        <trkpt lat="29.33653" lon="105.301888"><ele>376.19565</ele><time>2026-05-05T18:53:23.000Z</time></trkpt>
        <trkpt lat="29.336602" lon="105.301995"><ele>376.3331</ele><time>2026-05-05T18:53:24.000Z</time></trkpt>
        <trkpt lat="29.336674" lon="105.3021"><ele>376.32117</ele><time>2026-05-05T18:53:25.000Z</time></trkpt>
        <trkpt lat="29.336743" lon="105.302202"><ele>376.43124</ele><time>2026-05-05T18:53:26.000Z</time></trkpt>
        <trkpt lat="29.336813" lon="105.302307"><ele>376.57074</ele><time>2026-05-05T18:53:27.000Z</time></trkpt>
        <trkpt lat="29.336883" lon="105.302411"><ele>376.483</ele><time>2026-05-05T18:53:28.000Z</time></trkpt>
        <trkpt lat="29.336955" lon="105.302517"><ele>376.55295</ele><time>2026-05-05T18:53:29.000Z</time></trkpt>
        <trkpt lat="29.337029" lon="105.302626"><ele>376.1492</ele><time>2026-05-05T18:53:30.000Z</time></trkpt>
        <trkpt lat="29.337103" lon="105.302734"><ele>375.82114</ele><time>2026-05-05T18:53:31.000Z</time></trkpt>
        <trkpt lat="29.337173" lon="105.302839"><ele>375.456</ele><time>2026-05-05T18:53:32.000Z</time></trkpt>
        <trkpt lat="29.337239" lon="105.302937"><ele>375.0595</ele><time>2026-05-05T18:53:33.000Z</time></trkpt>
        <trkpt lat="29.337303" lon="105.303033"><ele>375.17392</ele><time>2026-05-05T18:53:34.000Z</time></trkpt>
        <trkpt lat="29.337362" lon="105.303117"><ele>374.62607</ele><time>2026-05-05T18:53:35.000Z</time></trkpt>
        <trkpt lat="29.337413" lon="105.303195"><ele>374.4422</ele><time>2026-05-05T18:53:36.000Z</time></trkpt>
        <trkpt lat="29.337459" lon="105.303262"><ele>374.05426</ele><time>2026-05-05T18:53:37.000Z</time></trkpt>
        <trkpt lat="29.337501" lon="105.303324"><ele>373.91415</ele><time>2026-05-05T18:53:38.000Z</time></trkpt>
        <trkpt lat="29.337543" lon="105.303384"><ele>373.6786</ele><time>2026-05-05T18:53:39.000Z</time></trkpt>
        <trkpt lat="29.337581" lon="105.303442"><ele>373.39627</ele><time>2026-05-05T18:53:40.000Z</time></trkpt>
        <trkpt lat="29.337617" lon="105.303494"><ele>373.2046</ele><time>2026-05-05T18:53:41.000Z</time></trkpt>
        <trkpt lat="29.337658" lon="105.303554"><ele>372.74875</ele><time>2026-05-05T18:53:42.000Z</time></trkpt>
        <trkpt lat="29.3377" lon="105.303618"><ele>372.63248</ele><time>2026-05-05T18:53:43.000Z</time></trkpt>
        <trkpt lat="29.337739" lon="105.303676"><ele>372.383</ele><time>2026-05-05T18:53:44.000Z</time></trkpt>
        <trkpt lat="29.337772" lon="105.303728"><ele>372.12485</ele><time>2026-05-05T18:53:45.000Z</time></trkpt>
        <trkpt lat="29.337806" lon="105.303781"><ele>371.93027</ele><time>2026-05-05T18:53:46.000Z</time></trkpt>
        <trkpt lat="29.337844" lon="105.303825"><ele>371.7708</ele><time>2026-05-05T18:53:47.000Z</time></trkpt>
        <trkpt lat="29.337894" lon="105.303859"><ele>371.59677</ele><time>2026-05-05T18:53:48.000Z</time></trkpt>
        <trkpt lat="29.337946" lon="105.303937"><ele>370.84262</ele><time>2026-05-05T18:53:50.000Z</time></trkpt>
        <trkpt lat="29.338086" lon="105.303817"><ele>370.81268</ele><time>2026-05-05T18:53:52.000Z</time></trkpt>
        <trkpt lat="29.338153" lon="105.303743"><ele>370.65555</ele><time>2026-05-05T18:53:54.000Z</time></trkpt>
        <trkpt lat="29.338181" lon="105.303691"><ele>370.59824</ele><time>2026-05-05T18:53:55.000Z</time></trkpt>
        <trkpt lat="29.338206" lon="105.30364"><ele>370.43314</ele><time>2026-05-05T18:53:56.000Z</time></trkpt>
        <trkpt lat="29.33823" lon="105.303586"><ele>370.7458</ele><time>2026-05-05T18:53:57.000Z</time></trkpt>
        <trkpt lat="29.338255" lon="105.303534"><ele>370.95163</ele><time>2026-05-05T18:53:58.000Z</time></trkpt>
        <trkpt lat="29.338279" lon="105.303483"><ele>370.82736</ele><time>2026-05-05T18:53:59.000Z</time></trkpt>
        <trkpt lat="29.338304" lon="105.303434"><ele>370.83688</ele><time>2026-05-05T18:54:00.000Z</time></trkpt>
        <trkpt lat="29.338329" lon="105.303382"><ele>370.7235</ele><time>2026-05-05T18:54:01.000Z</time></trkpt>
        <trkpt lat="29.338357" lon="105.303325"><ele>370.73065</ele><time>2026-05-05T18:54:02.000Z</time></trkpt>
        <trkpt lat="29.338394" lon="105.30326"><ele>370.7331</ele><time>2026-05-05T18:54:03.000Z</time></trkpt>
        <trkpt lat="29.338438" lon="105.303189"><ele>370.50653</ele><time>2026-05-05T18:54:04.000Z</time></trkpt>
        <trkpt lat="29.338482" lon="105.303112"><ele>370.55994</ele><time>2026-05-05T18:54:05.000Z</time></trkpt>
        <trkpt lat="29.338528" lon="105.303026"><ele>370.75192</ele><time>2026-05-05T18:54:06.000Z</time></trkpt>
        <trkpt lat="29.33858" lon="105.302936"><ele>370.43936</ele><time>2026-05-05T18:54:07.000Z</time></trkpt>
        <trkpt lat="29.338633" lon="105.302844"><ele>370.0877</ele><time>2026-05-05T18:54:08.000Z</time></trkpt>
        <trkpt lat="29.338684" lon="105.302747"><ele>370.01196</ele><time>2026-05-05T18:54:09.000Z</time></trkpt>
        <trkpt lat="29.338736" lon="105.302643"><ele>370.15408</ele><time>2026-05-05T18:54:10.000Z</time></trkpt>
        <trkpt lat="29.338788" lon="105.302534"><ele>369.8448</ele><time>2026-05-05T18:54:11.000Z</time></trkpt>
        <trkpt lat="29.33884" lon="105.302421"><ele>369.6413</ele><time>2026-05-05T18:54:12.000Z</time></trkpt>
        <trkpt lat="29.338896" lon="105.302304"><ele>369.42007</ele><time>2026-05-05T18:54:13.000Z</time></trkpt>
        <trkpt lat="29.338952" lon="105.302185"><ele>369.41232</ele><time>2026-05-05T18:54:14.000Z</time></trkpt>
        <trkpt lat="29.339009" lon="105.302066"><ele>369.24747</ele><time>2026-05-05T18:54:15.000Z</time></trkpt>
        <trkpt lat="29.339064" lon="105.301947"><ele>369.66473</ele><time>2026-05-05T18:54:16.000Z</time></trkpt>
        <trkpt lat="29.33912" lon="105.301832"><ele>369.5143</ele><time>2026-05-05T18:54:17.000Z</time></trkpt>
        <trkpt lat="29.339169" lon="105.301716"><ele>369.2688</ele><time>2026-05-05T18:54:18.000Z</time></trkpt>
        <trkpt lat="29.339224" lon="105.301604"><ele>369.23584</ele><time>2026-05-05T18:54:19.000Z</time></trkpt>
        <trkpt lat="29.339278" lon="105.301494"><ele>368.98605</ele><time>2026-05-05T18:54:20.000Z</time></trkpt>
        <trkpt lat="29.339329" lon="105.301384"><ele>368.9852</ele><time>2026-05-05T18:54:21.000Z</time></trkpt>
        <trkpt lat="29.339384" lon="105.301273"><ele>368.89368</ele><time>2026-05-05T18:54:22.000Z</time></trkpt>
        <trkpt lat="29.339436" lon="105.301168"><ele>368.67032</ele><time>2026-05-05T18:54:23.000Z</time></trkpt>
        <trkpt lat="29.339487" lon="105.301064"><ele>368.3999</ele><time>2026-05-05T18:54:24.000Z</time></trkpt>
        <trkpt lat="29.33953" lon="105.300972"><ele>368.19864</ele><time>2026-05-05T18:54:25.000Z</time></trkpt>
        <trkpt lat="29.339564" lon="105.300897"><ele>368.244</ele><time>2026-05-05T18:54:26.000Z</time></trkpt>
        <trkpt lat="29.339594" lon="105.300837"><ele>368.1912</ele><time>2026-05-05T18:54:27.000Z</time></trkpt>
        <trkpt lat="29.339617" lon="105.300785"><ele>368.05215</ele><time>2026-05-05T18:54:28.000Z</time></trkpt>
        <trkpt lat="29.339641" lon="105.300737"><ele>368.12784</ele><time>2026-05-05T18:54:29.000Z</time></trkpt>
        <trkpt lat="29.339672" lon="105.300678"><ele>367.5442</ele><time>2026-05-05T18:54:31.000Z</time></trkpt>
        <trkpt lat="29.339695" lon="105.300627"><ele>367.69092</ele><time>2026-05-05T18:54:37.000Z</time></trkpt>
        <trkpt lat="29.33972" lon="105.300572"><ele>367.51123</ele><time>2026-05-05T18:54:39.000Z</time></trkpt>
        <trkpt lat="29.339759" lon="105.300488"><ele>367.47186</ele><time>2026-05-05T18:54:41.000Z</time></trkpt>
        <trkpt lat="29.339799" lon="105.300403"><ele>367.2306</ele><time>2026-05-05T18:54:43.000Z</time></trkpt>
        <trkpt lat="29.339843" lon="105.300311"><ele>367.02396</ele><time>2026-05-05T18:54:45.000Z</time></trkpt>
        <trkpt lat="29.339866" lon="105.300262"><ele>366.97296</ele><time>2026-05-05T18:54:46.000Z</time></trkpt>
        <trkpt lat="29.339893" lon="105.300206"><ele>366.63275</ele><time>2026-05-05T18:54:47.000Z</time></trkpt>
        <trkpt lat="29.339922" lon="105.300146"><ele>366.8242</ele><time>2026-05-05T18:54:48.000Z</time></trkpt>
        <trkpt lat="29.339949" lon="105.300092"><ele>367.0345</ele><time>2026-05-05T18:54:49.000Z</time></trkpt>
        <trkpt lat="29.339977" lon="105.300031"><ele>366.84204</ele><time>2026-05-05T18:54:50.000Z</time></trkpt>
        <trkpt lat="29.340006" lon="105.299971"><ele>366.84454</ele><time>2026-05-05T18:54:51.000Z</time></trkpt>
        <trkpt lat="29.340035" lon="105.299909"><ele>366.91052</ele><time>2026-05-05T18:54:52.000Z</time></trkpt>
        <trkpt lat="29.340061" lon="105.299852"><ele>366.8577</ele><time>2026-05-05T18:54:53.000Z</time></trkpt>
        <trkpt lat="29.340092" lon="105.299789"><ele>366.70486</ele><time>2026-05-05T18:54:54.000Z</time></trkpt>
        <trkpt lat="29.340123" lon="105.299723"><ele>366.6495</ele><time>2026-05-05T18:54:55.000Z</time></trkpt>
        <trkpt lat="29.340155" lon="105.299655"><ele>366.81067</ele><time>2026-05-05T18:54:56.000Z</time></trkpt>
        <trkpt lat="29.340184" lon="105.299595"><ele>366.71725</ele><time>2026-05-05T18:54:57.000Z</time></trkpt>
        <trkpt lat="29.340209" lon="105.29954"><ele>366.8032</ele><time>2026-05-05T18:54:58.000Z</time></trkpt>
        <trkpt lat="29.340236" lon="105.299486"><ele>366.60956</ele><time>2026-05-05T18:54:59.000Z</time></trkpt>
        <trkpt lat="29.340264" lon="105.299426"><ele>366.3894</ele><time>2026-05-05T18:55:00.000Z</time></trkpt>
        <trkpt lat="29.340296" lon="105.299358"><ele>366.21432</ele><time>2026-05-05T18:55:01.000Z</time></trkpt>
        <trkpt lat="29.340328" lon="105.299292"><ele>366.27817</ele><time>2026-05-05T18:55:02.000Z</time></trkpt>
        <trkpt lat="29.340359" lon="105.299224"><ele>366.08127</ele><time>2026-05-05T18:55:03.000Z</time></trkpt>
        <trkpt lat="29.340385" lon="105.29916"><ele>366.1284</ele><time>2026-05-05T18:55:04.000Z</time></trkpt>
        <trkpt lat="29.340415" lon="105.299094"><ele>366.10156</ele><time>2026-05-05T18:55:05.000Z</time></trkpt>
        <trkpt lat="29.340453" lon="105.299016"><ele>366.23923</ele><time>2026-05-05T18:55:06.000Z</time></trkpt>
        <trkpt lat="29.340494" lon="105.298941"><ele>366.1869</ele><time>2026-05-05T18:55:07.000Z</time></trkpt>
        <trkpt lat="29.340528" lon="105.298873"><ele>365.8978</ele><time>2026-05-05T18:55:08.000Z</time></trkpt>
        <trkpt lat="29.340559" lon="105.298807"><ele>365.86472</ele><time>2026-05-05T18:55:09.000Z</time></trkpt>
        <trkpt lat="29.340591" lon="105.298737"><ele>365.91367</ele><time>2026-05-05T18:55:10.000Z</time></trkpt>
        <trkpt lat="29.340619" lon="105.298679"><ele>365.84824</ele><time>2026-05-05T18:55:11.000Z</time></trkpt>
        <trkpt lat="29.340666" lon="105.298586"><ele>366.06754</ele><time>2026-05-05T18:55:13.000Z</time></trkpt>
        <trkpt lat="29.340696" lon="105.298522"><ele>365.50558</ele><time>2026-05-05T18:55:14.000Z</time></trkpt>
        <trkpt lat="29.34073" lon="105.298463"><ele>365.35175</ele><time>2026-05-05T18:55:15.000Z</time></trkpt>
        <trkpt lat="29.340761" lon="105.298407"><ele>365.3632</ele><time>2026-05-05T18:55:16.000Z</time></trkpt>
        <trkpt lat="29.340798" lon="105.298353"><ele>365.0852</ele><time>2026-05-05T18:55:17.000Z</time></trkpt>
        <trkpt lat="29.34084" lon="105.298308"><ele>364.96487</ele><time>2026-05-05T18:55:18.000Z</time></trkpt>
        <trkpt lat="29.340855" lon="105.298251"><ele>364.97296</ele><time>2026-05-05T18:55:19.000Z</time></trkpt>
        <trkpt lat="29.341198" lon="105.298293"><ele>365.31204</ele><time>2026-05-05T18:55:39.000Z</time></trkpt>
        <trkpt lat="29.341271" lon="105.298326"><ele>365.58243</ele><time>2026-05-05T18:55:41.000Z</time></trkpt>
        <trkpt lat="29.341327" lon="105.298358"><ele>365.95395</ele><time>2026-05-05T18:55:43.000Z</time></trkpt>
        <trkpt lat="29.341376" lon="105.298403"><ele>366.1517</ele><time>2026-05-05T18:55:45.000Z</time></trkpt>
        <trkpt lat="29.341434" lon="105.298462"><ele>366.15247</ele><time>2026-05-05T18:55:47.000Z</time></trkpt>
        <trkpt lat="29.341497" lon="105.298468"><ele>366.39438</ele><time>2026-05-05T18:55:49.000Z</time></trkpt>
        <trkpt lat="29.341554" lon="105.298503"><ele>366.51816</ele><time>2026-05-05T18:55:51.000Z</time></trkpt>
        <trkpt lat="29.341611" lon="105.29853"><ele>366.38492</ele><time>2026-05-05T18:55:54.000Z</time></trkpt>
        <trkpt lat="29.341568" lon="105.298511"><ele>366.45047</ele><time>2026-05-05T18:56:33.000Z</time></trkpt>
        <trkpt lat="29.341518" lon="105.298481"><ele>365.33893</ele><time>2026-05-05T18:56:38.000Z</time></trkpt>
        <trkpt lat="29.341468" lon="105.29845"><ele>363.46826</ele><time>2026-05-05T18:56:44.000Z</time></trkpt>
        <trkpt lat="29.341418" lon="105.298418"><ele>365.47263</ele><time>2026-05-05T18:56:47.000Z</time></trkpt>
        <trkpt lat="29.341363" lon="105.298382"><ele>364.0741</ele><time>2026-05-05T18:56:51.000Z</time></trkpt>
        <trkpt lat="29.3413" lon="105.298436"><ele>364.93826</ele><time>2026-05-05T18:56:53.000Z</time></trkpt>
        <trkpt lat="29.341249" lon="105.298406"><ele>365.65976</ele><time>2026-05-05T18:56:57.000Z</time></trkpt>
        <trkpt lat="29.341206" lon="105.298387"><ele>365.74173</ele><time>2026-05-05T18:57:00.000Z</time></trkpt>
        <trkpt lat="29.341159" lon="105.298366"><ele>365.25693</ele><time>2026-05-05T18:57:04.000Z</time></trkpt>
        <trkpt lat="29.341105" lon="105.298345"><ele>364.9202</ele><time>2026-05-05T18:57:08.000Z</time></trkpt>
        <trkpt lat="29.341058" lon="105.298364"><ele>364.7306</ele><time>2026-05-05T18:57:12.000Z</time></trkpt>
        <trkpt lat="29.341008" lon="105.298382"><ele>365.26498</ele><time>2026-05-05T18:57:16.000Z</time></trkpt>
        <trkpt lat="29.34096" lon="105.298398"><ele>365.72983</ele><time>2026-05-05T18:57:21.000Z</time></trkpt>
        <trkpt lat="29.340911" lon="105.298422"><ele>365.4854</ele><time>2026-05-05T18:57:26.000Z</time></trkpt>
        <trkpt lat="29.340868" lon="105.29844"><ele>365.67847</ele><time>2026-05-05T18:57:31.000Z</time></trkpt>
        <trkpt lat="29.340815" lon="105.298446"><ele>365.41113</ele><time>2026-05-05T18:57:38.000Z</time></trkpt>
        <trkpt lat="29.340774" lon="105.298418"><ele>365.31638</ele><time>2026-05-05T18:57:43.000Z</time></trkpt>
        <trkpt lat="29.340737" lon="105.29838"><ele>364.80637</ele><time>2026-05-05T18:57:48.000Z</time></trkpt>
        <trkpt lat="29.340698" lon="105.298352"><ele>365.4083</ele><time>2026-05-05T18:57:52.000Z</time></trkpt>
        <trkpt lat="29.340648" lon="105.298321"><ele>365.02737</ele><time>2026-05-05T18:57:57.000Z</time></trkpt>
        <trkpt lat="29.340601" lon="105.298301"><ele>365.35754</ele><time>2026-05-05T18:58:01.000Z</time></trkpt>
        <trkpt lat="29.340548" lon="105.298292"><ele>365.6297</ele><time>2026-05-05T18:58:06.000Z</time></trkpt>
        <trkpt lat="29.340539" lon="105.298345"><ele>365.58115</ele><time>2026-05-05T18:58:38.000Z</time></trkpt>
        <trkpt lat="29.340514" lon="105.298398"><ele>365.47775</ele><time>2026-05-05T18:58:43.000Z</time></trkpt>
        <trkpt lat="29.3405" lon="105.298456"><ele>364.85623</ele><time>2026-05-05T18:58:46.000Z</time></trkpt>
        <trkpt lat="29.340475" lon="105.298505"><ele>365.18362</ele><time>2026-05-05T18:58:49.000Z</time></trkpt>
        <trkpt lat="29.340462" lon="105.298571"><ele>365.68567</ele><time>2026-05-05T18:58:53.000Z</time></trkpt>
        <trkpt lat="29.340434" lon="105.298623"><ele>365.49738</ele><time>2026-05-05T18:58:57.000Z</time></trkpt>
        <trkpt lat="29.340383" lon="105.298649"><ele>365.39218</ele><time>2026-05-05T18:59:01.000Z</time></trkpt>
        <trkpt lat="29.340361" lon="105.298695"><ele>365.2805</ele><time>2026-05-05T18:59:05.000Z</time></trkpt>
        <trkpt lat="29.340323" lon="105.298729"><ele>365.5526</ele><time>2026-05-05T18:59:59.000Z</time></trkpt>
        <trkpt lat="29.340298" lon="105.298775"><ele>365.92307</ele><time>2026-05-05T19:00:04.000Z</time></trkpt>
        <trkpt lat="29.340279" lon="105.298823"><ele>366.52164</ele><time>2026-05-05T19:00:10.000Z</time></trkpt>
        <trkpt lat="29.34033" lon="105.298822"><ele>366.59106</ele><time>2026-05-05T19:00:33.000Z</time></trkpt>
        <trkpt lat="29.340365" lon="105.298787"><ele>365.48575</ele><time>2026-05-05T19:00:35.000Z</time></trkpt>
        <trkpt lat="29.340306" lon="105.298796"><ele>365.56186</ele><time>2026-05-05T19:00:38.000Z</time></trkpt>
        <trkpt lat="29.340253" lon="105.298796"><ele>366.33563</ele><time>2026-05-05T19:01:08.000Z</time></trkpt>
        <trkpt lat="29.34025" lon="105.298848"><ele>367.05746</ele><time>2026-05-05T19:02:17.000Z</time></trkpt>
        <trkpt lat="29.340174" lon="105.298938"><ele>366.41754</ele><time>2026-05-05T19:02:26.000Z</time></trkpt>
        <trkpt lat="29.340135" lon="105.298968"><ele>365.6767</ele><time>2026-05-05T19:02:31.000Z</time></trkpt>
        <trkpt lat="29.340101" lon="105.299024"><ele>366.42523</ele><time>2026-05-05T19:02:37.000Z</time></trkpt>
        <trkpt lat="29.34007" lon="105.299076"><ele>366.4957</ele><time>2026-05-05T19:02:42.000Z</time></trkpt>
        <trkpt lat="29.340032" lon="105.299113"><ele>365.33606</ele><time>2026-05-05T19:02:55.000Z</time></trkpt>
        <trkpt lat="29.340032" lon="105.299175"><ele>366.74585</ele><time>2026-05-05T19:03:01.000Z</time></trkpt>
        <trkpt lat="29.340056" lon="105.299222"><ele>366.76816</ele><time>2026-05-05T19:03:19.000Z</time></trkpt>
        <trkpt lat="29.340026" lon="105.299263"><ele>366.33893</ele><time>2026-05-05T19:04:02.000Z</time></trkpt>
        <trkpt lat="29.340002" lon="105.299315"><ele>366.11353</ele><time>2026-05-05T19:04:08.000Z</time></trkpt>
        <trkpt lat="29.339969" lon="105.29935"><ele>365.74146</ele><time>2026-05-05T19:04:32.000Z</time></trkpt>
        <trkpt lat="29.339981" lon="105.2994"><ele>365.39243</ele><time>2026-05-05T19:04:38.000Z</time></trkpt>
        <trkpt lat="29.339972" lon="105.299458"><ele>367.2037</ele><time>2026-05-05T19:04:59.000Z</time></trkpt>
        <trkpt lat="29.339943" lon="105.299505"><ele>366.56555</ele><time>2026-05-05T19:05:04.000Z</time></trkpt>
        <trkpt lat="29.339874" lon="105.299574"><ele>365.22116</ele><time>2026-05-05T19:05:36.000Z</time></trkpt>
        <trkpt lat="29.339857" lon="105.299622"><ele>365.37665</ele><time>2026-05-05T19:05:41.000Z</time></trkpt>
        <trkpt lat="29.339833" lon="105.299671"><ele>366.03983</ele><time>2026-05-05T19:05:46.000Z</time></trkpt>
        <trkpt lat="29.339824" lon="105.299724"><ele>366.33237</ele><time>2026-05-05T19:05:51.000Z</time></trkpt>
        <trkpt lat="29.339793" lon="105.29979"><ele>366.2264</ele><time>2026-05-05T19:06:03.000Z</time></trkpt>
        <trkpt lat="29.339813" lon="105.299838"><ele>366.88934</ele><time>2026-05-05T19:06:08.000Z</time></trkpt>
        <trkpt lat="29.339769" lon="105.299865"><ele>366.49353</ele><time>2026-05-05T19:06:17.000Z</time></trkpt>
        <trkpt lat="29.339736" lon="105.299904"><ele>366.6246</ele><time>2026-05-05T19:06:21.000Z</time></trkpt>
        <trkpt lat="29.339723" lon="105.299955"><ele>366.63712</ele><time>2026-05-05T19:06:25.000Z</time></trkpt>
        <trkpt lat="29.339697" lon="105.3"><ele>367.12012</ele><time>2026-05-05T19:06:29.000Z</time></trkpt>
        <trkpt lat="29.33965" lon="105.299997"><ele>367.48438</ele><time>2026-05-05T19:06:43.000Z</time></trkpt>
        <trkpt lat="29.339607" lon="105.299975"><ele>366.4008</ele><time>2026-05-05T19:07:07.000Z</time></trkpt>
        <trkpt lat="29.339564" lon="105.299946"><ele>366.00458</ele><time>2026-05-05T19:07:14.000Z</time></trkpt>
        <trkpt lat="29.339521" lon="105.299924"><ele>365.767</ele><time>2026-05-05T19:07:20.000Z</time></trkpt>
        <trkpt lat="29.339535" lon="105.299874"><ele>366.19397</ele><time>2026-05-05T19:07:27.000Z</time></trkpt>
        <trkpt lat="29.339486" lon="105.299868"><ele>368.32785</ele><time>2026-05-05T19:08:43.000Z</time></trkpt>
        <trkpt lat="29.339488" lon="105.299812"><ele>367.22653</ele><time>2026-05-05T19:09:35.000Z</time></trkpt>
        <trkpt lat="29.339533" lon="105.29977"><ele>365.28696</ele><time>2026-05-05T19:09:53.000Z</time></trkpt>
        <trkpt lat="29.339562" lon="105.299728"><ele>364.9092</ele><time>2026-05-05T19:09:58.000Z</time></trkpt>
        <trkpt lat="29.339604" lon="105.299709"><ele>364.99643</ele><time>2026-05-05T19:10:03.000Z</time></trkpt>
        <trkpt lat="29.339626" lon="105.299759"><ele>367.23248</ele><time>2026-05-05T19:10:30.000Z</time></trkpt>
        <trkpt lat="29.339573" lon="105.29974"><ele>365.69537</ele><time>2026-05-05T19:12:08.000Z</time></trkpt>
        <trkpt lat="29.339666" lon="105.299757"><ele>365.1164</ele><time>2026-05-05T19:12:22.000Z</time></trkpt>
        <trkpt lat="29.339858" lon="105.299848"><ele>365.25882</ele><time>2026-05-05T19:13:00.000Z</time></trkpt>
        <trkpt lat="29.339859" lon="105.2999"><ele>365.40155</ele><time>2026-05-05T19:13:06.000Z</time></trkpt>
        <trkpt lat="29.339888" lon="105.300044"><ele>365.06973</ele><time>2026-05-05T19:13:12.000Z</time></trkpt>
        <trkpt lat="29.339854" lon="105.299946"><ele>365.33914</ele><time>2026-05-05T19:13:16.000Z</time></trkpt>
        <trkpt lat="29.339719" lon="105.299826"><ele>365.8649</ele><time>2026-05-05T19:13:34.000Z</time></trkpt>
        <trkpt lat="29.339684" lon="105.299812"><ele>366.05585</ele><time>2026-05-05T19:13:38.000Z</time></trkpt>
        <trkpt lat="29.339617" lon="105.299768"><ele>367.045</ele><time>2026-05-05T19:14:08.000Z</time></trkpt>
        <trkpt lat="29.339881" lon="105.29989"><ele>369.40503</ele><time>2026-05-05T19:14:26.000Z</time></trkpt>
        <trkpt lat="29.339925" lon="105.29994"><ele>369.40503</ele><time>2026-05-05T19:14:51.000Z</time></trkpt>
        <trkpt lat="29.339956" lon="105.299976"><ele>369.68503</ele><time>2026-05-05T19:15:08.000Z</time></trkpt>
        <trkpt lat="29.33982" lon="105.300237"><ele>367.33502</ele><time>2026-05-05T19:15:36.000Z</time></trkpt>
        <trkpt lat="29.339695" lon="105.299697"><ele>364.94568</ele><time>2026-05-05T19:15:44.000Z</time></trkpt>
        <trkpt lat="29.339715" lon="105.29967"><ele>365.20566</ele><time>2026-05-05T19:15:49.000Z</time></trkpt>
        <trkpt lat="29.339735" lon="105.299622"><ele>366.25674</ele><time>2026-05-05T19:16:02.000Z</time></trkpt>
        <trkpt lat="29.339708" lon="105.299576"><ele>367.24417</ele><time>2026-05-05T19:16:12.000Z</time></trkpt>
        <trkpt lat="29.339725" lon="105.29952"><ele>365.6979</ele><time>2026-05-05T19:16:19.000Z</time></trkpt>
        <trkpt lat="29.339748" lon="105.299466"><ele>365.81168</ele><time>2026-05-05T19:16:30.000Z</time></trkpt>
        <trkpt lat="29.339766" lon="105.29941"><ele>366.1446</ele><time>2026-05-05T19:16:48.000Z</time></trkpt>
        <trkpt lat="29.339792" lon="105.299363"><ele>365.81696</ele><time>2026-05-05T19:16:56.000Z</time></trkpt>
        <trkpt lat="29.339823" lon="105.299322"><ele>366.09015</ele><time>2026-05-05T19:17:04.000Z</time></trkpt>
        <trkpt lat="29.339859" lon="105.299286"><ele>365.98837</ele><time>2026-05-05T19:17:10.000Z</time></trkpt>
        <trkpt lat="29.339885" lon="105.299239"><ele>366.27496</ele><time>2026-05-05T19:17:15.000Z</time></trkpt>
        <trkpt lat="29.339921" lon="105.299198"><ele>365.94315</ele><time>2026-05-05T19:17:21.000Z</time></trkpt>
        <trkpt lat="29.339947" lon="105.299155"><ele>365.36053</ele><time>2026-05-05T19:17:34.000Z</time></trkpt>
        <trkpt lat="29.339924" lon="105.299205"><ele>367.8409</ele><time>2026-05-05T19:17:46.000Z</time></trkpt>
        <trkpt lat="29.33991" lon="105.299262"><ele>366.8512</ele><time>2026-05-05T19:17:50.000Z</time></trkpt>
        <trkpt lat="29.339873" lon="105.299302"><ele>366.37784</ele><time>2026-05-05T19:17:55.000Z</time></trkpt>
        <trkpt lat="29.339838" lon="105.299342"><ele>366.3968</ele><time>2026-05-05T19:17:59.000Z</time></trkpt>
        <trkpt lat="29.339805" lon="105.299383"><ele>365.40955</ele><time>2026-05-05T19:18:04.000Z</time></trkpt>
        <trkpt lat="29.339773" lon="105.299425"><ele>365.08267</ele><time>2026-05-05T19:18:09.000Z</time></trkpt>
        <trkpt lat="29.339746" lon="105.299473"><ele>365.17645</ele><time>2026-05-05T19:18:14.000Z</time></trkpt>
        <trkpt lat="29.339722" lon="105.299531"><ele>364.91483</ele><time>2026-05-05T19:18:19.000Z</time></trkpt>
        <trkpt lat="29.339685" lon="105.299564"><ele>365.9191</ele><time>2026-05-05T19:18:24.000Z</time></trkpt>
        <trkpt lat="29.339656" lon="105.299616"><ele>365.34412</ele><time>2026-05-05T19:18:30.000Z</time></trkpt>
        <trkpt lat="29.339616" lon="105.299653"><ele>366.01227</ele><time>2026-05-05T19:18:35.000Z</time></trkpt>
        <trkpt lat="29.33958" lon="105.299702"><ele>364.15775</ele><time>2026-05-05T19:18:41.000Z</time></trkpt>
        <trkpt lat="29.339541" lon="105.299733"><ele>364.49106</ele><time>2026-05-05T19:18:45.000Z</time></trkpt>
        <trkpt lat="29.339517" lon="105.299785"><ele>365.47815</ele><time>2026-05-05T19:18:51.000Z</time></trkpt>
        <trkpt lat="29.339486" lon="105.299824"><ele>366.1678</ele><time>2026-05-05T19:18:56.000Z</time></trkpt>
        <trkpt lat="29.339447" lon="105.299858"><ele>366.8474</ele><time>2026-05-05T19:19:01.000Z</time></trkpt>
        <trkpt lat="29.339392" lon="105.299873"><ele>368.71738</ele><time>2026-05-05T19:19:07.000Z</time></trkpt>
        <trkpt lat="29.339361" lon="105.29991"><ele>368.64667</ele><time>2026-05-05T19:19:11.000Z</time></trkpt>
        <trkpt lat="29.339336" lon="105.299955"><ele>366.821</ele><time>2026-05-05T19:19:20.000Z</time></trkpt>
        <trkpt lat="29.339321" lon="105.300011"><ele>365.27454</ele><time>2026-05-05T19:19:27.000Z</time></trkpt>
        <trkpt lat="29.339319" lon="105.300063"><ele>365.0002</ele><time>2026-05-05T19:19:30.000Z</time></trkpt>
        <trkpt lat="29.339292" lon="105.300119"><ele>364.56552</ele><time>2026-05-05T19:19:33.000Z</time></trkpt>
        <trkpt lat="29.339262" lon="105.30016"><ele>365.0034</ele><time>2026-05-05T19:19:37.000Z</time></trkpt>
        <trkpt lat="29.339228" lon="105.300199"><ele>366.27127</ele><time>2026-05-05T19:19:42.000Z</time></trkpt>
        <trkpt lat="29.339256" lon="105.300156"><ele>367.3203</ele><time>2026-05-05T19:19:59.000Z</time></trkpt>
        <trkpt lat="29.339303" lon="105.300153"><ele>366.48535</ele><time>2026-05-05T19:20:16.000Z</time></trkpt>
        <trkpt lat="29.339256" lon="105.300151"><ele>365.99722</ele><time>2026-05-05T19:20:30.000Z</time></trkpt>
        <trkpt lat="29.339297" lon="105.300181"><ele>366.0345</ele><time>2026-05-05T19:20:51.000Z</time></trkpt>
        <trkpt lat="29.339343" lon="105.300198"><ele>365.67694</ele><time>2026-05-05T19:21:10.000Z</time></trkpt>
        <trkpt lat="29.339306" lon="105.300157"><ele>366.2368</ele><time>2026-05-05T19:21:42.000Z</time></trkpt>
        <trkpt lat="29.339267" lon="105.300125"><ele>366.07108</ele><time>2026-05-05T19:22:03.000Z</time></trkpt>
        <trkpt lat="29.339297" lon="105.300077"><ele>365.46353</ele><time>2026-05-05T19:22:12.000Z</time></trkpt>
        <trkpt lat="29.33934" lon="105.300061"><ele>364.2539</ele><time>2026-05-05T19:22:19.000Z</time></trkpt>
        <trkpt lat="29.339367" lon="105.300003"><ele>364.81665</ele><time>2026-05-05T19:22:27.000Z</time></trkpt>
        <trkpt lat="29.339407" lon="105.299948"><ele>366.26712</ele><time>2026-05-05T19:22:32.000Z</time></trkpt>
        <trkpt lat="29.339455" lon="105.299908"><ele>365.55597</ele><time>2026-05-05T19:22:37.000Z</time></trkpt>
        <trkpt lat="29.339503" lon="105.299905"><ele>366.80084</ele><time>2026-05-05T19:22:41.000Z</time></trkpt>
        <trkpt lat="29.339522" lon="105.299966"><ele>366.7246</ele><time>2026-05-05T19:22:46.000Z</time></trkpt>
        <trkpt lat="29.339557" lon="105.300003"><ele>367.85867</ele><time>2026-05-05T19:22:52.000Z</time></trkpt>
        <trkpt lat="29.339564" lon="105.299948"><ele>365.85458</ele><time>2026-05-05T19:23:03.000Z</time></trkpt>
        <trkpt lat="29.339598" lon="105.299988"><ele>367.05234</ele><time>2026-05-05T19:23:10.000Z</time></trkpt>
        <trkpt lat="29.339633" lon="105.30003"><ele>366.98376</ele><time>2026-05-05T19:23:14.000Z</time></trkpt>
        <trkpt lat="29.339638" lon="105.300088"><ele>366.91202</ele><time>2026-05-05T19:23:19.000Z</time></trkpt>
        <trkpt lat="29.339592" lon="105.300119"><ele>366.47522</ele><time>2026-05-05T19:23:23.000Z</time></trkpt>
        <trkpt lat="29.339564" lon="105.300169"><ele>366.83673</ele><time>2026-05-05T19:23:28.000Z</time></trkpt>
        <trkpt lat="29.339528" lon="105.300218"><ele>366.9681</ele><time>2026-05-05T19:23:32.000Z</time></trkpt>
        <trkpt lat="29.339517" lon="105.300272"><ele>366.77853</ele><time>2026-05-05T19:23:38.000Z</time></trkpt>
        <trkpt lat="29.339552" lon="105.300307"><ele>367.3937</ele><time>2026-05-05T19:23:41.000Z</time></trkpt>
        <trkpt lat="29.339637" lon="105.300287"><ele>367.911</ele><time>2026-05-05T19:23:49.000Z</time></trkpt>
        <trkpt lat="29.339586" lon="105.300279"><ele>367.72778</ele><time>2026-05-05T19:23:51.000Z</time></trkpt>
        <trkpt lat="29.339625" lon="105.300307"><ele>368.09738</ele><time>2026-05-05T19:23:56.000Z</time></trkpt>
        <trkpt lat="29.339659" lon="105.300341"><ele>366.74515</ele><time>2026-05-05T19:24:05.000Z</time></trkpt>
        <trkpt lat="29.339691" lon="105.300378"><ele>367.007</ele><time>2026-05-05T19:24:08.000Z</time></trkpt>
        <trkpt lat="29.339731" lon="105.300408"><ele>367.3796</ele><time>2026-05-05T19:24:10.000Z</time></trkpt>
        <trkpt lat="29.339777" lon="105.300453"><ele>366.82874</ele><time>2026-05-05T19:24:14.000Z</time></trkpt>
        <trkpt lat="29.339819" lon="105.300484"><ele>367.4282</ele><time>2026-05-05T19:24:18.000Z</time></trkpt>
        <trkpt lat="29.339816" lon="105.300544"><ele>368.04663</ele><time>2026-05-05T19:24:52.000Z</time></trkpt>
        <trkpt lat="29.339822" lon="105.300596"><ele>368.93475</ele><time>2026-05-05T19:24:57.000Z</time></trkpt>
        <trkpt lat="29.339791" lon="105.300651"><ele>369.46588</ele><time>2026-05-05T19:25:35.000Z</time></trkpt>
        <trkpt lat="29.339785" lon="105.300716"><ele>368.4853</ele><time>2026-05-05T19:25:39.000Z</time></trkpt>
        <trkpt lat="29.339751" lon="105.300765"><ele>369.15976</ele><time>2026-05-05T19:25:42.000Z</time></trkpt>
        <trkpt lat="29.339711" lon="105.3008"><ele>369.31494</ele><time>2026-05-05T19:25:47.000Z</time></trkpt>
        <trkpt lat="29.339682" lon="105.300841"><ele>368.77948</ele><time>2026-05-05T19:25:53.000Z</time></trkpt>
        <trkpt lat="29.339676" lon="105.300896"><ele>368.55542</ele><time>2026-05-05T19:25:59.000Z</time></trkpt>
        <trkpt lat="29.339675" lon="105.300954"><ele>368.6962</ele><time>2026-05-05T19:26:04.000Z</time></trkpt>
        <trkpt lat="29.33965" lon="105.301007"><ele>367.96915</ele><time>2026-05-05T19:26:09.000Z</time></trkpt>
        <trkpt lat="29.339638" lon="105.301059"><ele>367.98544</ele><time>2026-05-05T19:26:14.000Z</time></trkpt>
        <trkpt lat="29.33962" lon="105.301121"><ele>368.30994</ele><time>2026-05-05T19:26:18.000Z</time></trkpt>
        <trkpt lat="29.339612" lon="105.301069"><ele>368.58154</ele><time>2026-05-05T19:26:34.000Z</time></trkpt>
        <trkpt lat="29.339648" lon="105.301028"><ele>368.33902</ele><time>2026-05-05T19:26:37.000Z</time></trkpt>
        <trkpt lat="29.339662" lon="105.30097"><ele>367.11148</ele><time>2026-05-05T19:26:45.000Z</time></trkpt>
        <trkpt lat="29.339683" lon="105.300916"><ele>367.12073</ele><time>2026-05-05T19:26:50.000Z</time></trkpt>
        <trkpt lat="29.339674" lon="105.300859"><ele>366.556</ele><time>2026-05-05T19:26:54.000Z</time></trkpt>
        <trkpt lat="29.339676" lon="105.300808"><ele>367.1447</ele><time>2026-05-05T19:27:20.000Z</time></trkpt>
        <trkpt lat="29.339707" lon="105.300848"><ele>368.13443</ele><time>2026-05-05T19:28:24.000Z</time></trkpt>
        <trkpt lat="29.339745" lon="105.300887"><ele>366.98285</ele><time>2026-05-05T19:28:33.000Z</time></trkpt>
        <trkpt lat="29.339925" lon="105.300936"><ele>364.86502</ele><time>2026-05-05T19:28:52.000Z</time></trkpt>
        <trkpt lat="29.339936" lon="105.3009"><ele>366.83014</ele><time>2026-05-05T19:28:59.000Z</time></trkpt>
        <trkpt lat="29.339891" lon="105.300897"><ele>368.88348</ele><time>2026-05-05T19:29:06.000Z</time></trkpt>
        <trkpt lat="29.339908" lon="105.300963"><ele>366.60605</ele><time>2026-05-05T19:29:29.000Z</time></trkpt>
        <trkpt lat="29.339893" lon="105.300896"><ele>366.1821</ele><time>2026-05-05T19:29:36.000Z</time></trkpt>
        <trkpt lat="29.339941" lon="105.300946"><ele>366.35165</ele><time>2026-05-05T19:29:43.000Z</time></trkpt>
        <trkpt lat="29.339981" lon="105.301058"><ele>366.4459</ele><time>2026-05-05T19:29:54.000Z</time></trkpt>
        <trkpt lat="29.340059" lon="105.301038"><ele>366.43515</ele><time>2026-05-05T19:30:03.000Z</time></trkpt>
        <trkpt lat="29.340144" lon="105.301212"><ele>366.53503</ele><time>2026-05-05T19:30:18.000Z</time></trkpt>
        <trkpt lat="29.340092" lon="105.301082"><ele>366.87085</ele><time>2026-05-05T19:30:25.000Z</time></trkpt>
        <trkpt lat="29.340057" lon="105.301045"><ele>366.86823</ele><time>2026-05-05T19:30:30.000Z</time></trkpt>
        <trkpt lat="29.339961" lon="105.301027"><ele>366.46844</ele><time>2026-05-05T19:30:42.000Z</time></trkpt>
        <trkpt lat="29.339928" lon="105.300986"><ele>366.7447</ele><time>2026-05-05T19:30:59.000Z</time></trkpt>
        <trkpt lat="29.339887" lon="105.300944"><ele>366.48657</ele><time>2026-05-05T19:31:23.000Z</time></trkpt>
        <trkpt lat="29.339796" lon="105.300942"><ele>366.0488</ele><time>2026-05-05T19:31:39.000Z</time></trkpt>
        <trkpt lat="29.339752" lon="105.300957"><ele>365.81052</ele><time>2026-05-05T19:31:43.000Z</time></trkpt>
        <trkpt lat="29.339719" lon="105.300996"><ele>368.31168</ele><time>2026-05-05T19:31:52.000Z</time></trkpt>
        <trkpt lat="29.339766" lon="105.300894"><ele>366.44202</ele><time>2026-05-05T19:32:04.000Z</time></trkpt>
        <trkpt lat="29.339861" lon="105.30087"><ele>367.41504</ele><time>2026-05-05T19:32:24.000Z</time></trkpt>
        <trkpt lat="29.339962" lon="105.300921"><ele>367.41504</ele><time>2026-05-05T19:32:36.000Z</time></trkpt>
        <trkpt lat="29.339823" lon="105.300868"><ele>365.40503</ele><time>2026-05-05T19:32:48.000Z</time></trkpt>
        <trkpt lat="29.339805" lon="105.300811"><ele>366.06815</ele><time>2026-05-05T19:33:04.000Z</time></trkpt>
        <trkpt lat="29.339821" lon="105.300861"><ele>366.206</ele><time>2026-05-05T19:33:07.000Z</time></trkpt>
        <trkpt lat="29.339875" lon="105.300967"><ele>367.8091</ele><time>2026-05-05T19:34:17.000Z</time></trkpt>
        <trkpt lat="29.33986" lon="105.300996"><ele>367.54034</ele><time>2026-05-05T19:34:44.000Z</time></trkpt>
        <trkpt lat="29.339855" lon="105.301064"><ele>370.21228</ele><time>2026-05-05T19:34:54.000Z</time></trkpt>
        <trkpt lat="29.339884" lon="105.301017"><ele>368.73697</ele><time>2026-05-05T19:35:01.000Z</time></trkpt>
        <trkpt lat="29.339855" lon="105.300967"><ele>366.78635</ele><time>2026-05-05T19:35:18.000Z</time></trkpt>
        <trkpt lat="29.339714" lon="105.300839"><ele>366.09216</ele><time>2026-05-05T19:35:27.000Z</time></trkpt>
        <trkpt lat="29.339664" lon="105.300815"><ele>365.883</ele><time>2026-05-05T19:35:32.000Z</time></trkpt>
        <trkpt lat="29.339489" lon="105.300769"><ele>367.9286</ele><time>2026-05-05T19:35:46.000Z</time></trkpt>
        <trkpt lat="29.339641" lon="105.300804"><ele>367.64285</ele><time>2026-05-05T19:35:59.000Z</time></trkpt>
        <trkpt lat="29.339752" lon="105.300678"><ele>367.4246</ele><time>2026-05-05T19:36:11.000Z</time></trkpt>
        <trkpt lat="29.339772" lon="105.300627"><ele>367.42886</ele><time>2026-05-05T19:36:14.000Z</time></trkpt>
        <trkpt lat="29.339793" lon="105.300581"><ele>367.36923</ele><time>2026-05-05T19:36:18.000Z</time></trkpt>
        <trkpt lat="29.339805" lon="105.300511"><ele>367.7307</ele><time>2026-05-05T19:36:21.000Z</time></trkpt>
        <trkpt lat="29.339774" lon="105.300453"><ele>368.6221</ele><time>2026-05-05T19:36:23.000Z</time></trkpt>
        <trkpt lat="29.339728" lon="105.300407"><ele>368.51257</ele><time>2026-05-05T19:36:25.000Z</time></trkpt>
        <trkpt lat="29.33967" lon="105.300381"><ele>368.7113</ele><time>2026-05-05T19:36:27.000Z</time></trkpt>
        <trkpt lat="29.33962" lon="105.30035"><ele>368.6259</ele><time>2026-05-05T19:36:29.000Z</time></trkpt>
        <trkpt lat="29.339564" lon="105.300328"><ele>367.45743</ele><time>2026-05-05T19:36:32.000Z</time></trkpt>
        <trkpt lat="29.339504" lon="105.300368"><ele>367.9913</ele><time>2026-05-05T19:36:35.000Z</time></trkpt>
        <trkpt lat="29.339446" lon="105.300376"><ele>367.37064</ele><time>2026-05-05T19:36:38.000Z</time></trkpt>
        <trkpt lat="29.339388" lon="105.300398"><ele>367.06418</ele><time>2026-05-05T19:36:42.000Z</time></trkpt>
        <trkpt lat="29.339341" lon="105.30044"><ele>367.6923</ele><time>2026-05-05T19:36:47.000Z</time></trkpt>
        <trkpt lat="29.339292" lon="105.300455"><ele>367.18472</ele><time>2026-05-05T19:36:50.000Z</time></trkpt>
        <trkpt lat="29.339263" lon="105.300505"><ele>366.26413</ele><time>2026-05-05T19:36:54.000Z</time></trkpt>
        <trkpt lat="29.339245" lon="105.300571"><ele>367.1955</ele><time>2026-05-05T19:36:57.000Z</time></trkpt>
        <trkpt lat="29.339246" lon="105.30063"><ele>367.17767</ele><time>2026-05-05T19:36:59.000Z</time></trkpt>
        <trkpt lat="29.339264" lon="105.300684"><ele>367.32812</ele><time>2026-05-05T19:37:01.000Z</time></trkpt>
        <trkpt lat="29.33927" lon="105.300747"><ele>367.3529</ele><time>2026-05-05T19:37:04.000Z</time></trkpt>
        <trkpt lat="29.339289" lon="105.300809"><ele>368.72366</ele><time>2026-05-05T19:37:08.000Z</time></trkpt>
        <trkpt lat="29.339296" lon="105.300865"><ele>369.70108</ele><time>2026-05-05T19:37:11.000Z</time></trkpt>
        <trkpt lat="29.339284" lon="105.300917"><ele>370.07693</ele><time>2026-05-05T19:37:14.000Z</time></trkpt>
        <trkpt lat="29.33925" lon="105.300959"><ele>370.21558</ele><time>2026-05-05T19:37:17.000Z</time></trkpt>
        <trkpt lat="29.339218" lon="105.300996"><ele>369.35886</ele><time>2026-05-05T19:37:20.000Z</time></trkpt>
        <trkpt lat="29.339174" lon="105.301037"><ele>368.74524</ele><time>2026-05-05T19:37:24.000Z</time></trkpt>
        <trkpt lat="29.339143" lon="105.301082"><ele>369.1635</ele><time>2026-05-05T19:37:28.000Z</time></trkpt>
        <trkpt lat="29.33911" lon="105.301131"><ele>369.1214</ele><time>2026-05-05T19:37:32.000Z</time></trkpt>
        <trkpt lat="29.339087" lon="105.301189"><ele>369.2884</ele><time>2026-05-05T19:37:36.000Z</time></trkpt>
        <trkpt lat="29.339104" lon="105.30126"><ele>370.3846</ele><time>2026-05-05T19:37:41.000Z</time></trkpt>
        <trkpt lat="29.33908" lon="105.301312"><ele>369.81137</ele><time>2026-05-05T19:37:46.000Z</time></trkpt>
        <trkpt lat="29.339057" lon="105.301358"><ele>370.44632</ele><time>2026-05-05T19:37:50.000Z</time></trkpt>
        <trkpt lat="29.33903" lon="105.301402"><ele>369.70114</ele><time>2026-05-05T19:37:55.000Z</time></trkpt>
        <trkpt lat="29.339012" lon="105.301464"><ele>370.10507</ele><time>2026-05-05T19:38:00.000Z</time></trkpt>
        <trkpt lat="29.338973" lon="105.301494"><ele>370.23834</ele><time>2026-05-05T19:38:04.000Z</time></trkpt>
        <trkpt lat="29.338991" lon="105.30144"><ele>367.8748</ele><time>2026-05-05T19:38:32.000Z</time></trkpt>
        <trkpt lat="29.339007" lon="105.301383"><ele>367.60324</ele><time>2026-05-05T19:38:36.000Z</time></trkpt>
        <trkpt lat="29.339034" lon="105.301324"><ele>366.92084</ele><time>2026-05-05T19:38:41.000Z</time></trkpt>
        <trkpt lat="29.339062" lon="105.301281"><ele>367.53372</ele><time>2026-05-05T19:38:45.000Z</time></trkpt>
        <trkpt lat="29.339106" lon="105.301266"><ele>368.5845</ele><time>2026-05-05T19:38:49.000Z</time></trkpt>
        <trkpt lat="29.339143" lon="105.301231"><ele>368.88834</ele><time>2026-05-05T19:38:53.000Z</time></trkpt>
        <trkpt lat="29.339202" lon="105.30122"><ele>368.9834</ele><time>2026-05-05T19:38:58.000Z</time></trkpt>
        <trkpt lat="29.339249" lon="105.301243"><ele>368.8698</ele><time>2026-05-05T19:39:01.000Z</time></trkpt>
        <trkpt lat="29.339299" lon="105.301255"><ele>369.46756</ele><time>2026-05-05T19:39:04.000Z</time></trkpt>
        <trkpt lat="29.339343" lon="105.301247"><ele>369.5557</ele><time>2026-05-05T19:39:07.000Z</time></trkpt>
        <trkpt lat="29.339399" lon="105.30123"><ele>369.82513</ele><time>2026-05-05T19:39:11.000Z</time></trkpt>
        <trkpt lat="29.339452" lon="105.301215"><ele>369.32047</ele><time>2026-05-05T19:39:15.000Z</time></trkpt>
        <trkpt lat="29.339481" lon="105.301162"><ele>367.78763</ele><time>2026-05-05T19:39:25.000Z</time></trkpt>
        <trkpt lat="29.339521" lon="105.301132"><ele>367.08453</ele><time>2026-05-05T19:39:29.000Z</time></trkpt>
        <trkpt lat="29.339567" lon="105.301102"><ele>367.24588</ele><time>2026-05-05T19:39:34.000Z</time></trkpt>
        <trkpt lat="29.339603" lon="105.301066"><ele>367.18457</ele><time>2026-05-05T19:39:37.000Z</time></trkpt>
        <trkpt lat="29.339641" lon="105.301029"><ele>367.4061</ele><time>2026-05-05T19:39:41.000Z</time></trkpt>
        <trkpt lat="29.339666" lon="105.300978"><ele>367.22952</ele><time>2026-05-05T19:39:45.000Z</time></trkpt>
        <trkpt lat="29.339687" lon="105.30092"><ele>367.1376</ele><time>2026-05-05T19:39:49.000Z</time></trkpt>
        <trkpt lat="29.339698" lon="105.300866"><ele>366.30453</ele><time>2026-05-05T19:39:53.000Z</time></trkpt>
        <trkpt lat="29.339746" lon="105.300841"><ele>367.09055</ele><time>2026-05-05T19:40:04.000Z</time></trkpt>
        <trkpt lat="29.339789" lon="105.30082"><ele>366.80212</ele><time>2026-05-05T19:40:06.000Z</time></trkpt>
        <trkpt lat="29.339769" lon="105.300871"><ele>366.65323</ele><time>2026-05-05T19:40:07.000Z</time></trkpt>
        <trkpt lat="29.339782" lon="105.30093"><ele>366.47852</ele><time>2026-05-05T19:40:08.000Z</time></trkpt>
        <trkpt lat="29.339836" lon="105.300933"><ele>366.9752</ele><time>2026-05-05T19:40:10.000Z</time></trkpt>
        <trkpt lat="29.3399" lon="105.300936"><ele>366.4378</ele><time>2026-05-05T19:40:13.000Z</time></trkpt>
        <trkpt lat="29.339946" lon="105.300948"><ele>366.86545</ele><time>2026-05-05T19:40:22.000Z</time></trkpt>
        <trkpt lat="29.339996" lon="105.300957"><ele>367.28857</ele><time>2026-05-05T19:40:41.000Z</time></trkpt>
        <trkpt lat="29.339946" lon="105.301007"><ele>366.52338</ele><time>2026-05-05T19:40:55.000Z</time></trkpt>
        <trkpt lat="29.339872" lon="105.300953"><ele>366.0435</ele><time>2026-05-05T19:40:57.000Z</time></trkpt>
        <trkpt lat="29.339832" lon="105.300927"><ele>365.96912</ele><time>2026-05-05T19:40:58.000Z</time></trkpt>
        <trkpt lat="29.339783" lon="105.300926"><ele>365.9532</ele><time>2026-05-05T19:41:00.000Z</time></trkpt>
        <trkpt lat="29.339748" lon="105.300964"><ele>366.06134</ele><time>2026-05-05T19:41:04.000Z</time></trkpt>
        <trkpt lat="29.339714" lon="105.301007"><ele>366.7368</ele><time>2026-05-05T19:41:08.000Z</time></trkpt>
        <trkpt lat="29.339674" lon="105.301037"><ele>366.99344</ele><time>2026-05-05T19:41:12.000Z</time></trkpt>
        <trkpt lat="29.339648" lon="105.301085"><ele>367.2783</ele><time>2026-05-05T19:41:15.000Z</time></trkpt>
        <trkpt lat="29.339617" lon="105.301128"><ele>367.10123</ele><time>2026-05-05T19:41:19.000Z</time></trkpt>
        <trkpt lat="29.339571" lon="105.301152"><ele>367.68726</ele><time>2026-05-05T19:41:22.000Z</time></trkpt>
        <trkpt lat="29.339527" lon="105.301174"><ele>368.29517</ele><time>2026-05-05T19:41:25.000Z</time></trkpt>
        <trkpt lat="29.339481" lon="105.301199"><ele>368.7898</ele><time>2026-05-05T19:41:28.000Z</time></trkpt>
        <trkpt lat="29.339462" lon="105.301251"><ele>369.232</ele><time>2026-05-05T19:41:33.000Z</time></trkpt>
        <trkpt lat="29.339432" lon="105.301306"><ele>368.69894</ele><time>2026-05-05T19:41:40.000Z</time></trkpt>
        <trkpt lat="29.339412" lon="105.301363"><ele>369.79523</ele><time>2026-05-05T19:41:44.000Z</time></trkpt>
        <trkpt lat="29.339369" lon="105.301347"><ele>369.88745</ele><time>2026-05-05T19:42:00.000Z</time></trkpt>
        <trkpt lat="29.339361" lon="105.301399"><ele>369.14417</ele><time>2026-05-05T19:42:09.000Z</time></trkpt>
        <trkpt lat="29.339342" lon="105.30145"><ele>369.41168</ele><time>2026-05-05T19:42:13.000Z</time></trkpt>
        <trkpt lat="29.339301" lon="105.301476"><ele>369.27927</ele><time>2026-05-05T19:42:16.000Z</time></trkpt>
        <trkpt lat="29.3393" lon="105.301527"><ele>370.3526</ele><time>2026-05-05T19:42:20.000Z</time></trkpt>
        <trkpt lat="29.339274" lon="105.301572"><ele>370.55328</ele><time>2026-05-05T19:42:24.000Z</time></trkpt>
        <trkpt lat="29.339249" lon="105.301623"><ele>370.807</ele><time>2026-05-05T19:42:28.000Z</time></trkpt>
        <trkpt lat="29.339228" lon="105.301679"><ele>370.98386</ele><time>2026-05-05T19:42:32.000Z</time></trkpt>
        <trkpt lat="29.339201" lon="105.301735"><ele>371.03342</ele><time>2026-05-05T19:42:36.000Z</time></trkpt>
        <trkpt lat="29.339176" lon="105.301797"><ele>370.77908</ele><time>2026-05-05T19:42:48.000Z</time></trkpt>
        <trkpt lat="29.339155" lon="105.301859"><ele>371.10138</ele><time>2026-05-05T19:42:52.000Z</time></trkpt>
        <trkpt lat="29.339137" lon="105.301921"><ele>370.59515</ele><time>2026-05-05T19:42:56.000Z</time></trkpt>
        <trkpt lat="29.339121" lon="105.30197"><ele>370.74667</ele><time>2026-05-05T19:42:59.000Z</time></trkpt>
        <trkpt lat="29.339109" lon="105.302026"><ele>370.58694</ele><time>2026-05-05T19:43:02.000Z</time></trkpt>
        <trkpt lat="29.339102" lon="105.302086"><ele>370.25766</ele><time>2026-05-05T19:43:06.000Z</time></trkpt>
        <trkpt lat="29.339095" lon="105.302138"><ele>369.48145</ele><time>2026-05-05T19:43:10.000Z</time></trkpt>
        <trkpt lat="29.339058" lon="105.302171"><ele>370.78046</ele><time>2026-05-05T19:43:14.000Z</time></trkpt>
        <trkpt lat="29.339026" lon="105.302218"><ele>371.4358</ele><time>2026-05-05T19:43:18.000Z</time></trkpt>
        <trkpt lat="29.339003" lon="105.302263"><ele>370.2784</ele><time>2026-05-05T19:43:22.000Z</time></trkpt>
        <trkpt lat="29.338981" lon="105.302309"><ele>370.62802</ele><time>2026-05-05T19:43:33.000Z</time></trkpt>
        <trkpt lat="29.338963" lon="105.302357"><ele>370.15936</ele><time>2026-05-05T19:43:36.000Z</time></trkpt>
        <trkpt lat="29.338941" lon="105.302402"><ele>370.0421</ele><time>2026-05-05T19:43:40.000Z</time></trkpt>
        <trkpt lat="29.338916" lon="105.302451"><ele>370.38318</ele><time>2026-05-05T19:43:44.000Z</time></trkpt>
        <trkpt lat="29.338887" lon="105.302513"><ele>369.92194</ele><time>2026-05-05T19:43:48.000Z</time></trkpt>
        <trkpt lat="29.338865" lon="105.30257"><ele>369.90408</ele><time>2026-05-05T19:43:52.000Z</time></trkpt>
        <trkpt lat="29.338829" lon="105.302615"><ele>371.45117</ele><time>2026-05-05T19:43:56.000Z</time></trkpt>
        <trkpt lat="29.338809" lon="105.302663"><ele>370.98486</ele><time>2026-05-05T19:43:59.000Z</time></trkpt>
        <trkpt lat="29.338787" lon="105.302712"><ele>370.5927</ele><time>2026-05-05T19:44:03.000Z</time></trkpt>
        <trkpt lat="29.3388" lon="105.302765"><ele>370.85873</ele><time>2026-05-05T19:44:10.000Z</time></trkpt>
        <trkpt lat="29.338787" lon="105.302815"><ele>369.7407</ele><time>2026-05-05T19:44:15.000Z</time></trkpt>
        <trkpt lat="29.338782" lon="105.302884"><ele>370.9575</ele><time>2026-05-05T19:44:18.000Z</time></trkpt>
        <trkpt lat="29.338733" lon="105.30291"><ele>371.67044</ele><time>2026-05-05T19:44:23.000Z</time></trkpt>
        <trkpt lat="29.338687" lon="105.302914"><ele>371.2993</ele><time>2026-05-05T19:44:28.000Z</time></trkpt>
        <trkpt lat="29.338692" lon="105.302857"><ele>369.93933</ele><time>2026-05-05T19:44:37.000Z</time></trkpt>
        <trkpt lat="29.338683" lon="105.302912"><ele>371.16623</ele><time>2026-05-05T19:45:20.000Z</time></trkpt>
        <trkpt lat="29.338668" lon="105.302972"><ele>372.1552</ele><time>2026-05-05T19:45:25.000Z</time></trkpt>
        <trkpt lat="29.338658" lon="105.303034"><ele>371.6403</ele><time>2026-05-05T19:45:29.000Z</time></trkpt>
        <trkpt lat="29.338652" lon="105.303092"><ele>370.9504</ele><time>2026-05-05T19:45:32.000Z</time></trkpt>
        <trkpt lat="29.338658" lon="105.303147"><ele>370.52945</ele><time>2026-05-05T19:45:35.000Z</time></trkpt>
        <trkpt lat="29.33862" lon="105.303189"><ele>370.62985</ele><time>2026-05-05T19:45:39.000Z</time></trkpt>
        <trkpt lat="29.338581" lon="105.303217"><ele>370.60284</ele><time>2026-05-05T19:45:41.000Z</time></trkpt>
        <trkpt lat="29.33856" lon="105.303268"><ele>370.05954</ele><time>2026-05-05T19:45:45.000Z</time></trkpt>
        <trkpt lat="29.338529" lon="105.303306"><ele>370.49417</ele><time>2026-05-05T19:45:49.000Z</time></trkpt>
        <trkpt lat="29.338513" lon="105.303361"><ele>370.42496</ele><time>2026-05-05T19:45:53.000Z</time></trkpt>
        <trkpt lat="29.338483" lon="105.303401"><ele>370.29422</ele><time>2026-05-05T19:45:56.000Z</time></trkpt>
        <trkpt lat="29.338451" lon="105.303455"><ele>371.1031</ele><time>2026-05-05T19:46:00.000Z</time></trkpt>
        <trkpt lat="29.338404" lon="105.303468"><ele>371.09033</ele><time>2026-05-05T19:46:48.000Z</time></trkpt>
        <trkpt lat="29.338446" lon="105.303511"><ele>371.37018</ele><time>2026-05-05T19:47:19.000Z</time></trkpt>
        <trkpt lat="29.338484" lon="105.303555"><ele>370.87433</ele><time>2026-05-05T19:47:23.000Z</time></trkpt>
        <trkpt lat="29.338513" lon="105.30362"><ele>371.17688</ele><time>2026-05-05T19:47:27.000Z</time></trkpt>
        <trkpt lat="29.338532" lon="105.303671"><ele>370.6622</ele><time>2026-05-05T19:47:31.000Z</time></trkpt>
        <trkpt lat="29.338548" lon="105.30372"><ele>370.60767</ele><time>2026-05-05T19:47:34.000Z</time></trkpt>
        <trkpt lat="29.338598" lon="105.303686"><ele>370.0209</ele><time>2026-05-05T19:47:48.000Z</time></trkpt>
        <trkpt lat="29.338629" lon="105.303644"><ele>370.36862</ele><time>2026-05-05T19:47:52.000Z</time></trkpt>
        <trkpt lat="29.338605" lon="105.303597"><ele>370.2359</ele><time>2026-05-05T19:48:00.000Z</time></trkpt>
        <trkpt lat="29.338574" lon="105.303556"><ele>369.599</ele><time>2026-05-05T19:48:11.000Z</time></trkpt>
        <trkpt lat="29.338558" lon="105.303508"><ele>370.42743</ele><time>2026-05-05T19:48:45.000Z</time></trkpt>
        <trkpt lat="29.338537" lon="105.303458"><ele>370.25327</ele><time>2026-05-05T19:48:59.000Z</time></trkpt>
        <trkpt lat="29.33855" lon="105.303405"><ele>371.31174</ele><time>2026-05-05T19:49:04.000Z</time></trkpt>
        <trkpt lat="29.338513" lon="105.30337"><ele>371.4098</ele><time>2026-05-05T19:49:09.000Z</time></trkpt>
        <trkpt lat="29.338472" lon="105.303318"><ele>371.14575</ele><time>2026-05-05T19:49:12.000Z</time></trkpt>
        <trkpt lat="29.338434" lon="105.303288"><ele>371.16342</ele><time>2026-05-05T19:49:15.000Z</time></trkpt>
        <trkpt lat="29.338531" lon="105.303397"><ele>370.58524</ele><time>2026-05-05T19:49:16.000Z</time></trkpt>
        <trkpt lat="29.338504" lon="105.303338"><ele>370.58475</ele><time>2026-05-05T19:49:18.000Z</time></trkpt>
        <trkpt lat="29.338537" lon="105.303301"><ele>370.8873</ele><time>2026-05-05T19:49:19.000Z</time></trkpt>
        <trkpt lat="29.338411" lon="105.30312"><ele>371.05502</ele><time>2026-05-05T19:49:26.000Z</time></trkpt>
        <trkpt lat="29.338421" lon="105.303215"><ele>370.65076</ele><time>2026-05-05T19:49:28.000Z</time></trkpt>
        <trkpt lat="29.338414" lon="105.303156"><ele>369.91568</ele><time>2026-05-05T19:49:32.000Z</time></trkpt>
        <trkpt lat="29.338412" lon="105.303219"><ele>369.78122</ele><time>2026-05-05T19:49:38.000Z</time></trkpt>
        <trkpt lat="29.338432" lon="105.303292"><ele>369.4162</ele><time>2026-05-05T19:49:40.000Z</time></trkpt>
        <trkpt lat="29.338492" lon="105.303329"><ele>368.94183</ele><time>2026-05-05T19:49:57.000Z</time></trkpt>
        <trkpt lat="29.3385" lon="105.303462"><ele>370.14502</ele><time>2026-05-05T19:50:17.000Z</time></trkpt>
        <trkpt lat="29.338524" lon="105.30348"><ele>367.825</ele><time>2026-05-05T19:50:53.000Z</time></trkpt>
        <trkpt lat="29.338616" lon="105.303343"><ele>369.543</ele><time>2026-05-05T19:51:07.000Z</time></trkpt>
        <trkpt lat="29.338651" lon="105.30331"><ele>369.75308</ele><time>2026-05-05T19:51:10.000Z</time></trkpt>
        <trkpt lat="29.338659" lon="105.303257"><ele>369.19962</ele><time>2026-05-05T19:51:15.000Z</time></trkpt>
        <trkpt lat="29.338624" lon="105.303296"><ele>370.3542</ele><time>2026-05-05T19:51:46.000Z</time></trkpt>
        <trkpt lat="29.338585" lon="105.30334"><ele>370.53174</ele><time>2026-05-05T19:51:51.000Z</time></trkpt>
        <trkpt lat="29.338558" lon="105.303388"><ele>370.4993</ele><time>2026-05-05T19:52:04.000Z</time></trkpt>
        <trkpt lat="29.338542" lon="105.30345"><ele>370.11313</ele><time>2026-05-05T19:52:09.000Z</time></trkpt>
        <trkpt lat="29.338558" lon="105.303499"><ele>371.511</ele><time>2026-05-05T19:52:20.000Z</time></trkpt>
        <trkpt lat="29.338605" lon="105.303507"><ele>372.144</ele><time>2026-05-05T19:52:31.000Z</time></trkpt>
        <trkpt lat="29.338569" lon="105.303541"><ele>369.8607</ele><time>2026-05-05T19:52:54.000Z</time></trkpt>
        <trkpt lat="29.33861" lon="105.303584"><ele>371.17554</ele><time>2026-05-05T19:53:04.000Z</time></trkpt>
        <trkpt lat="29.338626" lon="105.303652"><ele>371.7801</ele><time>2026-05-05T19:53:08.000Z</time></trkpt>
        <trkpt lat="29.338671" lon="105.303633"><ele>372.88803</ele><time>2026-05-05T19:53:18.000Z</time></trkpt>
        <trkpt lat="29.338628" lon="105.303661"><ele>370.78174</ele><time>2026-05-05T19:53:38.000Z</time></trkpt>
        <trkpt lat="29.338613" lon="105.303718"><ele>369.67227</ele><time>2026-05-05T19:53:42.000Z</time></trkpt>
        <trkpt lat="29.338559" lon="105.303724"><ele>371.0879</ele><time>2026-05-05T19:53:45.000Z</time></trkpt>
        <trkpt lat="29.338524" lon="105.303691"><ele>371.13672</ele><time>2026-05-05T19:53:48.000Z</time></trkpt>
        <trkpt lat="29.338482" lon="105.303649"><ele>371.22244</ele><time>2026-05-05T19:53:51.000Z</time></trkpt>
        <trkpt lat="29.338471" lon="105.303593"><ele>370.31787</ele><time>2026-05-05T19:53:55.000Z</time></trkpt>
        <trkpt lat="29.338453" lon="105.303546"><ele>369.7509</ele><time>2026-05-05T19:53:59.000Z</time></trkpt>
        <trkpt lat="29.338432" lon="105.303493"><ele>370.11246</ele><time>2026-05-05T19:54:11.000Z</time></trkpt>
        <trkpt lat="29.338386" lon="105.303515"><ele>370.3173</ele><time>2026-05-05T19:54:19.000Z</time></trkpt>
        <trkpt lat="29.338356" lon="105.303563"><ele>371.11887</ele><time>2026-05-05T19:54:22.000Z</time></trkpt>
        <trkpt lat="29.338326" lon="105.303619"><ele>370.99887</ele><time>2026-05-05T19:54:26.000Z</time></trkpt>
        <trkpt lat="29.338292" lon="105.303667"><ele>371.53677</ele><time>2026-05-05T19:54:31.000Z</time></trkpt>
        <trkpt lat="29.338265" lon="105.303724"><ele>371.84708</ele><time>2026-05-05T19:54:35.000Z</time></trkpt>
        <trkpt lat="29.338238" lon="105.303777"><ele>372.2276</ele><time>2026-05-05T19:54:39.000Z</time></trkpt>
        <trkpt lat="29.33823" lon="105.30384"><ele>373.09375</ele><time>2026-05-05T19:54:44.000Z</time></trkpt>
        <trkpt lat="29.338207" lon="105.303899"><ele>371.8309</ele><time>2026-05-05T19:54:56.000Z</time></trkpt>
        <trkpt lat="29.338236" lon="105.303858"><ele>371.33954</ele><time>2026-05-05T19:55:36.000Z</time></trkpt>
        <trkpt lat="29.338197" lon="105.303804"><ele>371.07025</ele><time>2026-05-05T19:56:08.000Z</time></trkpt>
        <trkpt lat="29.338153" lon="105.303787"><ele>371.798</ele><time>2026-05-05T19:56:10.000Z</time></trkpt>
        <trkpt lat="29.338109" lon="105.303763"><ele>372.31528</ele><time>2026-05-05T19:56:13.000Z</time></trkpt>
        <trkpt lat="29.33807" lon="105.303737"><ele>371.66235</ele><time>2026-05-05T19:56:16.000Z</time></trkpt>
        <trkpt lat="29.338028" lon="105.30371"><ele>371.47574</ele><time>2026-05-05T19:56:19.000Z</time></trkpt>
        <trkpt lat="29.337978" lon="105.303676"><ele>371.64713</ele><time>2026-05-05T19:56:23.000Z</time></trkpt>
        <trkpt lat="29.337966" lon="105.303623"><ele>371.53812</ele><time>2026-05-05T19:56:28.000Z</time></trkpt>
        <trkpt lat="29.337949" lon="105.303566"><ele>372.13205</ele><time>2026-05-05T19:56:34.000Z</time></trkpt>
        <trkpt lat="29.337911" lon="105.303531"><ele>372.77692</ele><time>2026-05-05T19:56:42.000Z</time></trkpt>
        <trkpt lat="29.337932" lon="105.303479"><ele>371.11813</ele><time>2026-05-05T19:57:13.000Z</time></trkpt>
        <trkpt lat="29.337939" lon="105.303426"><ele>370.22897</ele><time>2026-05-05T19:57:20.000Z</time></trkpt>
        <trkpt lat="29.337924" lon="105.303371"><ele>371.3842</ele><time>2026-05-05T19:57:24.000Z</time></trkpt>
        <trkpt lat="29.337872" lon="105.303346"><ele>373.04172</ele><time>2026-05-05T19:57:28.000Z</time></trkpt>
        <trkpt lat="29.337817" lon="105.30333"><ele>373.2034</ele><time>2026-05-05T19:57:32.000Z</time></trkpt>
        <trkpt lat="29.337781" lon="105.303288"><ele>373.101</ele><time>2026-05-05T19:57:36.000Z</time></trkpt>
        <trkpt lat="29.337737" lon="105.303242"><ele>372.47104</ele><time>2026-05-05T19:57:40.000Z</time></trkpt>
        <trkpt lat="29.337682" lon="105.303235"><ele>373.85022</ele><time>2026-05-05T19:57:45.000Z</time></trkpt>
        <trkpt lat="29.337663" lon="105.303185"><ele>374.30136</ele><time>2026-05-05T19:57:55.000Z</time></trkpt>
        <trkpt lat="29.337712" lon="105.303195"><ele>372.82947</ele><time>2026-05-05T19:58:17.000Z</time></trkpt>
        <trkpt lat="29.337756" lon="105.303222"><ele>373.8679</ele><time>2026-05-05T19:58:22.000Z</time></trkpt>
        <trkpt lat="29.337805" lon="105.303245"><ele>373.69705</ele><time>2026-05-05T19:58:26.000Z</time></trkpt>
        <trkpt lat="29.337867" lon="105.30327"><ele>374.179</ele><time>2026-05-05T19:58:30.000Z</time></trkpt>
        <trkpt lat="29.33792" lon="105.303282"><ele>374.0244</ele><time>2026-05-05T19:58:34.000Z</time></trkpt>
        <trkpt lat="29.337967" lon="105.303273"><ele>372.9219</ele><time>2026-05-05T19:58:39.000Z</time></trkpt>
        <trkpt lat="29.338024" lon="105.303286"><ele>372.08194</ele><time>2026-05-05T19:58:43.000Z</time></trkpt>
        <trkpt lat="29.338072" lon="105.303257"><ele>372.46976</ele><time>2026-05-05T19:58:46.000Z</time></trkpt>
        <trkpt lat="29.338121" lon="105.303244"><ele>372.16928</ele><time>2026-05-05T19:58:50.000Z</time></trkpt>
        <trkpt lat="29.33815" lon="105.3032"><ele>372.04074</ele><time>2026-05-05T19:58:53.000Z</time></trkpt>
        <trkpt lat="29.338172" lon="105.303142"><ele>372.40985</ele><time>2026-05-05T19:58:57.000Z</time></trkpt>
        <trkpt lat="29.338197" lon="105.303086"><ele>372.08533</ele><time>2026-05-05T19:59:01.000Z</time></trkpt>
        <trkpt lat="29.338205" lon="105.303034"><ele>371.4142</ele><time>2026-05-05T19:59:04.000Z</time></trkpt>
        <trkpt lat="29.338223" lon="105.302987"><ele>371.47784</ele><time>2026-05-05T19:59:07.000Z</time></trkpt>
        <trkpt lat="29.338177" lon="105.302959"><ele>371.50595</ele><time>2026-05-05T19:59:19.000Z</time></trkpt>
        <trkpt lat="29.338129" lon="105.302942"><ele>370.70532</ele><time>2026-05-05T19:59:23.000Z</time></trkpt>
        <trkpt lat="29.338082" lon="105.30292"><ele>370.8005</ele><time>2026-05-05T19:59:27.000Z</time></trkpt>
        <trkpt lat="29.338034" lon="105.302903"><ele>372.06104</ele><time>2026-05-05T19:59:33.000Z</time></trkpt>
        <trkpt lat="29.338079" lon="105.302914"><ele>373.27298</ele><time>2026-05-05T19:59:44.000Z</time></trkpt>
        <trkpt lat="29.338118" lon="105.302885"><ele>374.60364</ele><time>2026-05-05T19:59:58.000Z</time></trkpt>
        <trkpt lat="29.338133" lon="105.302836"><ele>371.2765</ele><time>2026-05-05T20:00:45.000Z</time></trkpt>
        <trkpt lat="29.338086" lon="105.30284"><ele>372.1296</ele><time>2026-05-05T20:01:08.000Z</time></trkpt>
        <trkpt lat="29.338037" lon="105.302811"><ele>373.93057</ele><time>2026-05-05T20:01:12.000Z</time></trkpt>
        <trkpt lat="29.33799" lon="105.302791"><ele>372.46118</ele><time>2026-05-05T20:01:26.000Z</time></trkpt>
        <trkpt lat="29.337943" lon="105.3028"><ele>371.12482</ele><time>2026-05-05T20:01:33.000Z</time></trkpt>
        <trkpt lat="29.337908" lon="105.302766"><ele>370.81982</ele><time>2026-05-05T20:01:37.000Z</time></trkpt>
        <trkpt lat="29.337865" lon="105.302741"><ele>371.33243</ele><time>2026-05-05T20:01:42.000Z</time></trkpt>
        <trkpt lat="29.337887" lon="105.302792"><ele>371.24063</ele><time>2026-05-05T20:02:20.000Z</time></trkpt>
        <trkpt lat="29.33793" lon="105.302811"><ele>372.13208</ele><time>2026-05-05T20:02:25.000Z</time></trkpt>
        <trkpt lat="29.337991" lon="105.302821"><ele>371.53397</ele><time>2026-05-05T20:02:29.000Z</time></trkpt>
        <trkpt lat="29.338043" lon="105.302839"><ele>372.8732</ele><time>2026-05-05T20:02:33.000Z</time></trkpt>
        <trkpt lat="29.338087" lon="105.302866"><ele>372.98178</ele><time>2026-05-05T20:02:37.000Z</time></trkpt>
        <trkpt lat="29.338127" lon="105.302902"><ele>371.43002</ele><time>2026-05-05T20:02:41.000Z</time></trkpt>
        <trkpt lat="29.338162" lon="105.302946"><ele>370.60556</ele><time>2026-05-05T20:02:46.000Z</time></trkpt>
        <trkpt lat="29.338172" lon="105.303001"><ele>370.64423</ele><time>2026-05-05T20:02:50.000Z</time></trkpt>
        <trkpt lat="29.338144" lon="105.302953"><ele>371.35202</ele><time>2026-05-05T20:04:14.000Z</time></trkpt>
        <trkpt lat="29.338195" lon="105.302975"><ele>370.60962</ele><time>2026-05-05T20:04:29.000Z</time></trkpt>
        <trkpt lat="29.338219" lon="105.303019"><ele>370.55923</ele><time>2026-05-05T20:04:45.000Z</time></trkpt>
        <trkpt lat="29.338184" lon="105.303069"><ele>371.173</ele><time>2026-05-05T20:04:58.000Z</time></trkpt>
        <trkpt lat="29.338143" lon="105.303105"><ele>371.49628</ele><time>2026-05-05T20:05:01.000Z</time></trkpt>
        <trkpt lat="29.338106" lon="105.303137"><ele>370.96802</ele><time>2026-05-05T20:05:04.000Z</time></trkpt>
        <trkpt lat="29.338076" lon="105.303186"><ele>371.85605</ele><time>2026-05-05T20:05:07.000Z</time></trkpt>
        <trkpt lat="29.338068" lon="105.303239"><ele>372.9557</ele><time>2026-05-05T20:05:10.000Z</time></trkpt>
        <trkpt lat="29.338015" lon="105.303234"><ele>374.3976</ele><time>2026-05-05T20:05:15.000Z</time></trkpt>
        <trkpt lat="29.337964" lon="105.303233"><ele>373.9553</ele><time>2026-05-05T20:05:19.000Z</time></trkpt>
        <trkpt lat="29.337918" lon="105.303243"><ele>374.16144</ele><time>2026-05-05T20:05:23.000Z</time></trkpt>
        <trkpt lat="29.337872" lon="105.303252"><ele>374.73288</ele><time>2026-05-05T20:05:27.000Z</time></trkpt>
        <trkpt lat="29.337826" lon="105.30324"><ele>375.3682</ele><time>2026-05-05T20:05:37.000Z</time></trkpt>
        <trkpt lat="29.337787" lon="105.303286"><ele>375.82635</ele><time>2026-05-05T20:05:40.000Z</time></trkpt>
        <trkpt lat="29.337761" lon="105.303346"><ele>374.98682</ele><time>2026-05-05T20:05:42.000Z</time></trkpt>
        <trkpt lat="29.337759" lon="105.303404"><ele>376.05396</ele><time>2026-05-05T20:05:45.000Z</time></trkpt>
        <trkpt lat="29.337778" lon="105.303457"><ele>373.15707</ele><time>2026-05-05T20:06:25.000Z</time></trkpt>
        <trkpt lat="29.337824" lon="105.303463"><ele>373.63016</ele><time>2026-05-05T20:06:28.000Z</time></trkpt>
        <trkpt lat="29.337869" lon="105.303499"><ele>374.13135</ele><time>2026-05-05T20:06:31.000Z</time></trkpt>
        <trkpt lat="29.337914" lon="105.303518"><ele>374.10455</ele><time>2026-05-05T20:06:34.000Z</time></trkpt>
        <trkpt lat="29.337939" lon="105.303578"><ele>373.2029</ele><time>2026-05-05T20:06:38.000Z</time></trkpt>
        <trkpt lat="29.337945" lon="105.303637"><ele>372.77893</ele><time>2026-05-05T20:06:42.000Z</time></trkpt>
        <trkpt lat="29.337936" lon="105.30369"><ele>372.50647</ele><time>2026-05-05T20:06:56.000Z</time></trkpt>
        <trkpt lat="29.337914" lon="105.303738"><ele>372.83426</ele><time>2026-05-05T20:07:01.000Z</time></trkpt>
        <trkpt lat="29.337875" lon="105.303767"><ele>372.7817</ele><time>2026-05-05T20:07:04.000Z</time></trkpt>
        <trkpt lat="29.337852" lon="105.303817"><ele>372.7334</ele><time>2026-05-05T20:07:08.000Z</time></trkpt>
        <trkpt lat="29.337824" lon="105.303862"><ele>371.92624</ele><time>2026-05-05T20:07:12.000Z</time></trkpt>
        <trkpt lat="29.337783" lon="105.303903"><ele>370.74936</ele><time>2026-05-05T20:07:16.000Z</time></trkpt>
        <trkpt lat="29.33774" lon="105.303922"><ele>371.15805</ele><time>2026-05-05T20:07:19.000Z</time></trkpt>
        <trkpt lat="29.337698" lon="105.303944"><ele>370.7417</ele><time>2026-05-05T20:07:22.000Z</time></trkpt>
        <trkpt lat="29.337642" lon="105.303972"><ele>370.86295</ele><time>2026-05-05T20:07:31.000Z</time></trkpt>
        <trkpt lat="29.33759" lon="105.303985"><ele>371.01324</ele><time>2026-05-05T20:07:36.000Z</time></trkpt>
        <trkpt lat="29.33754" lon="105.30399"><ele>371.00702</ele><time>2026-05-05T20:07:40.000Z</time></trkpt>
        <trkpt lat="29.337485" lon="105.303997"><ele>371.56152</ele><time>2026-05-05T20:07:45.000Z</time></trkpt>
        <trkpt lat="29.337438" lon="105.303999"><ele>371.02838</ele><time>2026-05-05T20:07:51.000Z</time></trkpt>
        <trkpt lat="29.33742" lon="105.304065"><ele>370.92136</ele><time>2026-05-05T20:08:05.000Z</time></trkpt>
        <trkpt lat="29.337405" lon="105.304124"><ele>370.65866</ele><time>2026-05-05T20:08:09.000Z</time></trkpt>
        <trkpt lat="29.337397" lon="105.304176"><ele>371.32385</ele><time>2026-05-05T20:08:13.000Z</time></trkpt>
        <trkpt lat="29.337402" lon="105.304231"><ele>371.60846</ele><time>2026-05-05T20:08:17.000Z</time></trkpt>
        <trkpt lat="29.337401" lon="105.304285"><ele>371.02872</ele><time>2026-05-05T20:08:21.000Z</time></trkpt>
        <trkpt lat="29.337367" lon="105.304322"><ele>371.76886</ele><time>2026-05-05T20:08:25.000Z</time></trkpt>
        <trkpt lat="29.337326" lon="105.304355"><ele>371.30585</ele><time>2026-05-05T20:08:29.000Z</time></trkpt>
        <trkpt lat="29.337292" lon="105.304395"><ele>372.534</ele><time>2026-05-05T20:08:34.000Z</time></trkpt>
        <trkpt lat="29.337245" lon="105.304425"><ele>372.44534</ele><time>2026-05-05T20:08:39.000Z</time></trkpt>
        <trkpt lat="29.337214" lon="105.304471"><ele>373.1751</ele><time>2026-05-05T20:08:44.000Z</time></trkpt>
        <trkpt lat="29.337195" lon="105.30452"><ele>372.7013</ele><time>2026-05-05T20:08:51.000Z</time></trkpt>
        <trkpt lat="29.337146" lon="105.304504"><ele>371.12323</ele><time>2026-05-05T20:10:28.000Z</time></trkpt>
        <trkpt lat="29.3371" lon="105.304513"><ele>371.8807</ele><time>2026-05-05T20:10:31.000Z</time></trkpt>
        <trkpt lat="29.337068" lon="105.304571"><ele>372.14655</ele><time>2026-05-05T20:10:36.000Z</time></trkpt>
        <trkpt lat="29.337069" lon="105.304627"><ele>372.78705</ele><time>2026-05-05T20:10:42.000Z</time></trkpt>
        <trkpt lat="29.337016" lon="105.30463"><ele>369.92166</ele><time>2026-05-05T20:10:48.000Z</time></trkpt>
        <trkpt lat="29.336988" lon="105.304573"><ele>370.20734</ele><time>2026-05-05T20:10:53.000Z</time></trkpt>
        <trkpt lat="29.336965" lon="105.304524"><ele>370.65012</ele><time>2026-05-05T20:10:57.000Z</time></trkpt>
        <trkpt lat="29.336932" lon="105.304481"><ele>371.54156</ele><time>2026-05-05T20:11:01.000Z</time></trkpt>
        <trkpt lat="29.33696" lon="105.304425"><ele>370.0791</ele><time>2026-05-05T20:11:17.000Z</time></trkpt>
        <trkpt lat="29.337003" lon="105.3044"><ele>369.3891</ele><time>2026-05-05T20:11:22.000Z</time></trkpt>
        <trkpt lat="29.33705" lon="105.304377"><ele>369.2832</ele><time>2026-05-05T20:11:26.000Z</time></trkpt>
        <trkpt lat="29.337096" lon="105.304354"><ele>370.72537</ele><time>2026-05-05T20:11:30.000Z</time></trkpt>
        <trkpt lat="29.337145" lon="105.30433"><ele>370.2486</ele><time>2026-05-05T20:11:34.000Z</time></trkpt>
        <trkpt lat="29.337185" lon="105.304285"><ele>370.3337</ele><time>2026-05-05T20:11:39.000Z</time></trkpt>
        <trkpt lat="29.337214" lon="105.304238"><ele>369.41483</ele><time>2026-05-05T20:11:45.000Z</time></trkpt>
        <trkpt lat="29.337249" lon="105.304206"><ele>370.4891</ele><time>2026-05-05T20:12:00.000Z</time></trkpt>
        <trkpt lat="29.337231" lon="105.304263"><ele>369.8603</ele><time>2026-05-05T20:12:47.000Z</time></trkpt>
        <trkpt lat="29.337204" lon="105.304309"><ele>369.95898</ele><time>2026-05-05T20:12:50.000Z</time></trkpt>
        <trkpt lat="29.337177" lon="105.30435"><ele>370.01126</ele><time>2026-05-05T20:12:53.000Z</time></trkpt>
        <trkpt lat="29.337127" lon="105.304372"><ele>371.19492</ele><time>2026-05-05T20:12:56.000Z</time></trkpt>
        <trkpt lat="29.337076" lon="105.304401"><ele>371.83112</ele><time>2026-05-05T20:13:00.000Z</time></trkpt>
        <trkpt lat="29.33703" lon="105.304392"><ele>372.07007</ele><time>2026-05-05T20:13:03.000Z</time></trkpt>
        <trkpt lat="29.336981" lon="105.304416"><ele>372.0212</ele><time>2026-05-05T20:13:08.000Z</time></trkpt>
        <trkpt lat="29.336939" lon="105.30444"><ele>371.79395</ele><time>2026-05-05T20:13:15.000Z</time></trkpt>
        <trkpt lat="29.336933" lon="105.304495"><ele>372.47787</ele><time>2026-05-05T20:13:33.000Z</time></trkpt>
        <trkpt lat="29.336963" lon="105.304535"><ele>372.12885</ele><time>2026-05-05T20:13:37.000Z</time></trkpt>
        <trkpt lat="29.337008" lon="105.304577"><ele>373.84103</ele><time>2026-05-05T20:13:45.000Z</time></trkpt>
        <trkpt lat="29.337052" lon="105.304601"><ele>374.084</ele><time>2026-05-05T20:13:49.000Z</time></trkpt>
        <trkpt lat="29.337094" lon="105.304578"><ele>372.73</ele><time>2026-05-05T20:13:52.000Z</time></trkpt>
        <trkpt lat="29.337141" lon="105.304554"><ele>372.30682</ele><time>2026-05-05T20:13:56.000Z</time></trkpt>
        <trkpt lat="29.337171" lon="105.304509"><ele>371.42276</ele><time>2026-05-05T20:14:00.000Z</time></trkpt>
        <trkpt lat="29.337198" lon="105.304464"><ele>370.79224</ele><time>2026-05-05T20:14:05.000Z</time></trkpt>
        <trkpt lat="29.337246" lon="105.304441"><ele>371.795</ele><time>2026-05-05T20:14:10.000Z</time></trkpt>
        <trkpt lat="29.337282" lon="105.30441"><ele>371.95032</ele><time>2026-05-05T20:14:14.000Z</time></trkpt>
        <trkpt lat="29.337325" lon="105.304365"><ele>371.88022</ele><time>2026-05-05T20:14:18.000Z</time></trkpt>
        <trkpt lat="29.337371" lon="105.304328"><ele>372.40723</ele><time>2026-05-05T20:14:22.000Z</time></trkpt>
        <trkpt lat="29.337396" lon="105.304275"><ele>372.09344</ele><time>2026-05-05T20:14:25.000Z</time></trkpt>
        <trkpt lat="29.337335" lon="105.304238"><ele>369.86267</ele><time>2026-05-05T20:14:50.000Z</time></trkpt>
        <trkpt lat="29.337289" lon="105.304257"><ele>369.81143</ele><time>2026-05-05T20:14:53.000Z</time></trkpt>
        <trkpt lat="29.337318" lon="105.304298"><ele>370.48022</ele><time>2026-05-05T20:15:01.000Z</time></trkpt>
        <trkpt lat="29.337272" lon="105.304286"><ele>370.94043</ele><time>2026-05-05T20:15:29.000Z</time></trkpt>
        <trkpt lat="29.337324" lon="105.304281"><ele>370.58505</ele><time>2026-05-05T20:15:32.000Z</time></trkpt>
        <trkpt lat="29.337402" lon="105.304281"><ele>369.98346</ele><time>2026-05-05T20:15:37.000Z</time></trkpt>
        <trkpt lat="29.337535" lon="105.304323"><ele>369.39777</ele><time>2026-05-05T20:15:48.000Z</time></trkpt>
        <trkpt lat="29.337414" lon="105.304129"><ele>371.3922</ele><time>2026-05-05T20:16:16.000Z</time></trkpt>
        <trkpt lat="29.337415" lon="105.304068"><ele>371.30972</ele><time>2026-05-05T20:16:20.000Z</time></trkpt>
        <trkpt lat="29.337424" lon="105.30401"><ele>371.21527</ele><time>2026-05-05T20:16:24.000Z</time></trkpt>
        <trkpt lat="29.33743" lon="105.303958"><ele>371.71155</ele><time>2026-05-05T20:16:27.000Z</time></trkpt>
        <trkpt lat="29.337425" lon="105.303893"><ele>371.65985</ele><time>2026-05-05T20:16:32.000Z</time></trkpt>
        <trkpt lat="29.337443" lon="105.303833"><ele>370.96075</ele><time>2026-05-05T20:16:36.000Z</time></trkpt>
        <trkpt lat="29.337462" lon="105.303787"><ele>371.67667</ele><time>2026-05-05T20:16:39.000Z</time></trkpt>
        <trkpt lat="29.337468" lon="105.303733"><ele>372.32135</ele><time>2026-05-05T20:16:42.000Z</time></trkpt>
        <trkpt lat="29.337484" lon="105.303679"><ele>372.17032</ele><time>2026-05-05T20:16:46.000Z</time></trkpt>
        <trkpt lat="29.337498" lon="105.303627"><ele>371.59186</ele><time>2026-05-05T20:16:49.000Z</time></trkpt>
        <trkpt lat="29.337484" lon="105.303564"><ele>372.44028</ele><time>2026-05-05T20:16:53.000Z</time></trkpt>
        <trkpt lat="29.337466" lon="105.303505"><ele>372.1977</ele><time>2026-05-05T20:16:57.000Z</time></trkpt>
        <trkpt lat="29.337429" lon="105.303457"><ele>371.98938</ele><time>2026-05-05T20:17:01.000Z</time></trkpt>
        <trkpt lat="29.337387" lon="105.303429"><ele>372.50128</ele><time>2026-05-05T20:17:04.000Z</time></trkpt>
        <trkpt lat="29.337341" lon="105.303406"><ele>371.51215</ele><time>2026-05-05T20:17:09.000Z</time></trkpt>
        <trkpt lat="29.337292" lon="105.30338"><ele>370.8262</ele><time>2026-05-05T20:17:42.000Z</time></trkpt>
        <trkpt lat="29.337249" lon="105.303333"><ele>371.37302</ele><time>2026-05-05T20:17:48.000Z</time></trkpt>
        <trkpt lat="29.337209" lon="105.303302"><ele>370.47296</ele><time>2026-05-05T20:17:54.000Z</time></trkpt>
        <trkpt lat="29.337173" lon="105.303248"><ele>370.6214</ele><time>2026-05-05T20:17:58.000Z</time></trkpt>
        <trkpt lat="29.337145" lon="105.303201"><ele>369.94882</ele><time>2026-05-05T20:18:01.000Z</time></trkpt>
        <trkpt lat="29.337093" lon="105.303191"><ele>371.3396</ele><time>2026-05-05T20:18:06.000Z</time></trkpt>
        <trkpt lat="29.337062" lon="105.303239"><ele>371.2921</ele><time>2026-05-05T20:18:09.000Z</time></trkpt>
        <trkpt lat="29.337009" lon="105.303203"><ele>370.49353</ele><time>2026-05-05T20:18:14.000Z</time></trkpt>
        <trkpt lat="29.33698" lon="105.303249"><ele>371.71277</ele><time>2026-05-05T20:18:18.000Z</time></trkpt>
        <trkpt lat="29.337021" lon="105.303272"><ele>371.94336</ele><time>2026-05-05T20:18:32.000Z</time></trkpt>
        <trkpt lat="29.337071" lon="105.303299"><ele>372.10037</ele><time>2026-05-05T20:18:45.000Z</time></trkpt>
        <trkpt lat="29.33702" lon="105.30333"><ele>372.75482</ele><time>2026-05-05T20:18:51.000Z</time></trkpt>
        <trkpt lat="29.337305" lon="105.303321"><ele>369.92538</ele><time>2026-05-05T20:19:07.000Z</time></trkpt>
        <trkpt lat="29.337073" lon="105.303291"><ele>369.71378</ele><time>2026-05-05T20:19:28.000Z</time></trkpt>
        <trkpt lat="29.337054" lon="105.303391"><ele>371.2218</ele><time>2026-05-05T20:19:30.000Z</time></trkpt>
        <trkpt lat="29.337059" lon="105.303324"><ele>371.70697</ele><time>2026-05-05T20:19:33.000Z</time></trkpt>
        <trkpt lat="29.33703" lon="105.303262"><ele>371.61728</ele><time>2026-05-05T20:19:35.000Z</time></trkpt>
        <trkpt lat="29.336988" lon="105.303215"><ele>371.6235</ele><time>2026-05-05T20:19:37.000Z</time></trkpt>
        <trkpt lat="29.336954" lon="105.303159"><ele>371.3688</ele><time>2026-05-05T20:19:41.000Z</time></trkpt>
        <trkpt lat="29.336973" lon="105.303109"><ele>370.91043</ele><time>2026-05-05T20:19:47.000Z</time></trkpt>
        <trkpt lat="29.336935" lon="105.303139"><ele>373.35974</ele><time>2026-05-05T20:20:06.000Z</time></trkpt>
        <trkpt lat="29.336964" lon="105.303181"><ele>371.56207</ele><time>2026-05-05T20:21:01.000Z</time></trkpt>
        <trkpt lat="29.337011" lon="105.303217"><ele>372.07428</ele><time>2026-05-05T20:21:05.000Z</time></trkpt>
        <trkpt lat="29.337054" lon="105.303237"><ele>373.27972</ele><time>2026-05-05T20:21:11.000Z</time></trkpt>
        <trkpt lat="29.337093" lon="105.303209"><ele>371.8038</ele><time>2026-05-05T20:21:16.000Z</time></trkpt>
        <trkpt lat="29.337144" lon="105.303228"><ele>371.4286</ele><time>2026-05-05T20:21:22.000Z</time></trkpt>
        <trkpt lat="29.337138" lon="105.303167"><ele>370.28937</ele><time>2026-05-05T20:21:24.000Z</time></trkpt>
        <trkpt lat="29.337192" lon="105.303155"><ele>372.84</ele><time>2026-05-05T20:21:31.000Z</time></trkpt>
        <trkpt lat="29.337242" lon="105.303185"><ele>371.7621</ele><time>2026-05-05T20:21:34.000Z</time></trkpt>
        <trkpt lat="29.337292" lon="105.303206"><ele>372.24646</ele><time>2026-05-05T20:21:37.000Z</time></trkpt>
        <trkpt lat="29.337328" lon="105.30325"><ele>371.35947</ele><time>2026-05-05T20:21:41.000Z</time></trkpt>
        <trkpt lat="29.337359" lon="105.303293"><ele>371.78363</ele><time>2026-05-05T20:21:45.000Z</time></trkpt>
        <trkpt lat="29.3374" lon="105.303327"><ele>371.4184</ele><time>2026-05-05T20:21:50.000Z</time></trkpt>
        <trkpt lat="29.337428" lon="105.303374"><ele>370.7625</ele><time>2026-05-05T20:21:55.000Z</time></trkpt>
        <trkpt lat="29.337453" lon="105.303424"><ele>371.86145</ele><time>2026-05-05T20:22:00.000Z</time></trkpt>
        <trkpt lat="29.337481" lon="105.303479"><ele>371.65933</ele><time>2026-05-05T20:22:04.000Z</time></trkpt>
        <trkpt lat="29.337521" lon="105.303523"><ele>371.4641</ele><time>2026-05-05T20:22:08.000Z</time></trkpt>
        <trkpt lat="29.337563" lon="105.303572"><ele>372.3054</ele><time>2026-05-05T20:22:12.000Z</time></trkpt>
        <trkpt lat="29.337593" lon="105.303629"><ele>371.91934</ele><time>2026-05-05T20:22:16.000Z</time></trkpt>
        <trkpt lat="29.337621" lon="105.303687"><ele>371.84583</ele><time>2026-05-05T20:22:20.000Z</time></trkpt>
        <trkpt lat="29.337648" lon="105.303732"><ele>372.20627</ele><time>2026-05-05T20:22:23.000Z</time></trkpt>
        <trkpt lat="29.337688" lon="105.303782"><ele>372.19577</ele><time>2026-05-05T20:22:27.000Z</time></trkpt>
        <trkpt lat="29.33772" lon="105.303822"><ele>371.70932</ele><time>2026-05-05T20:22:30.000Z</time></trkpt>
        <trkpt lat="29.337746" lon="105.303873"><ele>371.3611</ele><time>2026-05-05T20:22:34.000Z</time></trkpt>
        <trkpt lat="29.337778" lon="105.303916"><ele>371.49243</ele><time>2026-05-05T20:22:41.000Z</time></trkpt>
        <trkpt lat="29.33782" lon="105.303878"><ele>371.08218</ele><time>2026-05-05T20:24:04.000Z</time></trkpt>
        <trkpt lat="29.337857" lon="105.303836"><ele>370.79904</ele><time>2026-05-05T20:24:09.000Z</time></trkpt>
        <trkpt lat="29.337893" lon="105.303794"><ele>371.20602</ele><time>2026-05-05T20:24:13.000Z</time></trkpt>
        <trkpt lat="29.337938" lon="105.303752"><ele>371.7114</ele><time>2026-05-05T20:24:17.000Z</time></trkpt>
        <trkpt lat="29.337971" lon="105.303715"><ele>371.46713</ele><time>2026-05-05T20:24:20.000Z</time></trkpt>
        <trkpt lat="29.337965" lon="105.303662"><ele>371.96063</ele><time>2026-05-05T20:24:23.000Z</time></trkpt>
        <trkpt lat="29.337953" lon="105.30361"><ele>372.539</ele><time>2026-05-05T20:24:26.000Z</time></trkpt>
        <trkpt lat="29.337952" lon="105.303556"><ele>371.99835</ele><time>2026-05-05T20:24:31.000Z</time></trkpt>
        <trkpt lat="29.337928" lon="105.303508"><ele>371.86575</ele><time>2026-05-05T20:24:35.000Z</time></trkpt>
        <trkpt lat="29.337913" lon="105.303452"><ele>372.408</ele><time>2026-05-05T20:24:39.000Z</time></trkpt>
        <trkpt lat="29.337868" lon="105.303441"><ele>372.38098</ele><time>2026-05-05T20:25:19.000Z</time></trkpt>
        <trkpt lat="29.3379" lon="105.303478"><ele>373.4321</ele><time>2026-05-05T20:31:05.000Z</time></trkpt>
        <trkpt lat="29.337856" lon="105.303462"><ele>372.75317</ele><time>2026-05-05T20:31:14.000Z</time></trkpt>
        <trkpt lat="29.337906" lon="105.303457"><ele>371.5539</ele><time>2026-05-05T20:31:30.000Z</time></trkpt>
        <trkpt lat="29.337856" lon="105.303478"><ele>372.84973</ele><time>2026-05-05T20:31:47.000Z</time></trkpt>
        <trkpt lat="29.337806" lon="105.303461"><ele>372.77686</ele><time>2026-05-05T20:31:51.000Z</time></trkpt>
        <trkpt lat="29.337855" lon="105.303454"><ele>372.23596</ele><time>2026-05-05T20:32:10.000Z</time></trkpt>
        <trkpt lat="29.337806" lon="105.303458"><ele>372.33282</ele><time>2026-05-05T20:32:51.000Z</time></trkpt>
        <trkpt lat="29.337761" lon="105.303435"><ele>372.47568</ele><time>2026-05-05T20:32:53.000Z</time></trkpt>
        <trkpt lat="29.337713" lon="105.303411"><ele>372.6017</ele><time>2026-05-05T20:32:55.000Z</time></trkpt>
        <trkpt lat="29.337631" lon="105.303358"><ele>373.0434</ele><time>2026-05-05T20:32:57.000Z</time></trkpt>
        <trkpt lat="29.337596" lon="105.30332"><ele>373.56546</ele><time>2026-05-05T20:32:58.000Z</time></trkpt>
        <trkpt lat="29.337544" lon="105.303213"><ele>373.2548</ele><time>2026-05-05T20:33:00.000Z</time></trkpt>
        <trkpt lat="29.337504" lon="105.303152"><ele>373.4458</ele><time>2026-05-05T20:33:01.000Z</time></trkpt>
        <trkpt lat="29.337461" lon="105.303092"><ele>373.21097</ele><time>2026-05-05T20:33:02.000Z</time></trkpt>
        <trkpt lat="29.337416" lon="105.303026"><ele>372.71002</ele><time>2026-05-05T20:33:03.000Z</time></trkpt>
        <trkpt lat="29.337367" lon="105.302955"><ele>372.85168</ele><time>2026-05-05T20:33:04.000Z</time></trkpt>
        <trkpt lat="29.337322" lon="105.302886"><ele>372.68268</ele><time>2026-05-05T20:33:05.000Z</time></trkpt>
        <trkpt lat="29.337269" lon="105.302821"><ele>372.81796</ele><time>2026-05-05T20:33:06.000Z</time></trkpt>
        <trkpt lat="29.337213" lon="105.30275"><ele>373.0015</ele><time>2026-05-05T20:33:07.000Z</time></trkpt>
        <trkpt lat="29.33716" lon="105.30267"><ele>372.5351</ele><time>2026-05-05T20:33:08.000Z</time></trkpt>
        <trkpt lat="29.337108" lon="105.302587"><ele>372.8678</ele><time>2026-05-05T20:33:09.000Z</time></trkpt>
        <trkpt lat="29.337056" lon="105.302503"><ele>373.35843</ele><time>2026-05-05T20:33:10.000Z</time></trkpt>
        <trkpt lat="29.337001" lon="105.302419"><ele>373.3401</ele><time>2026-05-05T20:33:11.000Z</time></trkpt>
        <trkpt lat="29.336946" lon="105.302336"><ele>372.88187</ele><time>2026-05-05T20:33:12.000Z</time></trkpt>
        <trkpt lat="29.336887" lon="105.302249"><ele>373.13803</ele><time>2026-05-05T20:33:13.000Z</time></trkpt>
        <trkpt lat="29.336831" lon="105.302165"><ele>372.49802</ele><time>2026-05-05T20:33:14.000Z</time></trkpt>
        <trkpt lat="29.336771" lon="105.302074"><ele>372.10706</ele><time>2026-05-05T20:33:15.000Z</time></trkpt>
        <trkpt lat="29.336716" lon="105.301989"><ele>372.14117</ele><time>2026-05-05T20:33:16.000Z</time></trkpt>
        <trkpt lat="29.336659" lon="105.301906"><ele>372.1638</ele><time>2026-05-05T20:33:17.000Z</time></trkpt>
        <trkpt lat="29.336603" lon="105.30182"><ele>372.2676</ele><time>2026-05-05T20:33:18.000Z</time></trkpt>
        <trkpt lat="29.336548" lon="105.301738"><ele>372.2503</ele><time>2026-05-05T20:33:19.000Z</time></trkpt>
        <trkpt lat="29.336494" lon="105.301658"><ele>372.4225</ele><time>2026-05-05T20:33:20.000Z</time></trkpt>
        <trkpt lat="29.336445" lon="105.301584"><ele>372.30533</ele><time>2026-05-05T20:33:21.000Z</time></trkpt>
        <trkpt lat="29.336405" lon="105.301522"><ele>372.72763</ele><time>2026-05-05T20:33:22.000Z</time></trkpt>
        <trkpt lat="29.336372" lon="105.301472"><ele>372.73618</ele><time>2026-05-05T20:33:23.000Z</time></trkpt>
        <trkpt lat="29.336343" lon="105.301429"><ele>373.01175</ele><time>2026-05-05T20:33:24.000Z</time></trkpt>
        <trkpt lat="29.336312" lon="105.301382"><ele>373.43512</ele><time>2026-05-05T20:33:25.000Z</time></trkpt>
        <trkpt lat="29.336281" lon="105.301328"><ele>373.52747</ele><time>2026-05-05T20:33:26.000Z</time></trkpt>
        <trkpt lat="29.336249" lon="105.301264"><ele>373.64386</ele><time>2026-05-05T20:33:27.000Z</time></trkpt>
        <trkpt lat="29.336222" lon="105.301195"><ele>373.73215</ele><time>2026-05-05T20:33:28.000Z</time></trkpt>
        <trkpt lat="29.336197" lon="105.301119"><ele>373.64062</ele><time>2026-05-05T20:33:29.000Z</time></trkpt>
        <trkpt lat="29.336174" lon="105.30104"><ele>373.76428</ele><time>2026-05-05T20:33:30.000Z</time></trkpt>
        <trkpt lat="29.336156" lon="105.300956"><ele>373.83322</ele><time>2026-05-05T20:33:31.000Z</time></trkpt>
        <trkpt lat="29.336138" lon="105.300871"><ele>373.79</ele><time>2026-05-05T20:33:32.000Z</time></trkpt>
        <trkpt lat="29.336124" lon="105.300784"><ele>373.72104</ele><time>2026-05-05T20:33:33.000Z</time></trkpt>
        <trkpt lat="29.336115" lon="105.300694"><ele>373.90375</ele><time>2026-05-05T20:33:34.000Z</time></trkpt>
        <trkpt lat="29.336114" lon="105.300599"><ele>374.0458</ele><time>2026-05-05T20:33:35.000Z</time></trkpt>
        <trkpt lat="29.33612" lon="105.300503"><ele>374.13492</ele><time>2026-05-05T20:33:36.000Z</time></trkpt>
        <trkpt lat="29.336134" lon="105.300405"><ele>374.15173</ele><time>2026-05-05T20:33:37.000Z</time></trkpt>
        <trkpt lat="29.336152" lon="105.300309"><ele>374.00766</ele><time>2026-05-05T20:33:38.000Z</time></trkpt>
        <trkpt lat="29.336171" lon="105.300212"><ele>374.0318</ele><time>2026-05-05T20:33:39.000Z</time></trkpt>
        <trkpt lat="29.336192" lon="105.300114"><ele>374.0341</ele><time>2026-05-05T20:33:40.000Z</time></trkpt>
        <trkpt lat="29.336214" lon="105.300027"><ele>373.86856</ele><time>2026-05-05T20:33:41.000Z</time></trkpt>
        <trkpt lat="29.336233" lon="105.299948"><ele>373.84494</ele><time>2026-05-05T20:33:42.000Z</time></trkpt>
        <trkpt lat="29.336252" lon="105.299861"><ele>373.76007</ele><time>2026-05-05T20:33:43.000Z</time></trkpt>
        <trkpt lat="29.336274" lon="105.299766"><ele>373.53302</ele><time>2026-05-05T20:33:44.000Z</time></trkpt>
        <trkpt lat="29.336294" lon="105.299669"><ele>373.41888</ele><time>2026-05-05T20:33:45.000Z</time></trkpt>
        <trkpt lat="29.336316" lon="105.299563"><ele>373.33255</ele><time>2026-05-05T20:33:46.000Z</time></trkpt>
        <trkpt lat="29.336333" lon="105.299457"><ele>373.25476</ele><time>2026-05-05T20:33:47.000Z</time></trkpt>
        <trkpt lat="29.336352" lon="105.299359"><ele>373.26297</ele><time>2026-05-05T20:33:48.000Z</time></trkpt>
        <trkpt lat="29.336371" lon="105.299266"><ele>373.11246</ele><time>2026-05-05T20:33:49.000Z</time></trkpt>
        <trkpt lat="29.336389" lon="105.29918"><ele>373.03616</ele><time>2026-05-05T20:33:50.000Z</time></trkpt>
        <trkpt lat="29.336409" lon="105.299104"><ele>373.0176</ele><time>2026-05-05T20:33:51.000Z</time></trkpt>
        <trkpt lat="29.336426" lon="105.299039"><ele>372.8874</ele><time>2026-05-05T20:33:52.000Z</time></trkpt>
        <trkpt lat="29.336436" lon="105.298985"><ele>372.69073</ele><time>2026-05-05T20:33:53.000Z</time></trkpt>
        <trkpt lat="29.336417" lon="105.298901"><ele>372.817</ele><time>2026-05-05T20:33:55.000Z</time></trkpt>
        <trkpt lat="29.336313" lon="105.298828"><ele>373.00046</ele><time>2026-05-05T20:33:58.000Z</time></trkpt>
        <trkpt lat="29.336309" lon="105.299005"><ele>373.22464</ele><time>2026-05-05T20:33:59.000Z</time></trkpt>
        <trkpt lat="29.336324" lon="105.299073"><ele>373.26505</ele><time>2026-05-05T20:34:00.000Z</time></trkpt>
        <trkpt lat="29.336326" lon="105.299146"><ele>373.23438</ele><time>2026-05-05T20:34:01.000Z</time></trkpt>
        <trkpt lat="29.33631" lon="105.299231"><ele>373.3778</ele><time>2026-05-05T20:34:02.000Z</time></trkpt>
        <trkpt lat="29.336291" lon="105.29932"><ele>373.59756</ele><time>2026-05-05T20:34:03.000Z</time></trkpt>
        <trkpt lat="29.33627" lon="105.29942"><ele>373.76575</ele><time>2026-05-05T20:34:04.000Z</time></trkpt>
        <trkpt lat="29.336247" lon="105.29953"><ele>373.85794</ele><time>2026-05-05T20:34:05.000Z</time></trkpt>
        <trkpt lat="29.336226" lon="105.299647"><ele>373.90936</ele><time>2026-05-05T20:34:06.000Z</time></trkpt>
        <trkpt lat="29.3362" lon="105.299772"><ele>373.9319</ele><time>2026-05-05T20:34:07.000Z</time></trkpt>
        <trkpt lat="29.336175" lon="105.2999"><ele>373.99045</ele><time>2026-05-05T20:34:08.000Z</time></trkpt>
        <trkpt lat="29.33615" lon="105.300031"><ele>374.0613</ele><time>2026-05-05T20:34:09.000Z</time></trkpt>
        <trkpt lat="29.336125" lon="105.300159"><ele>374.30002</ele><time>2026-05-05T20:34:10.000Z</time></trkpt>
        <trkpt lat="29.336099" lon="105.300281"><ele>374.3691</ele><time>2026-05-05T20:34:11.000Z</time></trkpt>
        <trkpt lat="29.336078" lon="105.30039"><ele>374.47473</ele><time>2026-05-05T20:34:12.000Z</time></trkpt>
        <trkpt lat="29.336061" lon="105.300487"><ele>374.48657</ele><time>2026-05-05T20:34:13.000Z</time></trkpt>
        <trkpt lat="29.336044" lon="105.300577"><ele>374.5395</ele><time>2026-05-05T20:34:14.000Z</time></trkpt>
        <trkpt lat="29.33602" lon="105.300647"><ele>374.6438</ele><time>2026-05-05T20:34:15.000Z</time></trkpt>
        <trkpt lat="29.336001" lon="105.300696"><ele>374.78012</ele><time>2026-05-05T20:34:16.000Z</time></trkpt>
        <trkpt lat="29.335942" lon="105.300731"><ele>374.9199</ele><time>2026-05-05T20:34:17.000Z</time></trkpt>
        <trkpt lat="29.335891" lon="105.300762"><ele>375.22842</ele><time>2026-05-05T20:34:18.000Z</time></trkpt>
        <trkpt lat="29.33583" lon="105.300787"><ele>375.59723</ele><time>2026-05-05T20:34:19.000Z</time></trkpt>
        <trkpt lat="29.335772" lon="105.300804"><ele>375.8428</ele><time>2026-05-05T20:34:20.000Z</time></trkpt>
        <trkpt lat="29.335717" lon="105.300818"><ele>375.98325</ele><time>2026-05-05T20:34:21.000Z</time></trkpt>
        <trkpt lat="29.335652" lon="105.30083"><ele>376.19925</ele><time>2026-05-05T20:34:22.000Z</time></trkpt>
        <trkpt lat="29.335589" lon="105.300865"><ele>376.66367</ele><time>2026-05-05T20:34:23.000Z</time></trkpt>
        <trkpt lat="29.335494" lon="105.300822"><ele>376.78024</ele><time>2026-05-05T20:34:24.000Z</time></trkpt>
        <trkpt lat="29.335403" lon="105.300806"><ele>376.91034</ele><time>2026-05-05T20:34:25.000Z</time></trkpt>
        <trkpt lat="29.335307" lon="105.300779"><ele>377.0281</ele><time>2026-05-05T20:34:26.000Z</time></trkpt>
        <trkpt lat="29.335206" lon="105.30075"><ele>377.14783</ele><time>2026-05-05T20:34:27.000Z</time></trkpt>
        <trkpt lat="29.335098" lon="105.300718"><ele>377.25043</ele><time>2026-05-05T20:34:28.000Z</time></trkpt>
        <trkpt lat="29.33499" lon="105.300685"><ele>377.36014</ele><time>2026-05-05T20:34:29.000Z</time></trkpt>
        <trkpt lat="29.334875" lon="105.300654"><ele>377.6078</ele><time>2026-05-05T20:34:30.000Z</time></trkpt>
        <trkpt lat="29.334762" lon="105.300623"><ele>377.6511</ele><time>2026-05-05T20:34:31.000Z</time></trkpt>
        <trkpt lat="29.334648" lon="105.300589"><ele>377.7136</ele><time>2026-05-05T20:34:32.000Z</time></trkpt>
        <trkpt lat="29.334534" lon="105.300558"><ele>377.84006</ele><time>2026-05-05T20:34:33.000Z</time></trkpt>
        <trkpt lat="29.334431" lon="105.300528"><ele>377.8249</ele><time>2026-05-05T20:34:34.000Z</time></trkpt>
        <trkpt lat="29.334353" lon="105.300509"><ele>377.98242</ele><time>2026-05-05T20:34:35.000Z</time></trkpt>
        <trkpt lat="29.334292" lon="105.300499"><ele>378.0424</ele><time>2026-05-05T20:34:36.000Z</time></trkpt>
        <trkpt lat="29.334233" lon="105.300488"><ele>378.27072</ele><time>2026-05-05T20:34:37.000Z</time></trkpt>
        <trkpt lat="29.334168" lon="105.300476"><ele>378.4391</ele><time>2026-05-05T20:34:38.000Z</time></trkpt>
        <trkpt lat="29.334093" lon="105.30046"><ele>378.50916</ele><time>2026-05-05T20:34:39.000Z</time></trkpt>
        <trkpt lat="29.33401" lon="105.300438"><ele>378.56174</ele><time>2026-05-05T20:34:40.000Z</time></trkpt>
        <trkpt lat="29.333924" lon="105.300412"><ele>378.57877</ele><time>2026-05-05T20:34:41.000Z</time></trkpt>
        <trkpt lat="29.333837" lon="105.300384"><ele>378.6821</ele><time>2026-05-05T20:34:42.000Z</time></trkpt>
        <trkpt lat="29.333751" lon="105.300352"><ele>378.7255</ele><time>2026-05-05T20:34:43.000Z</time></trkpt>
        <trkpt lat="29.33367" lon="105.300317"><ele>378.74097</ele><time>2026-05-05T20:34:44.000Z</time></trkpt>
        <trkpt lat="29.333589" lon="105.300276"><ele>378.81622</ele><time>2026-05-05T20:34:45.000Z</time></trkpt>
        <trkpt lat="29.333514" lon="105.300233"><ele>378.93176</ele><time>2026-05-05T20:34:46.000Z</time></trkpt>
        <trkpt lat="29.333444" lon="105.300186"><ele>378.84244</ele><time>2026-05-05T20:34:47.000Z</time></trkpt>
        <trkpt lat="29.333372" lon="105.30013"><ele>378.75284</ele><time>2026-05-05T20:34:48.000Z</time></trkpt>
        <trkpt lat="29.333303" lon="105.300065"><ele>378.70563</ele><time>2026-05-05T20:34:49.000Z</time></trkpt>
        <trkpt lat="29.333237" lon="105.299988"><ele>378.64975</ele><time>2026-05-05T20:34:50.000Z</time></trkpt>
        <trkpt lat="29.333175" lon="105.299911"><ele>378.5488</ele><time>2026-05-05T20:34:51.000Z</time></trkpt>
        <trkpt lat="29.333119" lon="105.299832"><ele>378.4551</ele><time>2026-05-05T20:34:52.000Z</time></trkpt>
        <trkpt lat="29.333072" lon="105.299749"><ele>378.3169</ele><time>2026-05-05T20:34:53.000Z</time></trkpt>
        <trkpt lat="29.333033" lon="105.299673"><ele>378.03177</ele><time>2026-05-05T20:34:54.000Z</time></trkpt>
        <trkpt lat="29.333007" lon="105.299607"><ele>377.7059</ele><time>2026-05-05T20:34:55.000Z</time></trkpt>
        <trkpt lat="29.33297" lon="105.299538"><ele>377.61404</ele><time>2026-05-05T20:34:57.000Z</time></trkpt>
        <trkpt lat="29.332902" lon="105.299527"><ele>377.8778</ele><time>2026-05-05T20:34:59.000Z</time></trkpt>
        <trkpt lat="29.332854" lon="105.299511"><ele>378.302</ele><time>2026-05-05T20:35:01.000Z</time></trkpt>
        <trkpt lat="29.332924" lon="105.299645"><ele>378.04562</ele><time>2026-05-05T20:35:02.000Z</time></trkpt>
        <trkpt lat="29.332907" lon="105.299711"><ele>378.0162</ele><time>2026-05-05T20:35:03.000Z</time></trkpt>
        <trkpt lat="29.332938" lon="105.299755"><ele>378.26328</ele><time>2026-05-05T20:35:04.000Z</time></trkpt>
        <trkpt lat="29.332967" lon="105.299801"><ele>378.5932</ele><time>2026-05-05T20:35:05.000Z</time></trkpt>
        <trkpt lat="29.332994" lon="105.299847"><ele>378.55383</ele><time>2026-05-05T20:35:06.000Z</time></trkpt>
        <trkpt lat="29.333023" lon="105.299895"><ele>378.61246</ele><time>2026-05-05T20:35:07.000Z</time></trkpt>
        <trkpt lat="29.333054" lon="105.299945"><ele>378.48807</ele><time>2026-05-05T20:35:08.000Z</time></trkpt>
        <trkpt lat="29.333086" lon="105.299991"><ele>378.50272</ele><time>2026-05-05T20:35:09.000Z</time></trkpt>
        <trkpt lat="29.333113" lon="105.300033"><ele>378.44818</ele><time>2026-05-05T20:35:10.000Z</time></trkpt>
        <trkpt lat="29.333161" lon="105.300106"><ele>378.5354</ele><time>2026-05-05T20:35:12.000Z</time></trkpt>
        <trkpt lat="29.333205" lon="105.300165"><ele>378.40823</ele><time>2026-05-05T20:35:14.000Z</time></trkpt>
        <trkpt lat="29.333186" lon="105.300223"><ele>376.9587</ele><time>2026-05-05T20:35:35.000Z</time></trkpt>
        <trkpt lat="29.333222" lon="105.300255"><ele>376.72748</ele><time>2026-05-05T20:35:39.000Z</time></trkpt>
        <trkpt lat="29.333261" lon="105.300292"><ele>377.12772</ele><time>2026-05-05T20:35:43.000Z</time></trkpt>
        <trkpt lat="29.333303" lon="105.300324"><ele>377.2123</ele><time>2026-05-05T20:35:47.000Z</time></trkpt>
        <trkpt lat="29.333349" lon="105.300357"><ele>377.0479</ele><time>2026-05-05T20:35:51.000Z</time></trkpt>
        <trkpt lat="29.333389" lon="105.300389"><ele>377.31305</ele><time>2026-05-05T20:35:55.000Z</time></trkpt>
        <trkpt lat="29.33343" lon="105.300441"><ele>377.4058</ele><time>2026-05-05T20:36:04.000Z</time></trkpt>
        <trkpt lat="29.33348" lon="105.300477"><ele>376.97424</ele><time>2026-05-05T20:36:09.000Z</time></trkpt>
        <trkpt lat="29.333529" lon="105.300503"><ele>377.0245</ele><time>2026-05-05T20:36:13.000Z</time></trkpt>
        <trkpt lat="29.333577" lon="105.300515"><ele>376.583</ele><time>2026-05-05T20:36:17.000Z</time></trkpt>
        <trkpt lat="29.333627" lon="105.300517"><ele>376.35007</ele><time>2026-05-05T20:36:20.000Z</time></trkpt>
        <trkpt lat="29.333676" lon="105.300539"><ele>376.23346</ele><time>2026-05-05T20:36:24.000Z</time></trkpt>
        <trkpt lat="29.33371" lon="105.300576"><ele>376.00946</ele><time>2026-05-05T20:36:27.000Z</time></trkpt>
        <trkpt lat="29.333759" lon="105.300591"><ele>376.03946</ele><time>2026-05-05T20:36:31.000Z</time></trkpt>
        <trkpt lat="29.333806" lon="105.300605"><ele>377.0851</ele><time>2026-05-05T20:36:35.000Z</time></trkpt>
        <trkpt lat="29.333852" lon="105.300618"><ele>376.57867</ele><time>2026-05-05T20:36:39.000Z</time></trkpt>
        <trkpt lat="29.333804" lon="105.300621"><ele>377.92825</ele><time>2026-05-05T20:36:52.000Z</time></trkpt>
        <trkpt lat="29.333753" lon="105.300606"><ele>378.0041</ele><time>2026-05-05T20:36:57.000Z</time></trkpt>
        <trkpt lat="29.333701" lon="105.300598"><ele>377.56256</ele><time>2026-05-05T20:37:01.000Z</time></trkpt>
        <trkpt lat="29.333655" lon="105.300607"><ele>376.95636</ele><time>2026-05-05T20:37:05.000Z</time></trkpt>
        <trkpt lat="29.333603" lon="105.300622"><ele>376.89215</ele><time>2026-05-05T20:37:10.000Z</time></trkpt>
        <trkpt lat="29.333553" lon="105.300633"><ele>376.3092</ele><time>2026-05-05T20:37:37.000Z</time></trkpt>
        <trkpt lat="29.333527" lon="105.300678"><ele>375.37817</ele><time>2026-05-05T20:37:41.000Z</time></trkpt>
        <trkpt lat="29.33355" lon="105.300627"><ele>375.75146</ele><time>2026-05-05T20:38:00.000Z</time></trkpt>
        <trkpt lat="29.333584" lon="105.30058"><ele>375.86188</ele><time>2026-05-05T20:38:05.000Z</time></trkpt>
        <trkpt lat="29.333582" lon="105.300529"><ele>375.27347</ele><time>2026-05-05T20:38:10.000Z</time></trkpt>
        <trkpt lat="29.333543" lon="105.300502"><ele>375.71268</ele><time>2026-05-05T20:38:14.000Z</time></trkpt>
        <trkpt lat="29.333518" lon="105.300453"><ele>375.98575</ele><time>2026-05-05T20:38:21.000Z</time></trkpt>
        <trkpt lat="29.333469" lon="105.300455"><ele>377.33624</ele><time>2026-05-05T20:38:39.000Z</time></trkpt>
        <trkpt lat="29.333443" lon="105.300409"><ele>378.51398</ele><time>2026-05-05T20:38:42.000Z</time></trkpt>
        <trkpt lat="29.333394" lon="105.300387"><ele>377.55518</ele><time>2026-05-05T20:38:47.000Z</time></trkpt>
        <trkpt lat="29.33335" lon="105.300372"><ele>376.46103</ele><time>2026-05-05T20:38:50.000Z</time></trkpt>
        <trkpt lat="29.333313" lon="105.300342"><ele>376.8548</ele><time>2026-05-05T20:38:53.000Z</time></trkpt>
        <trkpt lat="29.333276" lon="105.30031"><ele>376.7058</ele><time>2026-05-05T20:38:56.000Z</time></trkpt>
        <trkpt lat="29.333232" lon="105.300274"><ele>377.31314</ele><time>2026-05-05T20:39:00.000Z</time></trkpt>
        <trkpt lat="29.333193" lon="105.300239"><ele>376.79462</ele><time>2026-05-05T20:39:04.000Z</time></trkpt>
        <trkpt lat="29.33322" lon="105.300195"><ele>377.586</ele><time>2026-05-05T20:39:10.000Z</time></trkpt>
        <trkpt lat="29.333264" lon="105.300227"><ele>374.74658</ele><time>2026-05-05T20:40:56.000Z</time></trkpt>
        <trkpt lat="29.333314" lon="105.300266"><ele>374.9743</ele><time>2026-05-05T20:40:57.000Z</time></trkpt>
        <trkpt lat="29.333362" lon="105.300308"><ele>374.37375</ele><time>2026-05-05T20:40:58.000Z</time></trkpt>
        <trkpt lat="29.333418" lon="105.300349"><ele>374.68735</ele><time>2026-05-05T20:40:59.000Z</time></trkpt>
        <trkpt lat="29.333474" lon="105.30038"><ele>375.14157</ele><time>2026-05-05T20:41:00.000Z</time></trkpt>
        <trkpt lat="29.333537" lon="105.300416"><ele>375.0846</ele><time>2026-05-05T20:41:01.000Z</time></trkpt>
        <trkpt lat="29.3336" lon="105.300452"><ele>374.8756</ele><time>2026-05-05T20:41:02.000Z</time></trkpt>
        <trkpt lat="29.333663" lon="105.300481"><ele>375.28183</ele><time>2026-05-05T20:41:03.000Z</time></trkpt>
        <trkpt lat="29.33373" lon="105.300509"><ele>375.07236</ele><time>2026-05-05T20:41:04.000Z</time></trkpt>
        <trkpt lat="29.33379" lon="105.300529"><ele>375.1768</ele><time>2026-05-05T20:41:05.000Z</time></trkpt>
        <trkpt lat="29.333847" lon="105.300544"><ele>375.52438</ele><time>2026-05-05T20:41:06.000Z</time></trkpt>
        <trkpt lat="29.3339" lon="105.300557"><ele>375.64297</ele><time>2026-05-05T20:41:07.000Z</time></trkpt>
        <trkpt lat="29.333966" lon="105.30055"><ele>375.52628</ele><time>2026-05-05T20:41:09.000Z</time></trkpt>
        <trkpt lat="29.334021" lon="105.300518"><ele>375.09918</ele><time>2026-05-05T20:41:12.000Z</time></trkpt>
        <trkpt lat="29.334073" lon="105.300523"><ele>376.0853</ele><time>2026-05-05T20:41:14.000Z</time></trkpt>
        <trkpt lat="29.334111" lon="105.300552"><ele>377.10297</ele><time>2026-05-05T20:41:20.000Z</time></trkpt>
        <trkpt lat="29.334187" lon="105.300451"><ele>377.51886</ele><time>2026-05-05T20:41:23.000Z</time></trkpt>
        <trkpt lat="29.334051" lon="105.3004"><ele>377.5373</ele><time>2026-05-05T20:41:25.000Z</time></trkpt>
        <trkpt lat="29.333965" lon="105.300396"><ele>377.3602</ele><time>2026-05-05T20:41:27.000Z</time></trkpt>
        <trkpt lat="29.333905" lon="105.300385"><ele>377.44696</ele><time>2026-05-05T20:41:28.000Z</time></trkpt>
        <trkpt lat="29.333838" lon="105.300364"><ele>377.6606</ele><time>2026-05-05T20:41:29.000Z</time></trkpt>
        <trkpt lat="29.333766" lon="105.300335"><ele>377.71915</ele><time>2026-05-05T20:41:30.000Z</time></trkpt>
        <trkpt lat="29.333689" lon="105.300302"><ele>377.97903</ele><time>2026-05-05T20:41:31.000Z</time></trkpt>
        <trkpt lat="29.333612" lon="105.300263"><ele>378.00705</ele><time>2026-05-05T20:41:32.000Z</time></trkpt>
        <trkpt lat="29.33353" lon="105.300211"><ele>377.9777</ele><time>2026-05-05T20:41:33.000Z</time></trkpt>
        <trkpt lat="29.333446" lon="105.30015"><ele>378.06046</ele><time>2026-05-05T20:41:34.000Z</time></trkpt>
        <trkpt lat="29.33336" lon="105.300076"><ele>378.00012</ele><time>2026-05-05T20:41:35.000Z</time></trkpt>
        <trkpt lat="29.333279" lon="105.299992"><ele>377.9522</ele><time>2026-05-05T20:41:36.000Z</time></trkpt>
        <trkpt lat="29.333204" lon="105.299903"><ele>378.0832</ele><time>2026-05-05T20:41:37.000Z</time></trkpt>
        <trkpt lat="29.333139" lon="105.299809"><ele>377.99295</ele><time>2026-05-05T20:41:38.000Z</time></trkpt>
        <trkpt lat="29.33308" lon="105.299708"><ele>377.84683</ele><time>2026-05-05T20:41:39.000Z</time></trkpt>
        <trkpt lat="29.33303" lon="105.299606"><ele>377.7507</ele><time>2026-05-05T20:41:40.000Z</time></trkpt>
        <trkpt lat="29.332987" lon="105.299499"><ele>378.19177</ele><time>2026-05-05T20:41:41.000Z</time></trkpt>
        <trkpt lat="29.332954" lon="105.299391"><ele>377.86484</ele><time>2026-05-05T20:41:42.000Z</time></trkpt>
        <trkpt lat="29.33293" lon="105.299278"><ele>377.58698</ele><time>2026-05-05T20:41:43.000Z</time></trkpt>
        <trkpt lat="29.332915" lon="105.299164"><ele>377.39487</ele><time>2026-05-05T20:41:44.000Z</time></trkpt>
        <trkpt lat="29.332905" lon="105.299048"><ele>377.12213</ele><time>2026-05-05T20:41:45.000Z</time></trkpt>
        <trkpt lat="29.332902" lon="105.298928"><ele>376.9548</ele><time>2026-05-05T20:41:46.000Z</time></trkpt>
        <trkpt lat="29.332904" lon="105.298816"><ele>376.90494</ele><time>2026-05-05T20:41:47.000Z</time></trkpt>
        <trkpt lat="29.332909" lon="105.298694"><ele>376.5707</ele><time>2026-05-05T20:41:48.000Z</time></trkpt>
        <trkpt lat="29.332916" lon="105.298566"><ele>376.32745</ele><time>2026-05-05T20:41:49.000Z</time></trkpt>
        <trkpt lat="29.332921" lon="105.298437"><ele>376.093</ele><time>2026-05-05T20:41:50.000Z</time></trkpt>
        <trkpt lat="29.332925" lon="105.298303"><ele>375.68665</ele><time>2026-05-05T20:41:51.000Z</time></trkpt>
        <trkpt lat="29.332928" lon="105.298172"><ele>375.3523</ele><time>2026-05-05T20:41:52.000Z</time></trkpt>
        <trkpt lat="29.332934" lon="105.298044"><ele>375.10507</ele><time>2026-05-05T20:41:53.000Z</time></trkpt>
        <trkpt lat="29.33294" lon="105.297928"><ele>374.87717</ele><time>2026-05-05T20:41:54.000Z</time></trkpt>
        <trkpt lat="29.332946" lon="105.297809"><ele>374.73828</ele><time>2026-05-05T20:41:55.000Z</time></trkpt>
        <trkpt lat="29.332949" lon="105.297689"><ele>374.52954</ele><time>2026-05-05T20:41:56.000Z</time></trkpt>
        <trkpt lat="29.332954" lon="105.297569"><ele>374.2962</ele><time>2026-05-05T20:41:57.000Z</time></trkpt>
        <trkpt lat="29.332957" lon="105.29745"><ele>374.0729</ele><time>2026-05-05T20:41:58.000Z</time></trkpt>
        <trkpt lat="29.332961" lon="105.29733"><ele>373.94614</ele><time>2026-05-05T20:41:59.000Z</time></trkpt>
        <trkpt lat="29.332964" lon="105.297211"><ele>373.45438</ele><time>2026-05-05T20:42:00.000Z</time></trkpt>
        <trkpt lat="29.332969" lon="105.297096"><ele>372.83218</ele><time>2026-05-05T20:42:01.000Z</time></trkpt>
        <trkpt lat="29.332975" lon="105.296979"><ele>372.70782</ele><time>2026-05-05T20:42:02.000Z</time></trkpt>
        <trkpt lat="29.332981" lon="105.296863"><ele>372.75336</ele><time>2026-05-05T20:42:03.000Z</time></trkpt>
        <trkpt lat="29.332987" lon="105.296747"><ele>372.37817</ele><time>2026-05-05T20:42:04.000Z</time></trkpt>
        <trkpt lat="29.332995" lon="105.296627"><ele>372.3249</ele><time>2026-05-05T20:42:05.000Z</time></trkpt>
        <trkpt lat="29.333001" lon="105.296504"><ele>371.9272</ele><time>2026-05-05T20:42:06.000Z</time></trkpt>
        <trkpt lat="29.333004" lon="105.29638"><ele>371.81458</ele><time>2026-05-05T20:42:07.000Z</time></trkpt>
        <trkpt lat="29.333007" lon="105.29625"><ele>371.7206</ele><time>2026-05-05T20:42:08.000Z</time></trkpt>
        <trkpt lat="29.333013" lon="105.296116"><ele>371.66132</ele><time>2026-05-05T20:42:09.000Z</time></trkpt>
        <trkpt lat="29.333019" lon="105.295983"><ele>371.74203</ele><time>2026-05-05T20:42:10.000Z</time></trkpt>
        <trkpt lat="29.333028" lon="105.295861"><ele>371.87888</ele><time>2026-05-05T20:42:11.000Z</time></trkpt>
        <trkpt lat="29.333032" lon="105.295736"><ele>372.13873</ele><time>2026-05-05T20:42:12.000Z</time></trkpt>
        <trkpt lat="29.333033" lon="105.295616"><ele>372.3714</ele><time>2026-05-05T20:42:13.000Z</time></trkpt>
        <trkpt lat="29.333039" lon="105.295498"><ele>372.65353</ele><time>2026-05-05T20:42:14.000Z</time></trkpt>
        <trkpt lat="29.333044" lon="105.29538"><ele>372.99487</ele><time>2026-05-05T20:42:15.000Z</time></trkpt>
        <trkpt lat="29.333049" lon="105.295261"><ele>373.25998</ele><time>2026-05-05T20:42:16.000Z</time></trkpt>
        <trkpt lat="29.333056" lon="105.295142"><ele>373.64172</ele><time>2026-05-05T20:42:17.000Z</time></trkpt>
        <trkpt lat="29.33306" lon="105.295026"><ele>373.77106</ele><time>2026-05-05T20:42:18.000Z</time></trkpt>
        <trkpt lat="29.333066" lon="105.294916"><ele>374.1163</ele><time>2026-05-05T20:42:19.000Z</time></trkpt>
        <trkpt lat="29.333071" lon="105.294808"><ele>374.53046</ele><time>2026-05-05T20:42:20.000Z</time></trkpt>
        <trkpt lat="29.333074" lon="105.294706"><ele>374.91895</ele><time>2026-05-05T20:42:21.000Z</time></trkpt>
        <trkpt lat="29.333078" lon="105.294609"><ele>375.32724</ele><time>2026-05-05T20:42:22.000Z</time></trkpt>
        <trkpt lat="29.333082" lon="105.294516"><ele>375.44122</ele><time>2026-05-05T20:42:23.000Z</time></trkpt>
        <trkpt lat="29.333086" lon="105.294433"><ele>375.81824</ele><time>2026-05-05T20:42:24.000Z</time></trkpt>
        <trkpt lat="29.333089" lon="105.294355"><ele>375.87857</ele><time>2026-05-05T20:42:25.000Z</time></trkpt>
        <trkpt lat="29.333093" lon="105.294272"><ele>376.36948</ele><time>2026-05-05T20:42:26.000Z</time></trkpt>
        <trkpt lat="29.333096" lon="105.294177"><ele>376.43988</ele><time>2026-05-05T20:42:27.000Z</time></trkpt>
        <trkpt lat="29.3331" lon="105.294082"><ele>376.67377</ele><time>2026-05-05T20:42:28.000Z</time></trkpt>
        <trkpt lat="29.333103" lon="105.293992"><ele>376.88953</ele><time>2026-05-05T20:42:29.000Z</time></trkpt>
        <trkpt lat="29.333109" lon="105.293906"><ele>377.48758</ele><time>2026-05-05T20:42:30.000Z</time></trkpt>
        <trkpt lat="29.333122" lon="105.293831"><ele>377.45477</ele><time>2026-05-05T20:42:31.000Z</time></trkpt>
        <trkpt lat="29.333141" lon="105.29377"><ele>377.46027</ele><time>2026-05-05T20:42:32.000Z</time></trkpt>
        <trkpt lat="29.333168" lon="105.293715"><ele>377.6027</ele><time>2026-05-05T20:42:33.000Z</time></trkpt>
        <trkpt lat="29.333196" lon="105.293666"><ele>377.39917</ele><time>2026-05-05T20:42:34.000Z</time></trkpt>
        <trkpt lat="29.333224" lon="105.293618"><ele>377.4292</ele><time>2026-05-05T20:42:35.000Z</time></trkpt>
        <trkpt lat="29.333257" lon="105.293576"><ele>377.3996</ele><time>2026-05-05T20:42:36.000Z</time></trkpt>
        <trkpt lat="29.333171" lon="105.293524"><ele>376.82422</ele><time>2026-05-05T20:42:38.000Z</time></trkpt>
        <trkpt lat="29.33336" lon="105.293501"><ele>376.6805</ele><time>2026-05-05T20:42:39.000Z</time></trkpt>
        <trkpt lat="29.333414" lon="105.293493"><ele>376.67108</ele><time>2026-05-05T20:42:42.000Z</time></trkpt>
        <trkpt lat="29.333465" lon="105.293497"><ele>376.66666</ele><time>2026-05-05T20:42:44.000Z</time></trkpt>
        <trkpt lat="29.33351" lon="105.293491"><ele>378.2902</ele><time>2026-05-05T20:42:53.000Z</time></trkpt>
        <trkpt lat="29.333564" lon="105.29351"><ele>378.4016</ele><time>2026-05-05T20:43:00.000Z</time></trkpt>
        <trkpt lat="29.333611" lon="105.293513"><ele>378.32846</ele><time>2026-05-05T20:43:14.000Z</time></trkpt>
        <trkpt lat="29.333672" lon="105.293517"><ele>378.468</ele><time>2026-05-05T20:43:16.000Z</time></trkpt>
        <trkpt lat="29.33372" lon="105.293498"><ele>378.50916</ele><time>2026-05-05T20:43:18.000Z</time></trkpt>
        <trkpt lat="29.333781" lon="105.293507"><ele>378.7611</ele><time>2026-05-05T20:43:23.000Z</time></trkpt>
        <trkpt lat="29.333842" lon="105.293507"><ele>378.75137</ele><time>2026-05-05T20:43:25.000Z</time></trkpt>
        <trkpt lat="29.333934" lon="105.293513"><ele>378.60776</ele><time>2026-05-05T20:43:27.000Z</time></trkpt>
        <trkpt lat="29.33399" lon="105.293531"><ele>378.69757</ele><time>2026-05-05T20:43:28.000Z</time></trkpt>
        <trkpt lat="29.334045" lon="105.293535"><ele>378.75214</ele><time>2026-05-05T20:43:29.000Z</time></trkpt>
        <trkpt lat="29.334096" lon="105.293538"><ele>378.83365</ele><time>2026-05-05T20:43:30.000Z</time></trkpt>
        <trkpt lat="29.334145" lon="105.293524"><ele>379.02206</ele><time>2026-05-05T20:43:31.000Z</time></trkpt>
        <trkpt lat="29.334222" lon="105.293533"><ele>379.21463</ele><time>2026-05-05T20:43:33.000Z</time></trkpt>
        <trkpt lat="29.334271" lon="105.29355"><ele>379.10623</ele><time>2026-05-05T20:43:35.000Z</time></trkpt>
        <trkpt lat="29.334317" lon="105.293553"><ele>378.9487</ele><time>2026-05-05T20:44:02.000Z</time></trkpt>
        <trkpt lat="29.334269" lon="105.29355"><ele>379.01437</ele><time>2026-05-05T20:44:47.000Z</time></trkpt>
        <trkpt lat="29.334258" lon="105.293487"><ele>378.92755</ele><time>2026-05-05T20:45:58.000Z</time></trkpt>
        <trkpt lat="29.334209" lon="105.293492"><ele>378.66052</ele><time>2026-05-05T20:46:19.000Z</time></trkpt>
        <trkpt lat="29.334161" lon="105.293491"><ele>377.2533</ele><time>2026-05-05T20:46:25.000Z</time></trkpt>
        <trkpt lat="29.334115" lon="105.293487"><ele>377.48105</ele><time>2026-05-05T20:46:29.000Z</time></trkpt>
        <trkpt lat="29.33407" lon="105.293481"><ele>377.46893</ele><time>2026-05-05T20:46:33.000Z</time></trkpt>
        <trkpt lat="29.33402" lon="105.293489"><ele>377.6636</ele><time>2026-05-05T20:46:37.000Z</time></trkpt>
        <trkpt lat="29.333968" lon="105.293485"><ele>378.22113</ele><time>2026-05-05T20:46:41.000Z</time></trkpt>
        <trkpt lat="29.333912" lon="105.293485"><ele>378.02948</ele><time>2026-05-05T20:46:46.000Z</time></trkpt>
        <trkpt lat="29.333868" lon="105.293468"><ele>378.91388</ele><time>2026-05-05T20:46:50.000Z</time></trkpt>
        <trkpt lat="29.333819" lon="105.293442"><ele>379.26138</ele><time>2026-05-05T20:46:54.000Z</time></trkpt>
        <trkpt lat="29.333776" lon="105.293425"><ele>379.4411</ele><time>2026-05-05T20:46:57.000Z</time></trkpt>
        <trkpt lat="29.333724" lon="105.293407"><ele>378.77368</ele><time>2026-05-05T20:47:01.000Z</time></trkpt>
        <trkpt lat="29.333683" lon="105.293434"><ele>379.50977</ele><time>2026-05-05T20:47:06.000Z</time></trkpt>
        <trkpt lat="29.333632" lon="105.293455"><ele>379.2247</ele><time>2026-05-05T20:47:14.000Z</time></trkpt>
        <trkpt lat="29.333586" lon="105.293451"><ele>379.47546</ele><time>2026-05-05T20:47:18.000Z</time></trkpt>
        <trkpt lat="29.333559" lon="105.29341"><ele>379.31165</ele><time>2026-05-05T20:47:35.000Z</time></trkpt>
        <trkpt lat="29.333616" lon="105.293418"><ele>379.15454</ele><time>2026-05-05T20:48:06.000Z</time></trkpt>
        <trkpt lat="29.333659" lon="105.293453"><ele>379.3658</ele><time>2026-05-05T20:48:10.000Z</time></trkpt>
        <trkpt lat="29.333704" lon="105.293469"><ele>380.0027</ele><time>2026-05-05T20:48:14.000Z</time></trkpt>
        <trkpt lat="29.333759" lon="105.293451"><ele>379.4755</ele><time>2026-05-05T20:48:19.000Z</time></trkpt>
        <trkpt lat="29.333801" lon="105.293416"><ele>378.1175</ele><time>2026-05-05T20:48:22.000Z</time></trkpt>
        <trkpt lat="29.33384" lon="105.29338"><ele>378.0482</ele><time>2026-05-05T20:48:25.000Z</time></trkpt>
        <trkpt lat="29.33388" lon="105.293338"><ele>377.2711</ele><time>2026-05-05T20:48:29.000Z</time></trkpt>
        <trkpt lat="29.333938" lon="105.293323"><ele>377.23038</ele><time>2026-05-05T20:48:33.000Z</time></trkpt>
        <trkpt lat="29.333984" lon="105.293357"><ele>376.65796</ele><time>2026-05-05T20:48:36.000Z</time></trkpt>
        <trkpt lat="29.334026" lon="105.29338"><ele>375.93753</ele><time>2026-05-05T20:48:39.000Z</time></trkpt>
        <trkpt lat="29.334079" lon="105.293367"><ele>377.33517</ele><time>2026-05-05T20:48:43.000Z</time></trkpt>
        <trkpt lat="29.33412" lon="105.293394"><ele>377.21585</ele><time>2026-05-05T20:48:46.000Z</time></trkpt>
        <trkpt lat="29.33418" lon="105.293416"><ele>377.9695</ele><time>2026-05-05T20:48:50.000Z</time></trkpt>
        <trkpt lat="29.334222" lon="105.293443"><ele>378.3047</ele><time>2026-05-05T20:48:53.000Z</time></trkpt>
        <trkpt lat="29.33427" lon="105.293488"><ele>378.9835</ele><time>2026-05-05T20:48:56.000Z</time></trkpt>
        <trkpt lat="29.334321" lon="105.293487"><ele>377.94766</ele><time>2026-05-05T20:49:00.000Z</time></trkpt>
        <trkpt lat="29.334378" lon="105.293496"><ele>379.33676</ele><time>2026-05-05T20:49:04.000Z</time></trkpt>
        <trkpt lat="29.334428" lon="105.293513"><ele>380.17828</ele><time>2026-05-05T20:49:08.000Z</time></trkpt>
        <trkpt lat="29.334482" lon="105.293516"><ele>378.6029</ele><time>2026-05-05T20:49:12.000Z</time></trkpt>
        <trkpt lat="29.33453" lon="105.293519"><ele>378.01257</ele><time>2026-05-05T20:49:16.000Z</time></trkpt>
        <trkpt lat="29.334578" lon="105.293526"><ele>377.7111</ele><time>2026-05-05T20:49:31.000Z</time></trkpt>
        <trkpt lat="29.334625" lon="105.293503"><ele>377.43915</ele><time>2026-05-05T20:49:38.000Z</time></trkpt>
        <trkpt lat="29.334676" lon="105.293504"><ele>378.5547</ele><time>2026-05-05T20:49:42.000Z</time></trkpt>
        <trkpt lat="29.334723" lon="105.293506"><ele>378.8936</ele><time>2026-05-05T20:49:46.000Z</time></trkpt>
        <trkpt lat="29.334776" lon="105.293514"><ele>378.3594</ele><time>2026-05-05T20:49:51.000Z</time></trkpt>
        <trkpt lat="29.334829" lon="105.293506"><ele>378.90924</ele><time>2026-05-05T20:49:55.000Z</time></trkpt>
        <trkpt lat="29.334882" lon="105.29351"><ele>377.90192</ele><time>2026-05-05T20:50:00.000Z</time></trkpt>
        <trkpt lat="29.334928" lon="105.293519"><ele>377.90024</ele><time>2026-05-05T20:50:04.000Z</time></trkpt>
        <trkpt lat="29.334982" lon="105.293536"><ele>377.41827</ele><time>2026-05-05T20:50:08.000Z</time></trkpt>
        <trkpt lat="29.335023" lon="105.293568"><ele>376.8516</ele><time>2026-05-05T20:50:12.000Z</time></trkpt>
        <trkpt lat="29.335072" lon="105.293588"><ele>377.50714</ele><time>2026-05-05T20:50:16.000Z</time></trkpt>
        <trkpt lat="29.335089" lon="105.293538"><ele>376.6053</ele><time>2026-05-05T20:50:29.000Z</time></trkpt>
        <trkpt lat="29.33514" lon="105.293552"><ele>376.0965</ele><time>2026-05-05T20:50:47.000Z</time></trkpt>
        <trkpt lat="29.335186" lon="105.293557"><ele>375.4987</ele><time>2026-05-05T20:50:57.000Z</time></trkpt>
        <trkpt lat="29.335216" lon="105.293509"><ele>375.37988</ele><time>2026-05-05T20:51:00.000Z</time></trkpt>
        <trkpt lat="29.335253" lon="105.293468"><ele>375.36688</ele><time>2026-05-05T20:51:04.000Z</time></trkpt>
        <trkpt lat="29.335295" lon="105.293428"><ele>375.25433</ele><time>2026-05-05T20:51:09.000Z</time></trkpt>
        <trkpt lat="29.335316" lon="105.293381"><ele>374.63016</ele><time>2026-05-05T20:51:16.000Z</time></trkpt>
        <trkpt lat="29.335347" lon="105.29334"><ele>375.1029</ele><time>2026-05-05T20:51:21.000Z</time></trkpt>
        <trkpt lat="29.335332" lon="105.293288"><ele>374.24817</ele><time>2026-05-05T20:51:30.000Z</time></trkpt>
        <trkpt lat="29.335317" lon="105.293237"><ele>374.4756</ele><time>2026-05-05T20:51:35.000Z</time></trkpt>
        <trkpt lat="29.335318" lon="105.293176"><ele>375.4214</ele><time>2026-05-05T20:51:40.000Z</time></trkpt>
        <trkpt lat="29.33529" lon="105.29312"><ele>375.25668</ele><time>2026-05-05T20:51:44.000Z</time></trkpt>
        <trkpt lat="29.335294" lon="105.293066"><ele>375.47623</ele><time>2026-05-05T20:51:52.000Z</time></trkpt>
        <trkpt lat="29.335277" lon="105.293016"><ele>375.11893</ele><time>2026-05-05T20:51:57.000Z</time></trkpt>
        <trkpt lat="29.335261" lon="105.292956"><ele>374.5817</ele><time>2026-05-05T20:52:02.000Z</time></trkpt>
        <trkpt lat="29.3353" lon="105.292903"><ele>374.80847</ele><time>2026-05-05T20:52:05.000Z</time></trkpt>
        <trkpt lat="29.335338" lon="105.292852"><ele>374.8476</ele><time>2026-05-05T20:52:08.000Z</time></trkpt>
        <trkpt lat="29.335375" lon="105.292813"><ele>374.95227</ele><time>2026-05-05T20:52:11.000Z</time></trkpt>
        <trkpt lat="29.33539" lon="105.292761"><ele>375.1956</ele><time>2026-05-05T20:52:15.000Z</time></trkpt>
        <trkpt lat="29.335345" lon="105.292818"><ele>374.26865</ele><time>2026-05-05T20:52:34.000Z</time></trkpt>
        <trkpt lat="29.335328" lon="105.29278"><ele>375.3128</ele><time>2026-05-05T20:53:02.000Z</time></trkpt>
        <trkpt lat="29.335407" lon="105.292846"><ele>375.3128</ele><time>2026-05-05T20:53:14.000Z</time></trkpt>
        <trkpt lat="29.335379" lon="105.292684"><ele>374.3152</ele><time>2026-05-05T20:53:37.000Z</time></trkpt>
        <trkpt lat="29.335368" lon="105.292666"><ele>375.52118</ele><time>2026-05-05T20:54:05.000Z</time></trkpt>
        <trkpt lat="29.335417" lon="105.292651"><ele>374.16708</ele><time>2026-05-05T20:54:24.000Z</time></trkpt>
        <trkpt lat="29.335391" lon="105.292705"><ele>373.82526</ele><time>2026-05-05T20:55:29.000Z</time></trkpt>
        <trkpt lat="29.335407" lon="105.292758"><ele>374.90463</ele><time>2026-05-05T20:55:44.000Z</time></trkpt>
        <trkpt lat="29.335372" lon="105.29272"><ele>374.17764</ele><time>2026-05-05T20:56:27.000Z</time></trkpt>
        <trkpt lat="29.335361" lon="105.292774"><ele>374.76425</ele><time>2026-05-05T20:56:49.000Z</time></trkpt>
        <trkpt lat="29.335363" lon="105.292832"><ele>373.6966</ele><time>2026-05-05T20:56:55.000Z</time></trkpt>
        <trkpt lat="29.335349" lon="105.292891"><ele>373.97705</ele><time>2026-05-05T20:56:59.000Z</time></trkpt>
        <trkpt lat="29.335337" lon="105.292953"><ele>374.43237</ele><time>2026-05-05T20:57:03.000Z</time></trkpt>
        <trkpt lat="29.335327" lon="105.293013"><ele>374.7191</ele><time>2026-05-05T20:57:08.000Z</time></trkpt>
        <trkpt lat="29.33532" lon="105.293069"><ele>375.01343</ele><time>2026-05-05T20:57:12.000Z</time></trkpt>
        <trkpt lat="29.335313" lon="105.293125"><ele>375.12982</ele><time>2026-05-05T20:57:16.000Z</time></trkpt>
        <trkpt lat="29.335309" lon="105.293182"><ele>374.34943</ele><time>2026-05-05T20:57:20.000Z</time></trkpt>
        <trkpt lat="29.335299" lon="105.293241"><ele>374.61328</ele><time>2026-05-05T20:57:24.000Z</time></trkpt>
        <trkpt lat="29.335316" lon="105.29329"><ele>374.5465</ele><time>2026-05-05T20:57:27.000Z</time></trkpt>
        <trkpt lat="29.335313" lon="105.293347"><ele>374.18274</ele><time>2026-05-05T20:57:31.000Z</time></trkpt>
        <trkpt lat="29.335285" lon="105.293395"><ele>375.47412</ele><time>2026-05-05T20:57:35.000Z</time></trkpt>
        <trkpt lat="29.335286" lon="105.293452"><ele>375.81555</ele><time>2026-05-05T20:57:39.000Z</time></trkpt>
        <trkpt lat="29.335327" lon="105.293493"><ele>376.76212</ele><time>2026-05-05T20:57:49.000Z</time></trkpt>
        <trkpt lat="29.335332" lon="105.293547"><ele>374.71872</ele><time>2026-05-05T20:57:58.000Z</time></trkpt>
        <trkpt lat="29.335329" lon="105.293602"><ele>374.53293</ele><time>2026-05-05T20:58:02.000Z</time></trkpt>
        <trkpt lat="29.335344" lon="105.293651"><ele>375.182</ele><time>2026-05-05T20:58:07.000Z</time></trkpt>
        <trkpt lat="29.335362" lon="105.293706"><ele>374.45425</ele><time>2026-05-05T20:58:12.000Z</time></trkpt>
        <trkpt lat="29.335369" lon="105.293771"><ele>374.70654</ele><time>2026-05-05T20:58:16.000Z</time></trkpt>
        <trkpt lat="29.33539" lon="105.293829"><ele>375.0504</ele><time>2026-05-05T20:58:21.000Z</time></trkpt>
        <trkpt lat="29.335398" lon="105.293891"><ele>375.29843</ele><time>2026-05-05T20:58:26.000Z</time></trkpt>
        <trkpt lat="29.335394" lon="105.293965"><ele>375.16595</ele><time>2026-05-05T20:58:32.000Z</time></trkpt>
        <trkpt lat="29.335379" lon="105.294013"><ele>375.98688</ele><time>2026-05-05T20:58:51.000Z</time></trkpt>
        <trkpt lat="29.335332" lon="105.294003"><ele>378.54904</ele><time>2026-05-05T20:59:37.000Z</time></trkpt>
        <trkpt lat="29.335218" lon="105.293995"><ele>376.4975</ele><time>2026-05-05T20:59:47.000Z</time></trkpt>
        <trkpt lat="29.335073" lon="105.293995"><ele>378.01016</ele><time>2026-05-05T21:00:05.000Z</time></trkpt>
        <trkpt lat="29.335133" lon="105.294006"><ele>377.79697</ele><time>2026-05-05T21:00:16.000Z</time></trkpt>
        <trkpt lat="29.33508" lon="105.294013"><ele>377.5941</ele><time>2026-05-05T21:00:51.000Z</time></trkpt>
        <trkpt lat="29.334807" lon="105.294054"><ele>377.30212</ele><time>2026-05-05T21:01:22.000Z</time></trkpt>
        <trkpt lat="29.334866" lon="105.294196"><ele>377.4471</ele><time>2026-05-05T21:01:37.000Z</time></trkpt>
        <trkpt lat="29.334836" lon="105.294147"><ele>377.71567</ele><time>2026-05-05T21:01:44.000Z</time></trkpt>
        <trkpt lat="29.334957" lon="105.294074"><ele>378.32498</ele><time>2026-05-05T21:01:52.000Z</time></trkpt>
        <trkpt lat="29.33506" lon="105.294186"><ele>378.3157</ele><time>2026-05-05T21:01:54.000Z</time></trkpt>
        <trkpt lat="29.335118" lon="105.294199"><ele>377.6352</ele><time>2026-05-05T21:01:59.000Z</time></trkpt>
        <trkpt lat="29.335189" lon="105.294157"><ele>377.59564</ele><time>2026-05-05T21:02:01.000Z</time></trkpt>
        <trkpt lat="29.335265" lon="105.294134"><ele>377.05905</ele><time>2026-05-05T21:02:03.000Z</time></trkpt>
        <trkpt lat="29.335408" lon="105.29424"><ele>375.88953</ele><time>2026-05-05T21:02:11.000Z</time></trkpt>
        <trkpt lat="29.335443" lon="105.294186"><ele>375.51663</ele><time>2026-05-05T21:02:14.000Z</time></trkpt>
        <trkpt lat="29.335515" lon="105.29419"><ele>375.23132</ele><time>2026-05-05T21:02:19.000Z</time></trkpt>
        <trkpt lat="29.335561" lon="105.294162"><ele>375.12418</ele><time>2026-05-05T21:02:20.000Z</time></trkpt>
        <trkpt lat="29.335811" lon="105.294065"><ele>373.3029</ele><time>2026-05-05T21:02:30.000Z</time></trkpt>
        <trkpt lat="29.335866" lon="105.294039"><ele>373.12366</ele><time>2026-05-05T21:02:32.000Z</time></trkpt>
        <trkpt lat="29.336273" lon="105.294051"><ele>370.3602</ele><time>2026-05-05T21:02:45.000Z</time></trkpt>
        <trkpt lat="29.336344" lon="105.29403"><ele>370.97223</ele><time>2026-05-05T21:02:47.000Z</time></trkpt>
        <trkpt lat="29.334989" lon="105.294053"><ele>374.80142</ele><time>2026-05-05T21:03:14.000Z</time></trkpt>
        <trkpt lat="29.334919" lon="105.294068"><ele>375.4029</ele><time>2026-05-05T21:03:16.000Z</time></trkpt>
        <trkpt lat="29.334858" lon="105.294084"><ele>375.75095</ele><time>2026-05-05T21:03:18.000Z</time></trkpt>
        <trkpt lat="29.334814" lon="105.294096"><ele>376.53464</ele><time>2026-05-05T21:03:20.000Z</time></trkpt>
        <trkpt lat="29.334779" lon="105.294114"><ele>377.15878</ele><time>2026-05-05T21:03:25.000Z</time></trkpt>
        <trkpt lat="29.334735" lon="105.294133"><ele>377.71323</ele><time>2026-05-05T21:03:30.000Z</time></trkpt>
        <trkpt lat="29.334776" lon="105.294071"><ele>377.45776</ele><time>2026-05-05T21:06:19.000Z</time></trkpt>
        <trkpt lat="29.334833" lon="105.294056"><ele>376.40494</ele><time>2026-05-05T21:06:24.000Z</time></trkpt>
        <trkpt lat="29.334873" lon="105.294023"><ele>376.1876</ele><time>2026-05-05T21:06:27.000Z</time></trkpt>
        <trkpt lat="29.334918" lon="105.29401"><ele>376.44324</ele><time>2026-05-05T21:06:31.000Z</time></trkpt>
        <trkpt lat="29.334964" lon="105.294004"><ele>376.39096</ele><time>2026-05-05T21:06:38.000Z</time></trkpt>
        <trkpt lat="29.335018" lon="105.294002"><ele>376.6628</ele><time>2026-05-05T21:06:44.000Z</time></trkpt>
        <trkpt lat="29.334971" lon="105.293995"><ele>377.60693</ele><time>2026-05-05T21:06:59.000Z</time></trkpt>
        <trkpt lat="29.335234" lon="105.294109"><ele>377.85678</ele><time>2026-05-05T21:07:11.000Z</time></trkpt>
        <trkpt lat="29.33522" lon="105.294159"><ele>378.20255</ele><time>2026-05-05T21:07:15.000Z</time></trkpt>
        <trkpt lat="29.335238" lon="105.294224"><ele>377.32217</ele><time>2026-05-05T21:07:20.000Z</time></trkpt>
        <trkpt lat="29.335252" lon="105.294276"><ele>376.9819</ele><time>2026-05-05T21:07:24.000Z</time></trkpt>
        <trkpt lat="29.335296" lon="105.29432"><ele>376.38025</ele><time>2026-05-05T21:07:29.000Z</time></trkpt>
        <trkpt lat="29.335325" lon="105.294373"><ele>376.30304</ele><time>2026-05-05T21:07:33.000Z</time></trkpt>
        <trkpt lat="29.335355" lon="105.294417"><ele>374.3974</ele><time>2026-05-05T21:07:40.000Z</time></trkpt>
        <trkpt lat="29.335393" lon="105.294447"><ele>374.47903</ele><time>2026-05-05T21:07:51.000Z</time></trkpt>
        <trkpt lat="29.335392" lon="105.294501"><ele>374.0532</ele><time>2026-05-05T21:07:59.000Z</time></trkpt>
        <trkpt lat="29.335395" lon="105.294562"><ele>373.7673</ele><time>2026-05-05T21:08:04.000Z</time></trkpt>
        <trkpt lat="29.335386" lon="105.294614"><ele>374.01068</ele><time>2026-05-05T21:08:08.000Z</time></trkpt>
        <trkpt lat="29.335341" lon="105.294623"><ele>375.95343</ele><time>2026-05-05T21:08:42.000Z</time></trkpt>
        <trkpt lat="29.335393" lon="105.294607"><ele>375.93808</ele><time>2026-05-05T21:09:19.000Z</time></trkpt>
        <trkpt lat="29.335348" lon="105.294596"><ele>375.705</ele><time>2026-05-05T21:11:03.000Z</time></trkpt>
        <trkpt lat="29.335272" lon="105.294585"><ele>375.68738</ele><time>2026-05-05T21:11:12.000Z</time></trkpt>
        <trkpt lat="29.335222" lon="105.29459"><ele>375.76465</ele><time>2026-05-05T21:11:16.000Z</time></trkpt>
        <trkpt lat="29.335123" lon="105.294611"><ele>376.38498</ele><time>2026-05-05T21:11:22.000Z</time></trkpt>
        <trkpt lat="29.335072" lon="105.294601"><ele>376.58026</ele><time>2026-05-05T21:11:26.000Z</time></trkpt>
        <trkpt lat="29.335065" lon="105.294663"><ele>378.7181</ele><time>2026-05-05T21:11:45.000Z</time></trkpt>
        <trkpt lat="29.335071" lon="105.294719"><ele>376.71585</ele><time>2026-05-05T21:11:53.000Z</time></trkpt>
        <trkpt lat="29.335047" lon="105.29477"><ele>376.36664</ele><time>2026-05-05T21:12:00.000Z</time></trkpt>
        <trkpt lat="29.335029" lon="105.294829"><ele>376.2942</ele><time>2026-05-05T21:12:04.000Z</time></trkpt>
        <trkpt lat="29.335028" lon="105.294887"><ele>376.68152</ele><time>2026-05-05T21:12:08.000Z</time></trkpt>
        <trkpt lat="29.335008" lon="105.294935"><ele>376.3839</ele><time>2026-05-05T21:12:16.000Z</time></trkpt>
        <trkpt lat="29.334987" lon="105.294984"><ele>375.85892</ele><time>2026-05-05T21:12:44.000Z</time></trkpt>
        <trkpt lat="29.335018" lon="105.295022"><ele>375.2005</ele><time>2026-05-05T21:13:03.000Z</time></trkpt>
        <trkpt lat="29.335001" lon="105.295075"><ele>376.02887</ele><time>2026-05-05T21:13:09.000Z</time></trkpt>
        <trkpt lat="29.335008" lon="105.295044"><ele>375.20282</ele><time>2026-05-05T21:13:31.000Z</time></trkpt>
        <trkpt lat="29.33507" lon="105.294843"><ele>375.6525</ele><time>2026-05-05T21:13:45.000Z</time></trkpt>
        <trkpt lat="29.335051" lon="105.29479"><ele>375.5619</ele><time>2026-05-05T21:13:50.000Z</time></trkpt>
        <trkpt lat="29.335077" lon="105.294736"><ele>376.04156</ele><time>2026-05-05T21:13:54.000Z</time></trkpt>
        <trkpt lat="29.335098" lon="105.294685"><ele>376.9219</ele><time>2026-05-05T21:13:57.000Z</time></trkpt>
        <trkpt lat="29.33514" lon="105.29464"><ele>377.14023</ele><time>2026-05-05T21:14:01.000Z</time></trkpt>
        <trkpt lat="29.335116" lon="105.294585"><ele>377.27103</ele><time>2026-05-05T21:14:06.000Z</time></trkpt>
        <trkpt lat="29.335059" lon="105.294549"><ele>378.06146</ele><time>2026-05-05T21:14:09.000Z</time></trkpt>
        <trkpt lat="29.335001" lon="105.294544"><ele>378.6992</ele><time>2026-05-05T21:14:12.000Z</time></trkpt>
        <trkpt lat="29.334947" lon="105.294523"><ele>378.42133</ele><time>2026-05-05T21:14:24.000Z</time></trkpt>
        <trkpt lat="29.3349" lon="105.294529"><ele>377.5555</ele><time>2026-05-05T21:14:34.000Z</time></trkpt>
        <trkpt lat="29.334853" lon="105.294524"><ele>376.90085</ele><time>2026-05-05T21:14:41.000Z</time></trkpt>
        <trkpt lat="29.334904" lon="105.294527"><ele>378.2567</ele><time>2026-05-05T21:15:24.000Z</time></trkpt>
        <trkpt lat="29.335005" lon="105.294493"><ele>376.6187</ele><time>2026-05-05T21:15:33.000Z</time></trkpt>
        <trkpt lat="29.335051" lon="105.294497"><ele>376.30383</ele><time>2026-05-05T21:15:37.000Z</time></trkpt>
        <trkpt lat="29.335105" lon="105.294511"><ele>377.54242</ele><time>2026-05-05T21:15:42.000Z</time></trkpt>
        <trkpt lat="29.335147" lon="105.294543"><ele>378.27448</ele><time>2026-05-05T21:16:00.000Z</time></trkpt>
        <trkpt lat="29.335194" lon="105.294549"><ele>377.6498</ele><time>2026-05-05T21:16:04.000Z</time></trkpt>
        <trkpt lat="29.335228" lon="105.294624"><ele>375.4378</ele><time>2026-05-05T21:16:10.000Z</time></trkpt>
        <trkpt lat="29.335252" lon="105.294668"><ele>375.36423</ele><time>2026-05-05T21:16:12.000Z</time></trkpt>
        <trkpt lat="29.335257" lon="105.294725"><ele>376.336</ele><time>2026-05-05T21:16:15.000Z</time></trkpt>
        <trkpt lat="29.335252" lon="105.294784"><ele>375.6876</ele><time>2026-05-05T21:16:24.000Z</time></trkpt>
        <trkpt lat="29.33526" lon="105.294836"><ele>375.0562</ele><time>2026-05-05T21:16:27.000Z</time></trkpt>
        <trkpt lat="29.335294" lon="105.294888"><ele>374.2378</ele><time>2026-05-05T21:16:30.000Z</time></trkpt>
        <trkpt lat="29.335294" lon="105.29494"><ele>374.6559</ele><time>2026-05-05T21:16:34.000Z</time></trkpt>
        <trkpt lat="29.33532" lon="105.294982"><ele>374.98248</ele><time>2026-05-05T21:16:37.000Z</time></trkpt>
        <trkpt lat="29.335298" lon="105.295037"><ele>373.8238</ele><time>2026-05-05T21:16:42.000Z</time></trkpt>
        <trkpt lat="29.335251" lon="105.29507"><ele>373.95538</ele><time>2026-05-05T21:16:45.000Z</time></trkpt>
        <trkpt lat="29.335244" lon="105.295137"><ele>374.71173</ele><time>2026-05-05T21:16:49.000Z</time></trkpt>
        <trkpt lat="29.335245" lon="105.295199"><ele>375.20102</ele><time>2026-05-05T21:16:53.000Z</time></trkpt>
        <trkpt lat="29.335242" lon="105.29526"><ele>374.57855</ele><time>2026-05-05T21:16:58.000Z</time></trkpt>
        <trkpt lat="29.335223" lon="105.295309"><ele>374.63098</ele><time>2026-05-05T21:17:02.000Z</time></trkpt>
        <trkpt lat="29.335209" lon="105.295369"><ele>375.27798</ele><time>2026-05-05T21:17:08.000Z</time></trkpt>
        <trkpt lat="29.335207" lon="105.295432"><ele>375.78125</ele><time>2026-05-05T21:17:12.000Z</time></trkpt>
        <trkpt lat="29.335184" lon="105.295494"><ele>375.41376</ele><time>2026-05-05T21:17:16.000Z</time></trkpt>
        <trkpt lat="29.335171" lon="105.295551"><ele>375.26974</ele><time>2026-05-05T21:17:21.000Z</time></trkpt>
        <trkpt lat="29.335163" lon="105.295604"><ele>376.23923</ele><time>2026-05-05T21:17:25.000Z</time></trkpt>
        <trkpt lat="29.335159" lon="105.295656"><ele>375.39532</ele><time>2026-05-05T21:17:29.000Z</time></trkpt>
        <trkpt lat="29.335194" lon="105.295698"><ele>374.30823</ele><time>2026-05-05T21:17:34.000Z</time></trkpt>
        <trkpt lat="29.335208" lon="105.295756"><ele>372.70865</ele><time>2026-05-05T21:17:39.000Z</time></trkpt>
        <trkpt lat="29.335213" lon="105.295812"><ele>372.4706</ele><time>2026-05-05T21:17:43.000Z</time></trkpt>
        <trkpt lat="29.335184" lon="105.295853"><ele>373.87265</ele><time>2026-05-05T21:17:47.000Z</time></trkpt>
        <trkpt lat="29.335144" lon="105.29588"><ele>374.99164</ele><time>2026-05-05T21:17:50.000Z</time></trkpt>
        <trkpt lat="29.335104" lon="105.295907"><ele>374.5986</ele><time>2026-05-05T21:17:54.000Z</time></trkpt>
        <trkpt lat="29.335067" lon="105.295951"><ele>373.85507</ele><time>2026-05-05T21:17:59.000Z</time></trkpt>
        <trkpt lat="29.335048" lon="105.296006"><ele>373.6115</ele><time>2026-05-05T21:18:05.000Z</time></trkpt>
        <trkpt lat="29.335018" lon="105.29605"><ele>374.1214</ele><time>2026-05-05T21:18:13.000Z</time></trkpt>
        <trkpt lat="29.334972" lon="105.296059"><ele>373.5069</ele><time>2026-05-05T21:18:20.000Z</time></trkpt>
        <trkpt lat="29.334926" lon="105.296045"><ele>374.33652</ele><time>2026-05-05T21:18:23.000Z</time></trkpt>
        <trkpt lat="29.334883" lon="105.296015"><ele>374.93018</ele><time>2026-05-05T21:18:26.000Z</time></trkpt>
        <trkpt lat="29.334824" lon="105.296001"><ele>374.91602</ele><time>2026-05-05T21:18:30.000Z</time></trkpt>
        <trkpt lat="29.334771" lon="105.296007"><ele>375.16104</ele><time>2026-05-05T21:18:34.000Z</time></trkpt>
        <trkpt lat="29.334719" lon="105.296021"><ele>375.19498</ele><time>2026-05-05T21:18:39.000Z</time></trkpt>
        <trkpt lat="29.334671" lon="105.296019"><ele>375.1171</ele><time>2026-05-05T21:18:43.000Z</time></trkpt>
        <trkpt lat="29.334623" lon="105.296032"><ele>373.93918</ele><time>2026-05-05T21:18:47.000Z</time></trkpt>
        <trkpt lat="29.33456" lon="105.296018"><ele>375.01202</ele><time>2026-05-05T21:18:52.000Z</time></trkpt>
        <trkpt lat="29.334512" lon="105.296002"><ele>374.88995</ele><time>2026-05-05T21:18:56.000Z</time></trkpt>
        <trkpt lat="29.334466" lon="105.296002"><ele>374.8687</ele><time>2026-05-05T21:18:59.000Z</time></trkpt>
        <trkpt lat="29.334414" lon="105.296008"><ele>375.02213</ele><time>2026-05-05T21:19:04.000Z</time></trkpt>
        <trkpt lat="29.334367" lon="105.296031"><ele>375.26608</ele><time>2026-05-05T21:19:09.000Z</time></trkpt>
        <trkpt lat="29.33431" lon="105.296031"><ele>375.70074</ele><time>2026-05-05T21:19:13.000Z</time></trkpt>
        <trkpt lat="29.33426" lon="105.296012"><ele>375.744</ele><time>2026-05-05T21:19:17.000Z</time></trkpt>
        <trkpt lat="29.33421" lon="105.296025"><ele>375.43506</ele><time>2026-05-05T21:19:39.000Z</time></trkpt>
        <trkpt lat="29.334167" lon="105.296004"><ele>375.7173</ele><time>2026-05-05T21:19:43.000Z</time></trkpt>
        <trkpt lat="29.334128" lon="105.295976"><ele>374.75528</ele><time>2026-05-05T21:19:49.000Z</time></trkpt>
        <trkpt lat="29.33417" lon="105.295951"><ele>374.42197</ele><time>2026-05-05T21:20:18.000Z</time></trkpt>
        <trkpt lat="29.334136" lon="105.295912"><ele>374.56308</ele><time>2026-05-05T21:20:38.000Z</time></trkpt>
        <trkpt lat="29.334175" lon="105.295803"><ele>375.40186</ele><time>2026-05-05T21:20:46.000Z</time></trkpt>
        <trkpt lat="29.33419" lon="105.295747"><ele>374.52258</ele><time>2026-05-05T21:20:50.000Z</time></trkpt>
        <trkpt lat="29.334222" lon="105.295697"><ele>374.30835</ele><time>2026-05-05T21:20:54.000Z</time></trkpt>
        <trkpt lat="29.334224" lon="105.295641"><ele>374.82074</ele><time>2026-05-05T21:20:58.000Z</time></trkpt>
        <trkpt lat="29.334201" lon="105.295591"><ele>375.83817</ele><time>2026-05-05T21:21:05.000Z</time></trkpt>
        <trkpt lat="29.334192" lon="105.29554"><ele>375.43597</ele><time>2026-05-05T21:21:36.000Z</time></trkpt>
        <trkpt lat="29.334236" lon="105.295513"><ele>373.83514</ele><time>2026-05-05T21:21:59.000Z</time></trkpt>
        <trkpt lat="29.334274" lon="105.295484"><ele>376.04343</ele><time>2026-05-05T21:22:11.000Z</time></trkpt>
        <trkpt lat="29.334238" lon="105.295524"><ele>376.59897</ele><time>2026-05-05T21:22:16.000Z</time></trkpt>
        <trkpt lat="29.334254" lon="105.295578"><ele>377.04877</ele><time>2026-05-05T21:22:29.000Z</time></trkpt>
        <trkpt lat="29.334287" lon="105.295614"><ele>377.38245</ele><time>2026-05-05T21:22:37.000Z</time></trkpt>
        <trkpt lat="29.334383" lon="105.295617"><ele>376.25146</ele><time>2026-05-05T21:22:44.000Z</time></trkpt>
        <trkpt lat="29.334423" lon="105.295644"><ele>375.75653</ele><time>2026-05-05T21:22:48.000Z</time></trkpt>
        <trkpt lat="29.33447" lon="105.295623"><ele>377.66684</ele><time>2026-05-05T21:23:16.000Z</time></trkpt>
        <trkpt lat="29.334507" lon="105.295594"><ele>376.5825</ele><time>2026-05-05T21:23:35.000Z</time></trkpt>
        <trkpt lat="29.33453" lon="105.295639"><ele>376.60788</ele><time>2026-05-05T21:23:52.000Z</time></trkpt>
        <trkpt lat="29.334581" lon="105.295645"><ele>376.28085</ele><time>2026-05-05T21:24:33.000Z</time></trkpt>
        <trkpt lat="29.334669" lon="105.295636"><ele>373.9222</ele><time>2026-05-05T21:24:55.000Z</time></trkpt>
        <trkpt lat="29.334615" lon="105.295636"><ele>375.62744</ele><time>2026-05-05T21:25:00.000Z</time></trkpt>
        <trkpt lat="29.334568" lon="105.295642"><ele>375.83112</ele><time>2026-05-05T21:25:04.000Z</time></trkpt>
        <trkpt lat="29.334568" lon="105.295483"><ele>376.19388</ele><time>2026-05-05T21:25:17.000Z</time></trkpt>
        <trkpt lat="29.334623" lon="105.295398"><ele>375.58322</ele><time>2026-05-05T21:26:02.000Z</time></trkpt>
        <trkpt lat="29.33457" lon="105.29541"><ele>375.3124</ele><time>2026-05-05T21:26:25.000Z</time></trkpt>
        <trkpt lat="29.334615" lon="105.295432"><ele>376.8041</ele><time>2026-05-05T21:26:34.000Z</time></trkpt>
        <trkpt lat="29.334663" lon="105.295462"><ele>376.041</ele><time>2026-05-05T21:26:44.000Z</time></trkpt>
        <trkpt lat="29.334663" lon="105.295462"><ele>376.041</ele><time>2026-05-05T21:26:45.000Z</time></trkpt>
        <trkpt lat="29.334627" lon="105.295463"><ele>375.20282</ele><time>2026-05-05T21:27:03.000Z</time></trkpt>
        <trkpt lat="29.334394" lon="105.295616"><ele>377.2228</ele><time>2026-05-05T21:27:40.000Z</time></trkpt>
        <trkpt lat="29.334394" lon="105.295617"><ele>377.2228</ele><time>2026-05-05T21:27:41.000Z</time></trkpt>
        <trkpt lat="29.33462" lon="105.295552"><ele>374.977</ele><time>2026-05-05T21:27:56.000Z</time></trkpt>
        <trkpt lat="29.334579" lon="105.295592"><ele>376.2859</ele><time>2026-05-05T21:28:01.000Z</time></trkpt>
        <trkpt lat="29.334528" lon="105.295586"><ele>377.15524</ele><time>2026-05-05T21:28:09.000Z</time></trkpt>
        <trkpt lat="29.334474" lon="105.295601"><ele>376.35492</ele><time>2026-05-05T21:28:13.000Z</time></trkpt>
        <trkpt lat="29.334411" lon="105.295606"><ele>376.54117</ele><time>2026-05-05T21:28:17.000Z</time></trkpt>
        <trkpt lat="29.334356" lon="105.295602"><ele>376.24432</ele><time>2026-05-05T21:28:20.000Z</time></trkpt>
        <trkpt lat="29.334307" lon="105.295615"><ele>375.56998</ele><time>2026-05-05T21:28:23.000Z</time></trkpt>
        <trkpt lat="29.334267" lon="105.295644"><ele>375.85565</ele><time>2026-05-05T21:28:27.000Z</time></trkpt>
        <trkpt lat="29.334207" lon="105.295656"><ele>375.56113</ele><time>2026-05-05T21:28:33.000Z</time></trkpt>
        <trkpt lat="29.334208" lon="105.295723"><ele>376.22443</ele><time>2026-05-05T21:28:38.000Z</time></trkpt>
        <trkpt lat="29.3342" lon="105.295779"><ele>373.90247</ele><time>2026-05-05T21:28:49.000Z</time></trkpt>
        <trkpt lat="29.334196" lon="105.295833"><ele>376.02884</ele><time>2026-05-05T21:29:17.000Z</time></trkpt>
        <trkpt lat="29.334208" lon="105.295886"><ele>375.34122</ele><time>2026-05-05T21:29:20.000Z</time></trkpt>
        <trkpt lat="29.334161" lon="105.295922"><ele>374.456</ele><time>2026-05-05T21:29:25.000Z</time></trkpt>
        <trkpt lat="29.334104" lon="105.295934"><ele>373.95068</ele><time>2026-05-05T21:29:30.000Z</time></trkpt>
        <trkpt lat="29.334041" lon="105.295937"><ele>374.86304</ele><time>2026-05-05T21:29:34.000Z</time></trkpt>
        <trkpt lat="29.333977" lon="105.295937"><ele>375.69443</ele><time>2026-05-05T21:29:38.000Z</time></trkpt>
        <trkpt lat="29.333931" lon="105.295957"><ele>375.8067</ele><time>2026-05-05T21:29:41.000Z</time></trkpt>
        <trkpt lat="29.333886" lon="105.29594"><ele>373.46585</ele><time>2026-05-05T21:29:47.000Z</time></trkpt>
        <trkpt lat="29.33384" lon="105.295949"><ele>373.13934</ele><time>2026-05-05T21:29:50.000Z</time></trkpt>
        <trkpt lat="29.333788" lon="105.295944"><ele>373.42783</ele><time>2026-05-05T21:29:54.000Z</time></trkpt>
        <trkpt lat="29.333733" lon="105.295938"><ele>374.35522</ele><time>2026-05-05T21:29:58.000Z</time></trkpt>
        <trkpt lat="29.333681" lon="105.295926"><ele>374.4235</ele><time>2026-05-05T21:30:03.000Z</time></trkpt>
        <trkpt lat="29.333625" lon="105.29594"><ele>374.39478</ele><time>2026-05-05T21:30:07.000Z</time></trkpt>
        <trkpt lat="29.333575" lon="105.295957"><ele>373.90775</ele><time>2026-05-05T21:30:12.000Z</time></trkpt>
        <trkpt lat="29.333537" lon="105.295927"><ele>373.05963</ele><time>2026-05-05T21:30:29.000Z</time></trkpt>
        <trkpt lat="29.333481" lon="105.295926"><ele>373.02432</ele><time>2026-05-05T21:30:34.000Z</time></trkpt>
        <trkpt lat="29.333428" lon="105.295928"><ele>372.98135</ele><time>2026-05-05T21:30:38.000Z</time></trkpt>
        <trkpt lat="29.333381" lon="105.295922"><ele>373.39743</ele><time>2026-05-05T21:30:42.000Z</time></trkpt>
        <trkpt lat="29.333333" lon="105.295894"><ele>373.78357</ele><time>2026-05-05T21:30:47.000Z</time></trkpt>
        <trkpt lat="29.333288" lon="105.295858"><ele>374.1222</ele><time>2026-05-05T21:30:53.000Z</time></trkpt>
        <trkpt lat="29.333244" lon="105.295832"><ele>374.59903</ele><time>2026-05-05T21:30:59.000Z</time></trkpt>
        <trkpt lat="29.333222" lon="105.295779"><ele>373.83945</ele><time>2026-05-05T21:31:03.000Z</time></trkpt>
        <trkpt lat="29.333194" lon="105.295732"><ele>373.2241</ele><time>2026-05-05T21:31:07.000Z</time></trkpt>
        <trkpt lat="29.333166" lon="105.29568"><ele>373.15213</ele><time>2026-05-05T21:31:11.000Z</time></trkpt>
        <trkpt lat="29.333168" lon="105.295619"><ele>372.56854</ele><time>2026-05-05T21:31:16.000Z</time></trkpt>
        <trkpt lat="29.333176" lon="105.295558"><ele>371.85373</ele><time>2026-05-05T21:31:21.000Z</time></trkpt>
        <trkpt lat="29.333121" lon="105.295544"><ele>371.9138</ele><time>2026-05-05T21:31:41.000Z</time></trkpt>
        <trkpt lat="29.333051" lon="105.295558"><ele>373.17642</ele><time>2026-05-05T21:32:02.000Z</time></trkpt>
        <trkpt lat="29.332985" lon="105.295568"><ele>372.2627</ele><time>2026-05-05T21:32:08.000Z</time></trkpt>
        <trkpt lat="29.333042" lon="105.295553"><ele>372.45157</ele><time>2026-05-05T21:32:11.000Z</time></trkpt>
        <trkpt lat="29.333101" lon="105.295562"><ele>371.547</ele><time>2026-05-05T21:32:16.000Z</time></trkpt>
        <trkpt lat="29.333154" lon="105.295516"><ele>372.3136</ele><time>2026-05-05T21:32:20.000Z</time></trkpt>
        <trkpt lat="29.333185" lon="105.295472"><ele>372.31775</ele><time>2026-05-05T21:32:23.000Z</time></trkpt>
        <trkpt lat="29.333166" lon="105.295421"><ele>371.08945</ele><time>2026-05-05T21:32:28.000Z</time></trkpt>
        <trkpt lat="29.333148" lon="105.295373"><ele>374.0041</ele><time>2026-05-05T21:32:57.000Z</time></trkpt>
        <trkpt lat="29.333146" lon="105.295316"><ele>374.18637</ele><time>2026-05-05T21:33:14.000Z</time></trkpt>
        <trkpt lat="29.333161" lon="105.295263"><ele>374.23892</ele><time>2026-05-05T21:33:18.000Z</time></trkpt>
        <trkpt lat="29.333164" lon="105.295207"><ele>374.65146</ele><time>2026-05-05T21:33:23.000Z</time></trkpt>
        <trkpt lat="29.333167" lon="105.295155"><ele>374.60764</ele><time>2026-05-05T21:33:26.000Z</time></trkpt>
        <trkpt lat="29.333164" lon="105.295096"><ele>374.68268</ele><time>2026-05-05T21:33:29.000Z</time></trkpt>
        <trkpt lat="29.333154" lon="105.295045"><ele>374.80106</ele><time>2026-05-05T21:33:32.000Z</time></trkpt>
        <trkpt lat="29.333143" lon="105.29498"><ele>374.56158</ele><time>2026-05-05T21:33:36.000Z</time></trkpt>
        <trkpt lat="29.333145" lon="105.294919"><ele>374.67856</ele><time>2026-05-05T21:33:40.000Z</time></trkpt>
        <trkpt lat="29.333151" lon="105.294854"><ele>374.65936</ele><time>2026-05-05T21:33:44.000Z</time></trkpt>
        <trkpt lat="29.333155" lon="105.294791"><ele>375.11932</ele><time>2026-05-05T21:33:48.000Z</time></trkpt>
        <trkpt lat="29.333152" lon="105.294738"><ele>375.4101</ele><time>2026-05-05T21:33:51.000Z</time></trkpt>
        <trkpt lat="29.333157" lon="105.294682"><ele>375.60342</ele><time>2026-05-05T21:33:54.000Z</time></trkpt>
        <trkpt lat="29.333168" lon="105.294627"><ele>375.91425</ele><time>2026-05-05T21:33:58.000Z</time></trkpt>
        <trkpt lat="29.333156" lon="105.294564"><ele>376.50467</ele><time>2026-05-05T21:34:02.000Z</time></trkpt>
        <trkpt lat="29.333177" lon="105.294503"><ele>376.29294</ele><time>2026-05-05T21:34:05.000Z</time></trkpt>
        <trkpt lat="29.333166" lon="105.294449"><ele>376.98373</ele><time>2026-05-05T21:34:09.000Z</time></trkpt>
        <trkpt lat="29.333161" lon="105.294396"><ele>377.1301</ele><time>2026-05-05T21:34:12.000Z</time></trkpt>
        <trkpt lat="29.333208" lon="105.294373"><ele>376.46497</ele><time>2026-05-05T21:34:28.000Z</time></trkpt>
        <trkpt lat="29.33331" lon="105.294374"><ele>377.65628</ele><time>2026-05-05T21:34:36.000Z</time></trkpt>
        <trkpt lat="29.33336" lon="105.294373"><ele>377.11893</ele><time>2026-05-05T21:34:41.000Z</time></trkpt>
        <trkpt lat="29.333408" lon="105.29435"><ele>377.8798</ele><time>2026-05-05T21:34:49.000Z</time></trkpt>
        <trkpt lat="29.33345" lon="105.294322"><ele>378.36923</ele><time>2026-05-05T21:34:53.000Z</time></trkpt>
        <trkpt lat="29.333487" lon="105.294285"><ele>377.51422</ele><time>2026-05-05T21:35:03.000Z</time></trkpt>
        <trkpt lat="29.333493" lon="105.294233"><ele>376.8959</ele><time>2026-05-05T21:35:10.000Z</time></trkpt>
        <trkpt lat="29.333521" lon="105.294187"><ele>377.06604</ele><time>2026-05-05T21:35:18.000Z</time></trkpt>
        <trkpt lat="29.333493" lon="105.294143"><ele>376.21075</ele><time>2026-05-05T21:35:56.000Z</time></trkpt>
        <trkpt lat="29.333505" lon="105.2942"><ele>377.08755</ele><time>2026-05-05T21:36:17.000Z</time></trkpt>
        <trkpt lat="29.333295" lon="105.294147"><ele>379.42282</ele><time>2026-05-05T21:36:42.000Z</time></trkpt>
        <trkpt lat="29.333269" lon="105.294136"><ele>379.42282</ele><time>2026-05-05T21:36:53.000Z</time></trkpt>
        <trkpt lat="29.333226" lon="105.294104"><ele>380.2228</ele><time>2026-05-05T21:37:13.000Z</time></trkpt>
        <trkpt lat="29.333091" lon="105.29414"><ele>380.2228</ele><time>2026-05-05T21:37:21.000Z</time></trkpt>
        <trkpt lat="29.333281" lon="105.294228"><ele>380.2228</ele><time>2026-05-05T21:37:37.000Z</time></trkpt>
        <trkpt lat="29.333428" lon="105.29416"><ele>377.20706</ele><time>2026-05-05T21:37:48.000Z</time></trkpt>
        <trkpt lat="29.333486" lon="105.294148"><ele>377.1185</ele><time>2026-05-05T21:37:49.000Z</time></trkpt>
        <trkpt lat="29.333469" lon="105.294228"><ele>376.84622</ele><time>2026-05-05T21:37:57.000Z</time></trkpt>
        <trkpt lat="29.333427" lon="105.294253"><ele>377.74442</ele><time>2026-05-05T21:38:00.000Z</time></trkpt>
        <trkpt lat="29.333438" lon="105.294208"><ele>377.4289</ele><time>2026-05-05T21:39:32.000Z</time></trkpt>
        <trkpt lat="29.333479" lon="105.294182"><ele>376.91647</ele><time>2026-05-05T21:39:37.000Z</time></trkpt>
        <trkpt lat="29.333539" lon="105.294175"><ele>378.01532</ele><time>2026-05-05T21:39:45.000Z</time></trkpt>
        <trkpt lat="29.333575" lon="105.294141"><ele>377.79004</ele><time>2026-05-05T21:39:51.000Z</time></trkpt>
        <trkpt lat="29.333568" lon="105.294218"><ele>377.09778</ele><time>2026-05-05T21:40:05.000Z</time></trkpt>
        <trkpt lat="29.333571" lon="105.29427"><ele>376.2642</ele><time>2026-05-05T21:40:13.000Z</time></trkpt>
        <trkpt lat="29.333527" lon="105.294293"><ele>376.92905</ele><time>2026-05-05T21:40:21.000Z</time></trkpt>
        <trkpt lat="29.33358" lon="105.294255"><ele>376.80606</ele><time>2026-05-05T21:40:55.000Z</time></trkpt>
        <trkpt lat="29.333527" lon="105.294301"><ele>378.4327</ele><time>2026-05-05T21:41:17.000Z</time></trkpt>
        <trkpt lat="29.333531" lon="105.294244"><ele>378.00772</ele><time>2026-05-05T21:41:24.000Z</time></trkpt>
        <trkpt lat="29.333541" lon="105.294193"><ele>381.04355</ele><time>2026-05-05T21:41:30.000Z</time></trkpt>
        <trkpt lat="29.333583" lon="105.294156"><ele>379.67334</ele><time>2026-05-05T21:41:36.000Z</time></trkpt>
        <trkpt lat="29.333753" lon="105.294103"><ele>376.8599</ele><time>2026-05-05T21:41:57.000Z</time></trkpt>
        <trkpt lat="29.333721" lon="105.294048"><ele>376.79135</ele><time>2026-05-05T21:42:31.000Z</time></trkpt>
        <trkpt lat="29.333744" lon="105.293997"><ele>376.35153</ele><time>2026-05-05T21:42:36.000Z</time></trkpt>
        <trkpt lat="29.333759" lon="105.293942"><ele>376.88675</ele><time>2026-05-05T21:42:39.000Z</time></trkpt>
        <trkpt lat="29.333768" lon="105.293889"><ele>375.6059</ele><time>2026-05-05T21:42:43.000Z</time></trkpt>
        <trkpt lat="29.333776" lon="105.293838"><ele>374.8228</ele><time>2026-05-05T21:42:47.000Z</time></trkpt>
        <trkpt lat="29.333799" lon="105.293773"><ele>374.764</ele><time>2026-05-05T21:42:52.000Z</time></trkpt>
        <trkpt lat="29.333813" lon="105.293711"><ele>373.6558</ele><time>2026-05-05T21:42:56.000Z</time></trkpt>
        <trkpt lat="29.333798" lon="105.293645"><ele>374.44455</ele><time>2026-05-05T21:43:00.000Z</time></trkpt>
        <trkpt lat="29.333791" lon="105.293549"><ele>377.04312</ele><time>2026-05-05T21:43:11.000Z</time></trkpt>
        <trkpt lat="29.333819" lon="105.293502"><ele>377.0998</ele><time>2026-05-05T21:43:14.000Z</time></trkpt>
        <trkpt lat="29.333841" lon="105.29344"><ele>377.14774</ele><time>2026-05-05T21:43:17.000Z</time></trkpt>
        <trkpt lat="29.333881" lon="105.293386"><ele>377.5301</ele><time>2026-05-05T21:43:20.000Z</time></trkpt>
        <trkpt lat="29.333916" lon="105.293352"><ele>377.75784</ele><time>2026-05-05T21:43:23.000Z</time></trkpt>
        <trkpt lat="29.33397" lon="105.293328"><ele>377.5318</ele><time>2026-05-05T21:43:26.000Z</time></trkpt>
        <trkpt lat="29.33402" lon="105.293333"><ele>378.57004</ele><time>2026-05-05T21:43:33.000Z</time></trkpt>
        <trkpt lat="29.334079" lon="105.293348"><ele>379.23962</ele><time>2026-05-05T21:43:36.000Z</time></trkpt>
        <trkpt lat="29.334135" lon="105.293343"><ele>379.57758</ele><time>2026-05-05T21:43:40.000Z</time></trkpt>
        <trkpt lat="29.334193" lon="105.293344"><ele>379.16675</ele><time>2026-05-05T21:43:44.000Z</time></trkpt>
        <trkpt lat="29.334231" lon="105.293377"><ele>379.0553</ele><time>2026-05-05T21:43:47.000Z</time></trkpt>
        <trkpt lat="29.334275" lon="105.293418"><ele>379.5457</ele><time>2026-05-05T21:43:51.000Z</time></trkpt>
        <trkpt lat="29.334317" lon="105.29344"><ele>379.2356</ele><time>2026-05-05T21:43:56.000Z</time></trkpt>
        <trkpt lat="29.334368" lon="105.29345"><ele>379.4375</ele><time>2026-05-05T21:44:01.000Z</time></trkpt>
        <trkpt lat="29.334412" lon="105.293469"><ele>380.31195</ele><time>2026-05-05T21:44:04.000Z</time></trkpt>
        <trkpt lat="29.334453" lon="105.293493"><ele>379.53094</ele><time>2026-05-05T21:44:12.000Z</time></trkpt>
        <trkpt lat="29.334503" lon="105.29349"><ele>379.2398</ele><time>2026-05-05T21:44:21.000Z</time></trkpt>
        <trkpt lat="29.33453" lon="105.293538"><ele>381.11792</ele><time>2026-05-05T21:44:28.000Z</time></trkpt>
        <trkpt lat="29.334527" lon="105.293706"><ele>378.35013</ele><time>2026-05-05T21:44:38.000Z</time></trkpt>
        <trkpt lat="29.334528" lon="105.293767"><ele>377.1424</ele><time>2026-05-05T21:44:42.000Z</time></trkpt>
        <trkpt lat="29.334515" lon="105.293823"><ele>377.1978</ele><time>2026-05-05T21:44:47.000Z</time></trkpt>
        <trkpt lat="29.334513" lon="105.293885"><ele>377.18805</ele><time>2026-05-05T21:44:51.000Z</time></trkpt>
        <trkpt lat="29.334508" lon="105.293944"><ele>377.5924</ele><time>2026-05-05T21:44:55.000Z</time></trkpt>
        <trkpt lat="29.334503" lon="105.293996"><ele>376.7521</ele><time>2026-05-05T21:44:59.000Z</time></trkpt>
        <trkpt lat="29.334521" lon="105.294046"><ele>378.35892</ele><time>2026-05-05T21:45:07.000Z</time></trkpt>
        <trkpt lat="29.334503" lon="105.294097"><ele>378.7757</ele><time>2026-05-05T21:45:26.000Z</time></trkpt>
        <trkpt lat="29.334454" lon="105.294106"><ele>378.29285</ele><time>2026-05-05T21:45:36.000Z</time></trkpt>
        <trkpt lat="29.334406" lon="105.294125"><ele>376.8731</ele><time>2026-05-05T21:45:41.000Z</time></trkpt>
        <trkpt lat="29.334359" lon="105.294138"><ele>378.4316</ele><time>2026-05-05T21:45:51.000Z</time></trkpt>
        <trkpt lat="29.334327" lon="105.294102"><ele>377.55643</ele><time>2026-05-05T21:46:01.000Z</time></trkpt>
        <trkpt lat="29.334266" lon="105.294091"><ele>377.0961</ele><time>2026-05-05T21:46:06.000Z</time></trkpt>
        <trkpt lat="29.33422" lon="105.294084"><ele>377.39694</ele><time>2026-05-05T21:46:09.000Z</time></trkpt>
        <trkpt lat="29.334175" lon="105.294085"><ele>377.62186</ele><time>2026-05-05T21:46:12.000Z</time></trkpt>
        <trkpt lat="29.334127" lon="105.29411"><ele>377.68954</ele><time>2026-05-05T21:46:16.000Z</time></trkpt>
        <trkpt lat="29.334096" lon="105.29415"><ele>379.07108</ele><time>2026-05-05T21:46:23.000Z</time></trkpt>
        <trkpt lat="29.334058" lon="105.294182"><ele>379.0211</ele><time>2026-05-05T21:46:27.000Z</time></trkpt>
        <trkpt lat="29.334059" lon="105.294285"><ele>380.7528</ele><time>2026-05-05T21:46:54.000Z</time></trkpt>
        <trkpt lat="29.334172" lon="105.294208"><ele>381.0328</ele><time>2026-05-05T21:47:09.000Z</time></trkpt>
        <trkpt lat="29.334042" lon="105.294437"><ele>376.82446</ele><time>2026-05-05T21:47:37.000Z</time></trkpt>
        <trkpt lat="29.334068" lon="105.294498"><ele>376.41498</ele><time>2026-05-05T21:47:42.000Z</time></trkpt>
        <trkpt lat="29.334054" lon="105.294566"><ele>376.35876</ele><time>2026-05-05T21:47:46.000Z</time></trkpt>
        <trkpt lat="29.334017" lon="105.294616"><ele>376.11768</ele><time>2026-05-05T21:47:51.000Z</time></trkpt>
        <trkpt lat="29.334012" lon="105.294668"><ele>378.51288</ele><time>2026-05-05T21:48:26.000Z</time></trkpt>
        <trkpt lat="29.334072" lon="105.294662"><ele>378.8666</ele><time>2026-05-05T21:48:37.000Z</time></trkpt>
        <trkpt lat="29.334122" lon="105.294654"><ele>378.51566</ele><time>2026-05-05T21:48:41.000Z</time></trkpt>
        <trkpt lat="29.334167" lon="105.294641"><ele>378.01144</ele><time>2026-05-05T21:48:44.000Z</time></trkpt>
        <trkpt lat="29.334228" lon="105.294646"><ele>377.93115</ele><time>2026-05-05T21:48:48.000Z</time></trkpt>
        <trkpt lat="29.334272" lon="105.294643"><ele>378.55057</ele><time>2026-05-05T21:49:17.000Z</time></trkpt>
        <trkpt lat="29.334324" lon="105.294646"><ele>379.5079</ele><time>2026-05-05T21:49:29.000Z</time></trkpt>
        <trkpt lat="29.334384" lon="105.294658"><ele>379.27304</ele><time>2026-05-05T21:49:35.000Z</time></trkpt>
        <trkpt lat="29.334432" lon="105.294669"><ele>379.0093</ele><time>2026-05-05T21:49:39.000Z</time></trkpt>
        <trkpt lat="29.334475" lon="105.294691"><ele>378.0639</ele><time>2026-05-05T21:49:44.000Z</time></trkpt>
        <trkpt lat="29.334524" lon="105.294677"><ele>377.98706</ele><time>2026-05-05T21:49:48.000Z</time></trkpt>
        <trkpt lat="29.33457" lon="105.294656"><ele>379.07968</ele><time>2026-05-05T21:49:54.000Z</time></trkpt>
        <trkpt lat="29.334616" lon="105.294643"><ele>379.24646</ele><time>2026-05-05T21:49:58.000Z</time></trkpt>
        <trkpt lat="29.334662" lon="105.294633"><ele>380.01974</ele><time>2026-05-05T21:50:03.000Z</time></trkpt>
        <trkpt lat="29.334711" lon="105.294649"><ele>379.16592</ele><time>2026-05-05T21:50:07.000Z</time></trkpt>
        <trkpt lat="29.33476" lon="105.294659"><ele>378.8889</ele><time>2026-05-05T21:50:11.000Z</time></trkpt>
        <trkpt lat="29.33477" lon="105.2946"><ele>377.83588</ele><time>2026-05-05T21:50:20.000Z</time></trkpt>
        <trkpt lat="29.334734" lon="105.294557"><ele>377.9395</ele><time>2026-05-05T21:50:26.000Z</time></trkpt>
        <trkpt lat="29.334707" lon="105.294507"><ele>376.1044</ele><time>2026-05-05T21:50:31.000Z</time></trkpt>
        <trkpt lat="29.334702" lon="105.29445"><ele>375.2097</ele><time>2026-05-05T21:50:35.000Z</time></trkpt>
        <trkpt lat="29.334696" lon="105.294383"><ele>375.61282</ele><time>2026-05-05T21:50:39.000Z</time></trkpt>
        <trkpt lat="29.334715" lon="105.294333"><ele>376.44705</ele><time>2026-05-05T21:50:42.000Z</time></trkpt>
        <trkpt lat="29.334721" lon="105.294278"><ele>376.8411</ele><time>2026-05-05T21:50:47.000Z</time></trkpt>
        <trkpt lat="29.334734" lon="105.294223"><ele>377.63538</ele><time>2026-05-05T21:50:51.000Z</time></trkpt>
        <trkpt lat="29.334737" lon="105.29417"><ele>377.72577</ele><time>2026-05-05T21:50:55.000Z</time></trkpt>
        <trkpt lat="29.334716" lon="105.294123"><ele>375.72794</ele><time>2026-05-05T21:51:03.000Z</time></trkpt>
        <trkpt lat="29.334665" lon="105.294122"><ele>375.88068</ele><time>2026-05-05T21:51:08.000Z</time></trkpt>
        <trkpt lat="29.334616" lon="105.29412"><ele>376.96985</ele><time>2026-05-05T21:51:12.000Z</time></trkpt>
        <trkpt lat="29.33457" lon="105.294105"><ele>377.1422</ele><time>2026-05-05T21:51:17.000Z</time></trkpt>
        <trkpt lat="29.334539" lon="105.294063"><ele>377.25296</ele><time>2026-05-05T21:51:22.000Z</time></trkpt>
        <trkpt lat="29.334528" lon="105.294005"><ele>376.9665</ele><time>2026-05-05T21:51:24.000Z</time></trkpt>
        <trkpt lat="29.334512" lon="105.293939"><ele>377.72955</ele><time>2026-05-05T21:51:28.000Z</time></trkpt>
        <trkpt lat="29.334503" lon="105.293873"><ele>377.9236</ele><time>2026-05-05T21:51:31.000Z</time></trkpt>
        <trkpt lat="29.334487" lon="105.293819"><ele>378.0085</ele><time>2026-05-05T21:51:34.000Z</time></trkpt>
        <trkpt lat="29.334478" lon="105.293768"><ele>377.3022</ele><time>2026-05-05T21:51:37.000Z</time></trkpt>
        <trkpt lat="29.334501" lon="105.293717"><ele>377.6555</ele><time>2026-05-05T21:51:41.000Z</time></trkpt>
        <trkpt lat="29.334519" lon="105.293653"><ele>377.95554</ele><time>2026-05-05T21:51:44.000Z</time></trkpt>
        <trkpt lat="29.334533" lon="105.293594"><ele>377.76196</ele><time>2026-05-05T21:51:49.000Z</time></trkpt>
        <trkpt lat="29.334564" lon="105.293556"><ele>378.46048</ele><time>2026-05-05T21:51:55.000Z</time></trkpt>
        <trkpt lat="29.334601" lon="105.293507"><ele>378.90927</ele><time>2026-05-05T21:52:00.000Z</time></trkpt>
        <trkpt lat="29.334648" lon="105.293506"><ele>378.02545</ele><time>2026-05-05T21:52:05.000Z</time></trkpt>
        <trkpt lat="29.334691" lon="105.293488"><ele>377.47757</ele><time>2026-05-05T21:52:17.000Z</time></trkpt>
        <trkpt lat="29.334738" lon="105.293488"><ele>377.43756</ele><time>2026-05-05T21:52:22.000Z</time></trkpt>
        <trkpt lat="29.334784" lon="105.293487"><ele>378.26047</ele><time>2026-05-05T21:52:26.000Z</time></trkpt>
        <trkpt lat="29.334837" lon="105.293465"><ele>377.2804</ele><time>2026-05-05T21:52:29.000Z</time></trkpt>
        <trkpt lat="29.334899" lon="105.293459"><ele>377.44443</ele><time>2026-05-05T21:52:33.000Z</time></trkpt>
        <trkpt lat="29.334953" lon="105.293457"><ele>375.89417</ele><time>2026-05-05T21:52:37.000Z</time></trkpt>
        <trkpt lat="29.334998" lon="105.293455"><ele>375.41492</ele><time>2026-05-05T21:52:40.000Z</time></trkpt>
        <trkpt lat="29.335062" lon="105.29345"><ele>375.96576</ele><time>2026-05-05T21:52:44.000Z</time></trkpt>
        <trkpt lat="29.33511" lon="105.293466"><ele>373.7408</ele><time>2026-05-05T21:52:47.000Z</time></trkpt>
        <trkpt lat="29.335155" lon="105.293474"><ele>373.56964</ele><time>2026-05-05T21:52:50.000Z</time></trkpt>
        <trkpt lat="29.335203" lon="105.293479"><ele>372.86124</ele><time>2026-05-05T21:52:53.000Z</time></trkpt>
        <trkpt lat="29.335257" lon="105.293465"><ele>373.05984</ele><time>2026-05-05T21:52:57.000Z</time></trkpt>
        <trkpt lat="29.335293" lon="105.29342"><ele>373.99</ele><time>2026-05-05T21:53:01.000Z</time></trkpt>
        <trkpt lat="29.335333" lon="105.293384"><ele>374.4765</ele><time>2026-05-05T21:53:06.000Z</time></trkpt>
        <trkpt lat="29.335378" lon="105.293361"><ele>374.56137</ele><time>2026-05-05T21:53:10.000Z</time></trkpt>
        <trkpt lat="29.335327" lon="105.293373"><ele>373.20032</ele><time>2026-05-05T21:53:31.000Z</time></trkpt>
        <trkpt lat="29.335287" lon="105.293402"><ele>372.4013</ele><time>2026-05-05T21:53:37.000Z</time></trkpt>
        <trkpt lat="29.33525" lon="105.293442"><ele>372.53168</ele><time>2026-05-05T21:53:41.000Z</time></trkpt>
        <trkpt lat="29.335213" lon="105.293473"><ele>372.2435</ele><time>2026-05-05T21:53:46.000Z</time></trkpt>
        <trkpt lat="29.335158" lon="105.29347"><ele>372.48346</ele><time>2026-05-05T21:53:50.000Z</time></trkpt>
        <trkpt lat="29.335104" lon="105.293485"><ele>371.84616</ele><time>2026-05-05T21:53:55.000Z</time></trkpt>
        <trkpt lat="29.33505" lon="105.293474"><ele>373.30826</ele><time>2026-05-05T21:53:59.000Z</time></trkpt>
        <trkpt lat="29.334993" lon="105.293463"><ele>373.6623</ele><time>2026-05-05T21:54:03.000Z</time></trkpt>
        <trkpt lat="29.33494" lon="105.293445"><ele>375.1587</ele><time>2026-05-05T21:54:08.000Z</time></trkpt>
        <trkpt lat="29.334884" lon="105.293439"><ele>376.2084</ele><time>2026-05-05T21:54:12.000Z</time></trkpt>
        <trkpt lat="29.334838" lon="105.293445"><ele>376.64337</ele><time>2026-05-05T21:54:15.000Z</time></trkpt>
        <trkpt lat="29.334791" lon="105.293433"><ele>375.7546</ele><time>2026-05-05T21:54:19.000Z</time></trkpt>
        <trkpt lat="29.334765" lon="105.29348"><ele>375.1898</ele><time>2026-05-05T21:54:27.000Z</time></trkpt>
        <trkpt lat="29.334808" lon="105.293516"><ele>375.39264</ele><time>2026-05-05T21:54:31.000Z</time></trkpt>
        <trkpt lat="29.334857" lon="105.293507"><ele>378.46088</ele><time>2026-05-05T21:54:37.000Z</time></trkpt>
        <trkpt lat="29.334904" lon="105.293496"><ele>377.51498</ele><time>2026-05-05T21:54:50.000Z</time></trkpt>
        <trkpt lat="29.335029" lon="105.293518"><ele>375.80887</ele><time>2026-05-05T21:55:00.000Z</time></trkpt>
        <trkpt lat="29.335076" lon="105.29352"><ele>375.77692</ele><time>2026-05-05T21:55:01.000Z</time></trkpt>
        <trkpt lat="29.335163" lon="105.293535"><ele>375.57925</ele><time>2026-05-05T21:55:03.000Z</time></trkpt>
        <trkpt lat="29.335241" lon="105.293577"><ele>374.5757</ele><time>2026-05-05T21:55:05.000Z</time></trkpt>
        <trkpt lat="29.335293" lon="105.29358"><ele>374.00006</ele><time>2026-05-05T21:55:06.000Z</time></trkpt>
        <trkpt lat="29.335348" lon="105.293566"><ele>374.00674</ele><time>2026-05-05T21:55:07.000Z</time></trkpt>
        <trkpt lat="29.335407" lon="105.293517"><ele>372.29156</ele><time>2026-05-05T21:55:09.000Z</time></trkpt>
        <trkpt lat="29.33542" lon="105.293466"><ele>372.90463</ele><time>2026-05-05T21:55:13.000Z</time></trkpt>
        <trkpt lat="29.335431" lon="105.29336"><ele>373.36847</ele><time>2026-05-05T21:55:21.000Z</time></trkpt>
        <trkpt lat="29.335438" lon="105.293306"><ele>373.4802</ele><time>2026-05-05T21:55:24.000Z</time></trkpt>
        <trkpt lat="29.335441" lon="105.293236"><ele>374.3101</ele><time>2026-05-05T21:55:27.000Z</time></trkpt>
        <trkpt lat="29.335431" lon="105.293171"><ele>374.19165</ele><time>2026-05-05T21:55:29.000Z</time></trkpt>
        <trkpt lat="29.335431" lon="105.293111"><ele>374.01465</ele><time>2026-05-05T21:55:30.000Z</time></trkpt>
        <trkpt lat="29.335428" lon="105.293056"><ele>373.87894</ele><time>2026-05-05T21:55:31.000Z</time></trkpt>
        <trkpt lat="29.335439" lon="105.292956"><ele>373.7456</ele><time>2026-05-05T21:55:33.000Z</time></trkpt>
        <trkpt lat="29.335426" lon="105.292902"><ele>373.64697</ele><time>2026-05-05T21:55:34.000Z</time></trkpt>
        <trkpt lat="29.335392" lon="105.292809"><ele>373.82535</ele><time>2026-05-05T21:55:36.000Z</time></trkpt>
        <trkpt lat="29.335396" lon="105.292743"><ele>373.8682</ele><time>2026-05-05T21:55:37.000Z</time></trkpt>
        <trkpt lat="29.335421" lon="105.292678"><ele>373.62405</ele><time>2026-05-05T21:55:38.000Z</time></trkpt>
        <trkpt lat="29.335448" lon="105.292611"><ele>373.65155</ele><time>2026-05-05T21:55:39.000Z</time></trkpt>
        <trkpt lat="29.335462" lon="105.292537"><ele>373.57248</ele><time>2026-05-05T21:55:40.000Z</time></trkpt>
        <trkpt lat="29.335488" lon="105.292471"><ele>373.5388</ele><time>2026-05-05T21:55:41.000Z</time></trkpt>
        <trkpt lat="29.335502" lon="105.292403"><ele>373.4977</ele><time>2026-05-05T21:55:42.000Z</time></trkpt>
        <trkpt lat="29.335496" lon="105.292327"><ele>373.25018</ele><time>2026-05-05T21:55:43.000Z</time></trkpt>
        <trkpt lat="29.335502" lon="105.292243"><ele>373.33868</ele><time>2026-05-05T21:55:44.000Z</time></trkpt>
        <trkpt lat="29.335482" lon="105.292168"><ele>373.11166</ele><time>2026-05-05T21:55:45.000Z</time></trkpt>
        <trkpt lat="29.335458" lon="105.292098"><ele>373.0221</ele><time>2026-05-05T21:55:46.000Z</time></trkpt>
        <trkpt lat="29.335444" lon="105.292034"><ele>373.00092</ele><time>2026-05-05T21:55:47.000Z</time></trkpt>
        <trkpt lat="29.335439" lon="105.291955"><ele>373.03214</ele><time>2026-05-05T21:55:48.000Z</time></trkpt>
        <trkpt lat="29.335466" lon="105.291835"><ele>372.74487</ele><time>2026-05-05T21:55:50.000Z</time></trkpt>
        <trkpt lat="29.335472" lon="105.291777"><ele>372.6491</ele><time>2026-05-05T21:55:51.000Z</time></trkpt>
        <trkpt lat="29.335526" lon="105.291628"><ele>372.5725</ele><time>2026-05-05T21:55:54.000Z</time></trkpt>
        <trkpt lat="29.335545" lon="105.291575"><ele>372.73947</ele><time>2026-05-05T21:55:56.000Z</time></trkpt>
        <trkpt lat="29.335825" lon="105.291461"><ele>372.74387</ele><time>2026-05-05T21:56:08.000Z</time></trkpt>
        <trkpt lat="29.335901" lon="105.291458"><ele>372.46008</ele><time>2026-05-05T21:56:09.000Z</time></trkpt>
        <trkpt lat="29.335987" lon="105.291464"><ele>372.29413</ele><time>2026-05-05T21:56:10.000Z</time></trkpt>
        <trkpt lat="29.336077" lon="105.291474"><ele>371.86945</ele><time>2026-05-05T21:56:11.000Z</time></trkpt>
        <trkpt lat="29.336176" lon="105.291481"><ele>371.56415</ele><time>2026-05-05T21:56:12.000Z</time></trkpt>
        <trkpt lat="29.33628" lon="105.291492"><ele>371.16507</ele><time>2026-05-05T21:56:13.000Z</time></trkpt>
        <trkpt lat="29.33638" lon="105.291498"><ele>371.0881</ele><time>2026-05-05T21:56:14.000Z</time></trkpt>
        <trkpt lat="29.336478" lon="105.291519"><ele>370.5656</ele><time>2026-05-05T21:56:15.000Z</time></trkpt>
        <trkpt lat="29.336581" lon="105.291526"><ele>370.7835</ele><time>2026-05-05T21:56:16.000Z</time></trkpt>
        <trkpt lat="29.336683" lon="105.291527"><ele>370.92502</ele><time>2026-05-05T21:56:17.000Z</time></trkpt>
        <trkpt lat="29.336788" lon="105.291532"><ele>370.84558</ele><time>2026-05-05T21:56:18.000Z</time></trkpt>
        <trkpt lat="29.336892" lon="105.291541"><ele>370.91028</ele><time>2026-05-05T21:56:19.000Z</time></trkpt>
        <trkpt lat="29.336999" lon="105.291559"><ele>370.82065</ele><time>2026-05-05T21:56:20.000Z</time></trkpt>
        <trkpt lat="29.337099" lon="105.291572"><ele>370.63437</ele><time>2026-05-05T21:56:21.000Z</time></trkpt>
        <trkpt lat="29.337186" lon="105.291577"><ele>370.34067</ele><time>2026-05-05T21:56:22.000Z</time></trkpt>
        <trkpt lat="29.337318" lon="105.291573"><ele>369.82095</ele><time>2026-05-05T21:56:24.000Z</time></trkpt>
        <trkpt lat="29.337381" lon="105.291568"><ele>369.91537</ele><time>2026-05-05T21:56:25.000Z</time></trkpt>
        <trkpt lat="29.337433" lon="105.291566"><ele>369.75458</ele><time>2026-05-05T21:56:26.000Z</time></trkpt>
        <trkpt lat="29.337497" lon="105.291566"><ele>369.514</ele><time>2026-05-05T21:56:28.000Z</time></trkpt>
        <trkpt lat="29.337543" lon="105.291544"><ele>369.63425</ele><time>2026-05-05T21:57:12.000Z</time></trkpt>
        <trkpt lat="29.33762" lon="105.291548"><ele>369.56714</ele><time>2026-05-05T21:57:15.000Z</time></trkpt>
        <trkpt lat="29.337704" lon="105.291553"><ele>369.53958</ele><time>2026-05-05T21:57:17.000Z</time></trkpt>
        <trkpt lat="29.337752" lon="105.291556"><ele>369.6024</ele><time>2026-05-05T21:57:18.000Z</time></trkpt>
        <trkpt lat="29.337805" lon="105.291558"><ele>369.6197</ele><time>2026-05-05T21:57:19.000Z</time></trkpt>
        <trkpt lat="29.337865" lon="105.291556"><ele>369.72067</ele><time>2026-05-05T21:57:20.000Z</time></trkpt>
        <trkpt lat="29.337932" lon="105.291553"><ele>369.74915</ele><time>2026-05-05T21:57:21.000Z</time></trkpt>
        <trkpt lat="29.338004" lon="105.291544"><ele>369.74817</ele><time>2026-05-05T21:57:22.000Z</time></trkpt>
        <trkpt lat="29.33808" lon="105.291534"><ele>369.7879</ele><time>2026-05-05T21:57:23.000Z</time></trkpt>
        <trkpt lat="29.338152" lon="105.291525"><ele>369.8301</ele><time>2026-05-05T21:57:24.000Z</time></trkpt>
        <trkpt lat="29.338207" lon="105.291522"><ele>369.805</ele><time>2026-05-05T21:57:25.000Z</time></trkpt>
        <trkpt lat="29.338285" lon="105.291518"><ele>369.84778</ele><time>2026-05-05T21:57:27.000Z</time></trkpt>
        <trkpt lat="29.338361" lon="105.291502"><ele>370.02008</ele><time>2026-05-05T21:57:29.000Z</time></trkpt>
        <trkpt lat="29.338452" lon="105.291494"><ele>370.22568</ele><time>2026-05-05T21:57:31.000Z</time></trkpt>
        <trkpt lat="29.338513" lon="105.291485"><ele>370.31653</ele><time>2026-05-05T21:57:32.000Z</time></trkpt>
        <trkpt lat="29.338588" lon="105.291474"><ele>370.50726</ele><time>2026-05-05T21:57:33.000Z</time></trkpt>
        <trkpt lat="29.338672" lon="105.291458"><ele>370.80463</ele><time>2026-05-05T21:57:34.000Z</time></trkpt>
        <trkpt lat="29.338757" lon="105.291435"><ele>370.5939</ele><time>2026-05-05T21:57:35.000Z</time></trkpt>
        <trkpt lat="29.338842" lon="105.291404"><ele>370.4003</ele><time>2026-05-05T21:57:36.000Z</time></trkpt>
        <trkpt lat="29.338933" lon="105.291365"><ele>370.47723</ele><time>2026-05-05T21:57:37.000Z</time></trkpt>
        <trkpt lat="29.339027" lon="105.291314"><ele>370.48703</ele><time>2026-05-05T21:57:38.000Z</time></trkpt>
        <trkpt lat="29.339126" lon="105.291256"><ele>370.4928</ele><time>2026-05-05T21:57:39.000Z</time></trkpt>
        <trkpt lat="29.339224" lon="105.291189"><ele>370.54434</ele><time>2026-05-05T21:57:40.000Z</time></trkpt>
        <trkpt lat="29.339322" lon="105.291111"><ele>370.63162</ele><time>2026-05-05T21:57:41.000Z</time></trkpt>
        <trkpt lat="29.339417" lon="105.291029"><ele>370.7146</ele><time>2026-05-05T21:57:42.000Z</time></trkpt>
        <trkpt lat="29.339509" lon="105.290946"><ele>370.7274</ele><time>2026-05-05T21:57:43.000Z</time></trkpt>
        <trkpt lat="29.339596" lon="105.290869"><ele>370.78464</ele><time>2026-05-05T21:57:44.000Z</time></trkpt>
        <trkpt lat="29.339676" lon="105.290797"><ele>370.6667</ele><time>2026-05-05T21:57:45.000Z</time></trkpt>
        <trkpt lat="29.339753" lon="105.290729"><ele>370.35324</ele><time>2026-05-05T21:57:46.000Z</time></trkpt>
        <trkpt lat="29.339831" lon="105.290662"><ele>370.32318</ele><time>2026-05-05T21:57:47.000Z</time></trkpt>
        <trkpt lat="29.339905" lon="105.290596"><ele>370.26212</ele><time>2026-05-05T21:57:48.000Z</time></trkpt>
        <trkpt lat="29.339977" lon="105.290532"><ele>370.01425</ele><time>2026-05-05T21:57:49.000Z</time></trkpt>
        <trkpt lat="29.34005" lon="105.290468"><ele>369.94427</ele><time>2026-05-05T21:57:50.000Z</time></trkpt>
        <trkpt lat="29.340119" lon="105.290405"><ele>369.8243</ele><time>2026-05-05T21:57:51.000Z</time></trkpt>
        <trkpt lat="29.340187" lon="105.290344"><ele>369.8665</ele><time>2026-05-05T21:57:52.000Z</time></trkpt>
        <trkpt lat="29.340254" lon="105.290285"><ele>369.7102</ele><time>2026-05-05T21:57:53.000Z</time></trkpt>
        <trkpt lat="29.340317" lon="105.290228"><ele>369.57785</ele><time>2026-05-05T21:57:54.000Z</time></trkpt>
        <trkpt lat="29.340378" lon="105.290174"><ele>369.5414</ele><time>2026-05-05T21:57:55.000Z</time></trkpt>
        <trkpt lat="29.340439" lon="105.290122"><ele>369.4025</ele><time>2026-05-05T21:57:56.000Z</time></trkpt>
        <trkpt lat="29.3405" lon="105.290069"><ele>369.34033</ele><time>2026-05-05T21:57:57.000Z</time></trkpt>
        <trkpt lat="29.340562" lon="105.290016"><ele>369.19055</ele><time>2026-05-05T21:57:58.000Z</time></trkpt>
        <trkpt lat="29.340621" lon="105.289964"><ele>369.0654</ele><time>2026-05-05T21:57:59.000Z</time></trkpt>
        <trkpt lat="29.340678" lon="105.289914"><ele>369.05313</ele><time>2026-05-05T21:58:00.000Z</time></trkpt>
        <trkpt lat="29.340733" lon="105.289863"><ele>368.71255</ele><time>2026-05-05T21:58:01.000Z</time></trkpt>
        <trkpt lat="29.340781" lon="105.28982"><ele>368.5499</ele><time>2026-05-05T21:58:02.000Z</time></trkpt>
        <trkpt lat="29.340829" lon="105.289781"><ele>368.53757</ele><time>2026-05-05T21:58:03.000Z</time></trkpt>
        <trkpt lat="29.340876" lon="105.289746"><ele>368.47327</ele><time>2026-05-05T21:58:04.000Z</time></trkpt>
        <trkpt lat="29.340916" lon="105.289717"><ele>368.382</ele><time>2026-05-05T21:58:05.000Z</time></trkpt>
        <trkpt lat="29.340984" lon="105.289675"><ele>368.28464</ele><time>2026-05-05T21:58:07.000Z</time></trkpt>
        <trkpt lat="29.341031" lon="105.289644"><ele>367.97607</ele><time>2026-05-05T21:58:10.000Z</time></trkpt>
        <trkpt lat="29.341072" lon="105.289623"><ele>367.79822</ele><time>2026-05-05T21:58:13.000Z</time></trkpt>
        <trkpt lat="29.341118" lon="105.289618"><ele>367.396</ele><time>2026-05-05T21:58:17.000Z</time></trkpt>
        <trkpt lat="29.341165" lon="105.289629"><ele>367.2335</ele><time>2026-05-05T21:58:21.000Z</time></trkpt>
        <trkpt lat="29.341237" lon="105.289671"><ele>367.3088</ele><time>2026-05-05T21:58:23.000Z</time></trkpt>
        <trkpt lat="29.341308" lon="105.289687"><ele>367.21036</ele><time>2026-05-05T21:58:25.000Z</time></trkpt>
        <trkpt lat="29.34135" lon="105.289709"><ele>367.2593</ele><time>2026-05-05T21:58:26.000Z</time></trkpt>
        <trkpt lat="29.341393" lon="105.289755"><ele>367.44968</ele><time>2026-05-05T21:58:27.000Z</time></trkpt>
        <trkpt lat="29.341441" lon="105.289813"><ele>367.50403</ele><time>2026-05-05T21:58:28.000Z</time></trkpt>
        <trkpt lat="29.341491" lon="105.289882"><ele>367.58954</ele><time>2026-05-05T21:58:29.000Z</time></trkpt>
        <trkpt lat="29.341537" lon="105.289952"><ele>367.615</ele><time>2026-05-05T21:58:30.000Z</time></trkpt>
        <trkpt lat="29.341578" lon="105.290016"><ele>367.45193</ele><time>2026-05-05T21:58:31.000Z</time></trkpt>
        <trkpt lat="29.341618" lon="105.290073"><ele>367.45322</ele><time>2026-05-05T21:58:32.000Z</time></trkpt>
        <trkpt lat="29.341659" lon="105.290124"><ele>367.40762</ele><time>2026-05-05T21:58:33.000Z</time></trkpt>
        <trkpt lat="29.34171" lon="105.290176"><ele>367.48993</ele><time>2026-05-05T21:58:34.000Z</time></trkpt>
        <trkpt lat="29.341772" lon="105.290214"><ele>367.0782</ele><time>2026-05-05T21:58:35.000Z</time></trkpt>
        <trkpt lat="29.341837" lon="105.290236"><ele>366.83017</ele><time>2026-05-05T21:58:36.000Z</time></trkpt>
        <trkpt lat="29.341898" lon="105.290237"><ele>366.51297</ele><time>2026-05-05T21:58:37.000Z</time></trkpt>
        <trkpt lat="29.341956" lon="105.290224"><ele>366.64435</ele><time>2026-05-05T21:58:38.000Z</time></trkpt>
        <trkpt lat="29.342001" lon="105.290201"><ele>366.66275</ele><time>2026-05-05T21:58:39.000Z</time></trkpt>
        <trkpt lat="29.342038" lon="105.29017"><ele>367.37448</ele><time>2026-05-05T21:58:43.000Z</time></trkpt>
        <trkpt lat="29.342084" lon="105.290134"><ele>367.20636</ele><time>2026-05-05T21:58:47.000Z</time></trkpt>
        <trkpt lat="29.342147" lon="105.290072"><ele>366.82874</ele><time>2026-05-05T21:58:49.000Z</time></trkpt>
        <trkpt lat="29.342224" lon="105.290051"><ele>366.8604</ele><time>2026-05-05T21:58:50.000Z</time></trkpt>
        <trkpt lat="29.342288" lon="105.290029"><ele>366.8894</ele><time>2026-05-05T21:58:51.000Z</time></trkpt>
        <trkpt lat="29.342358" lon="105.290031"><ele>366.97815</ele><time>2026-05-05T21:58:52.000Z</time></trkpt>
        <trkpt lat="29.342443" lon="105.290048"><ele>367.2685</ele><time>2026-05-05T21:58:53.000Z</time></trkpt>
        <trkpt lat="29.342521" lon="105.290091"><ele>367.58633</ele><time>2026-05-05T21:58:54.000Z</time></trkpt>
        <trkpt lat="29.342613" lon="105.290134"><ele>367.68732</ele><time>2026-05-05T21:58:55.000Z</time></trkpt>
        <trkpt lat="29.342708" lon="105.290176"><ele>368.12662</ele><time>2026-05-05T21:58:56.000Z</time></trkpt>
        <trkpt lat="29.342811" lon="105.290205"><ele>368.4406</ele><time>2026-05-05T21:58:57.000Z</time></trkpt>
        <trkpt lat="29.342907" lon="105.290272"><ele>368.62186</ele><time>2026-05-05T21:58:58.000Z</time></trkpt>
        <trkpt lat="29.343011" lon="105.290329"><ele>368.84613</ele><time>2026-05-05T21:58:59.000Z</time></trkpt>
        <trkpt lat="29.343123" lon="105.29038"><ele>368.93683</ele><time>2026-05-05T21:59:00.000Z</time></trkpt>
        <trkpt lat="29.343243" lon="105.290435"><ele>368.91946</ele><time>2026-05-05T21:59:01.000Z</time></trkpt>
        <trkpt lat="29.343355" lon="105.290487"><ele>369.11816</ele><time>2026-05-05T21:59:02.000Z</time></trkpt>
        <trkpt lat="29.343465" lon="105.290534"><ele>369.28958</ele><time>2026-05-05T21:59:03.000Z</time></trkpt>
        <trkpt lat="29.343564" lon="105.290581"><ele>369.30173</ele><time>2026-05-05T21:59:04.000Z</time></trkpt>
        <trkpt lat="29.34366" lon="105.290624"><ele>369.26474</ele><time>2026-05-05T21:59:05.000Z</time></trkpt>
        <trkpt lat="29.34375" lon="105.290668"><ele>369.23004</ele><time>2026-05-05T21:59:06.000Z</time></trkpt>
        <trkpt lat="29.343831" lon="105.290712"><ele>369.21002</ele><time>2026-05-05T21:59:07.000Z</time></trkpt>
        <trkpt lat="29.343907" lon="105.290748"><ele>369.04532</ele><time>2026-05-05T21:59:08.000Z</time></trkpt>
        <trkpt lat="29.343971" lon="105.290784"><ele>369.02695</ele><time>2026-05-05T21:59:09.000Z</time></trkpt>
        <trkpt lat="29.344045" lon="105.2908"><ele>368.97736</ele><time>2026-05-05T21:59:10.000Z</time></trkpt>
        <trkpt lat="29.344111" lon="105.290793"><ele>368.80606</ele><time>2026-05-05T21:59:11.000Z</time></trkpt>
        <trkpt lat="29.344196" lon="105.290773"><ele>368.5956</ele><time>2026-05-05T21:59:12.000Z</time></trkpt>
        <trkpt lat="29.344272" lon="105.290752"><ele>368.34146</ele><time>2026-05-05T21:59:13.000Z</time></trkpt>
        <trkpt lat="29.344344" lon="105.29072"><ele>368.19818</ele><time>2026-05-05T21:59:14.000Z</time></trkpt>
        <trkpt lat="29.344407" lon="105.290684"><ele>367.8392</ele><time>2026-05-05T21:59:15.000Z</time></trkpt>
        <trkpt lat="29.344443" lon="105.290614"><ele>367.2263</ele><time>2026-05-05T21:59:16.000Z</time></trkpt>
        <trkpt lat="29.344487" lon="105.290568"><ele>367.27365</ele><time>2026-05-05T21:59:17.000Z</time></trkpt>
        <trkpt lat="29.344533" lon="105.29052"><ele>367.22784</ele><time>2026-05-05T21:59:18.000Z</time></trkpt>
        <trkpt lat="29.344568" lon="105.290469"><ele>367.32806</ele><time>2026-05-05T21:59:19.000Z</time></trkpt>
        <trkpt lat="29.34465" lon="105.290447"><ele>367.3188</ele><time>2026-05-05T21:59:20.000Z</time></trkpt>
        <trkpt lat="29.344694" lon="105.29038"><ele>367.0696</ele><time>2026-05-05T21:59:21.000Z</time></trkpt>
        <trkpt lat="29.344734" lon="105.290307"><ele>366.91476</ele><time>2026-05-05T21:59:22.000Z</time></trkpt>
        <trkpt lat="29.344769" lon="105.290236"><ele>366.66138</ele><time>2026-05-05T21:59:23.000Z</time></trkpt>
        <trkpt lat="29.344802" lon="105.290164"><ele>366.5591</ele><time>2026-05-05T21:59:24.000Z</time></trkpt>
        <trkpt lat="29.344835" lon="105.290077"><ele>366.41354</ele><time>2026-05-05T21:59:25.000Z</time></trkpt>
        <trkpt lat="29.344872" lon="105.289985"><ele>366.2468</ele><time>2026-05-05T21:59:26.000Z</time></trkpt>
        <trkpt lat="29.344912" lon="105.289886"><ele>365.96854</ele><time>2026-05-05T21:59:27.000Z</time></trkpt>
        <trkpt lat="29.34495" lon="105.289784"><ele>365.85645</ele><time>2026-05-05T21:59:28.000Z</time></trkpt>
        <trkpt lat="29.344989" lon="105.289695"><ele>365.7928</ele><time>2026-05-05T21:59:29.000Z</time></trkpt>
        <trkpt lat="29.345021" lon="105.289615"><ele>365.41013</ele><time>2026-05-05T21:59:30.000Z</time></trkpt>
        <trkpt lat="29.345047" lon="105.289531"><ele>365.50012</ele><time>2026-05-05T21:59:31.000Z</time></trkpt>
        <trkpt lat="29.345065" lon="105.289461"><ele>365.47925</ele><time>2026-05-05T21:59:32.000Z</time></trkpt>
        <trkpt lat="29.345075" lon="105.289388"><ele>365.6646</ele><time>2026-05-05T21:59:33.000Z</time></trkpt>
        <trkpt lat="29.345094" lon="105.289316"><ele>365.76965</ele><time>2026-05-05T21:59:34.000Z</time></trkpt>
        <trkpt lat="29.345111" lon="105.289242"><ele>365.5933</ele><time>2026-05-05T21:59:35.000Z</time></trkpt>
        <trkpt lat="29.345121" lon="105.289168"><ele>365.37958</ele><time>2026-05-05T21:59:36.000Z</time></trkpt>
        <trkpt lat="29.34513" lon="105.28911"><ele>364.947</ele><time>2026-05-05T21:59:37.000Z</time></trkpt>
        <trkpt lat="29.345148" lon="105.289024"><ele>364.3029</ele><time>2026-05-05T21:59:39.000Z</time></trkpt>
        <trkpt lat="29.345155" lon="105.288953"><ele>364.5758</ele><time>2026-05-05T21:59:41.000Z</time></trkpt>
        <trkpt lat="29.34516" lon="105.288866"><ele>364.58218</ele><time>2026-05-05T21:59:43.000Z</time></trkpt>
        <trkpt lat="29.34517" lon="105.288809"><ele>364.8616</ele><time>2026-05-05T21:59:44.000Z</time></trkpt>
        <trkpt lat="29.345175" lon="105.28875"><ele>365.51373</ele><time>2026-05-05T21:59:45.000Z</time></trkpt>
      </trkseg>
  </trk>
</gpx>